Wetterdaten: Mittwoch, 04.09.2019
Datum Zeit Temp. A. Pool Temp. Temp. 5cm Feuchte A. Luftdruck Regen Wind Richtung Richtung Sonnenschein ET UV Solar Taupunkt Windchill Windben Empfang
04.09.2019 00:00 12,4 C 22,2 C 11,7 C 81 % 1022,5 hPa 0,0 l/m 5,8 km/h (2 Bft) S-SW 206 0 min 0,000 mm 0,0 UV-I 0 W/m 9,2 C 12,4 C 8,0 km/h (2 Bft) 96,30 %
04.09.2019 00:02 12,4 C 22,2 C 11,7 C 81 % 1022,5 hPa 0,0 l/m 6,1 km/h (2 Bft) SW 219 0 min 0,000 mm 0,0 UV-I 0 W/m 9,2 C 12,4 C 8,0 km/h (2 Bft) 95,45 %
04.09.2019 00:04 12,4 C 22,2 C 11,7 C 81 % 1022,5 hPa 0,0 l/m 5,7 km/h (1 Bft) S-SW 212 0 min 0,000 mm 0,0 UV-I 0 W/m 9,2 C 12,4 C 8,0 km/h (2 Bft) 95,12 %
04.09.2019 00:06 12,4 C 22,2 C 11,1 C 81 % 1022,5 hPa 0,0 l/m 5,9 km/h (2 Bft) S-SW 213 0 min 0,000 mm 0,0 UV-I 0 W/m 9,2 C 12,4 C 8,0 km/h (2 Bft) 94,00 %
04.09.2019 00:08 12,3 C 22,2 C 11,1 C 81 % 1022,5 hPa 0,0 l/m 4,7 km/h (1 Bft) S-SW 194 0 min 0,000 mm 0,0 UV-I 0 W/m 9,1 C 12,3 C 6,4 km/h (2 Bft) 96,00 %
04.09.2019 00:10 12,3 C 22,2 C 11,1 C 82 % 1022,5 hPa 0,0 l/m 5,4 km/h (1 Bft) S-SW 201 0 min 0,000 mm 0,0 UV-I 0 W/m 9,3 C 12,3 C 8,0 km/h (2 Bft) 95,24 %
04.09.2019 00:12 12,3 C 22,2 C 11,1 C 82 % 1022,5 hPa 0,0 l/m 5,1 km/h (1 Bft) S-SW 202 0 min 0,000 mm 0,0 UV-I 0 W/m 9,3 C 12,3 C 6,4 km/h (2 Bft) 95,12 %
04.09.2019 00:14 12,2 C 22,2 C 11,1 C 82 % 1022,5 hPa 0,0 l/m 5,0 km/h (1 Bft) S-SW 202 0 min 0,000 mm 0,0 UV-I 0 W/m 9,2 C 12,2 C 6,4 km/h (2 Bft) 92,00 %
04.09.2019 00:16 12,2 C 22,2 C 10,6 C 82 % 1022,5 hPa 0,0 l/m 4,5 km/h (1 Bft) S-SW 202 0 min 0,000 mm 0,0 UV-I 0 W/m 9,2 C 12,2 C 6,4 km/h (2 Bft) 96,00 %
04.09.2019 00:18 12,2 C 22,2 C 10,6 C 83 % 1022,5 hPa 0,0 l/m 4,5 km/h (1 Bft) S-SW 202 0 min 0,000 mm 0,0 UV-I 0 W/m 9,4 C 12,2 C 6,4 km/h (2 Bft) 96,23 %
04.09.2019 00:20 12,1 C 22,2 C 10,6 C 83 % 1022,5 hPa 0,0 l/m 4,8 km/h (1 Bft) S-SW 202 0 min 0,000 mm 0,0 UV-I 0 W/m 9,3 C 12,1 C 6,4 km/h (2 Bft) 100,00 %
04.09.2019 00:22 12,1 C 22,2 C 10,6 C 83 % 1022,5 hPa 0,0 l/m 5,8 km/h (2 Bft) S-SW 202 0 min 0,000 mm 0,0 UV-I 0 W/m 9,3 C 12,1 C 8,0 km/h (2 Bft) 96,00 %
04.09.2019 00:24 12,0 C 22,2 C 10,6 C 83 % 1022,5 hPa 0,0 l/m 5,6 km/h (1 Bft) S-SW 199 0 min 0,000 mm 0,0 UV-I 0 W/m 9,2 C 12,0 C 8,0 km/h (2 Bft) 98,11 %
04.09.2019 00:26 12,0 C 22,2 C 10,6 C 83 % 1022,5 hPa 0,0 l/m 6,0 km/h (2 Bft) S-SW 197 0 min 0,000 mm 0,0 UV-I 0 W/m 9,2 C 12,0 C 8,0 km/h (2 Bft) 97,37 %
04.09.2019 00:28 12,1 C 22,2 C 10,6 C 83 % 1022,5 hPa 0,0 l/m 6,3 km/h (2 Bft) SW 223 0 min 0,000 mm 0,0 UV-I 0 W/m 9,3 C 12,1 C 9,7 km/h (2 Bft) 98,11 %
04.09.2019 00:30 12,1 C 22,2 C 10,6 C 83 % 1022,5 hPa 0,0 l/m 6,5 km/h (2 Bft) SW 228 0 min 0,000 mm 0,0 UV-I 0 W/m 9,3 C 12,1 C 8,0 km/h (2 Bft) 97,56 %
04.09.2019 00:32 12,0 C 22,2 C 10,6 C 83 % 1022,4 hPa 0,0 l/m 6,5 km/h (2 Bft) SW 216 0 min 0,000 mm 0,0 UV-I 0 W/m 9,2 C 12,0 C 8,0 km/h (2 Bft) 98,00 %
04.09.2019 00:34 11,9 C 21,7 C 10,6 C 83 % 1022,4 hPa 0,0 l/m 5,6 km/h (1 Bft) S-SW 211 0 min 0,000 mm 0,0 UV-I 0 W/m 9,1 C 11,9 C 8,0 km/h (2 Bft) 97,73 %
04.09.2019 00:36 11,9 C 21,7 C 10,6 C 83 % 1022,4 hPa 0,0 l/m 5,9 km/h (2 Bft) SW 219 0 min 0,000 mm 0,0 UV-I 0 W/m 9,1 C 11,9 C 8,0 km/h (2 Bft) 98,11 %
04.09.2019 00:38 11,9 C 21,7 C 10,0 C 83 % 1022,4 hPa 0,0 l/m 6,5 km/h (2 Bft) SW 215 0 min 0,000 mm 0,0 UV-I 0 W/m 9,1 C 11,9 C 8,0 km/h (2 Bft) 100,00 %
04.09.2019 00:40 11,8 C 21,7 C 10,0 C 83 % 1022,4 hPa 0,0 l/m 6,3 km/h (2 Bft) SW 219 0 min 0,000 mm 0,0 UV-I 0 W/m 9,0 C 11,8 C 8,0 km/h (2 Bft) 100,00 %
04.09.2019 00:42 11,8 C 21,7 C 10,0 C 83 % 1022,5 hPa 0,0 l/m 6,3 km/h (2 Bft) SW 219 0 min 0,000 mm 0,0 UV-I 0 W/m 9,0 C 11,8 C 8,0 km/h (2 Bft) 95,74 %
04.09.2019 00:44 11,8 C 21,7 C 10,0 C 83 % 1022,5 hPa 0,0 l/m 5,7 km/h (1 Bft) SW 216 0 min 0,000 mm 0,0 UV-I 0 W/m 9,0 C 11,8 C 8,0 km/h (2 Bft) 98,00 %
04.09.2019 00:46 11,8 C 21,7 C 10,0 C 83 % 1022,5 hPa 0,0 l/m 4,0 km/h (1 Bft) SW 218 0 min 0,000 mm 0,0 UV-I 0 W/m 9,0 C 11,8 C 6,4 km/h (2 Bft) 100,00 %
04.09.2019 00:48 11,8 C 21,7 C 10,0 C 83 % 1022,4 hPa 0,0 l/m 5,0 km/h (1 Bft) SW 215 0 min 0,000 mm 0,0 UV-I 0 W/m 9,0 C 11,8 C 6,4 km/h (2 Bft) 100,00 %
04.09.2019 00:50 11,8 C 21,7 C 10,0 C 83 % 1022,5 hPa 0,0 l/m 4,8 km/h (1 Bft) S-SW 211 0 min 0,000 mm 0,0 UV-I 0 W/m 9,0 C 11,8 C 8,0 km/h (2 Bft) 97,87 %
04.09.2019 00:52 11,7 C 21,7 C 10,0 C 83 % 1022,4 hPa 0,0 l/m 3,9 km/h (1 Bft) S-SW 210 0 min 0,000 mm 0,0 UV-I 0 W/m 8,9 C 11,7 C 4,8 km/h (1 Bft) 100,00 %
04.09.2019 00:54 11,8 C 21,7 C 10,0 C 83 % 1022,4 hPa 0,0 l/m 2,6 km/h (1 Bft) SW 217 0 min 0,000 mm 0,0 UV-I 0 W/m 9,0 C 11,8 C 4,8 km/h (1 Bft) 100,00 %
04.09.2019 00:56 11,8 C 21,7 C 10,0 C 83 % 1022,4 hPa 0,0 l/m 4,4 km/h (1 Bft) SW 219 0 min 0,000 mm 0,0 UV-I 0 W/m 9,0 C 11,8 C 6,4 km/h (2 Bft) 100,00 %
04.09.2019 00:58 11,8 C 21,7 C 9,4 C 83 % 1022,4 hPa 0,0 l/m 2,7 km/h (1 Bft) S-SW 204 0 min 0,000 mm 0,0 UV-I 0 W/m 9,0 C 11,8 C 4,8 km/h (1 Bft) 96,23 %
04.09.2019 01:00 11,8 C 21,7 C 9,4 C 84 % 1022,4 hPa 0,0 l/m 1,8 km/h (1 Bft) S-SW 204 0 min 0,025 mm 0,0 UV-I 0 W/m 9,2 C 11,8 C 3,2 km/h (1 Bft) 100,00 %
04.09.2019 01:02 11,6 C 21,7 C 9,4 C 84 % 1022,4 hPa 0,0 l/m 1,6 km/h (1 Bft) S-SW 204 0 min 0,000 mm 0,0 UV-I 0 W/m 9,0 C 11,6 C 3,2 km/h (1 Bft) 100,00 %
04.09.2019 01:04 11,5 C 21,7 C 9,4 C 85 % 1022,4 hPa 0,0 l/m 1,9 km/h (1 Bft) S-SW 204 0 min 0,000 mm 0,0 UV-I 0 W/m 9,1 C 11,5 C 4,8 km/h (1 Bft) 100,00 %
04.09.2019 01:06 11,4 C 21,7 C 9,4 C 85 % 1022,4 hPa 0,0 l/m 2,3 km/h (1 Bft) S-SW 203 0 min 0,000 mm 0,0 UV-I 0 W/m 9,0 C 11,4 C 3,2 km/h (1 Bft) 100,00 %
04.09.2019 01:08 11,4 C 21,7 C 8,9 C 86 % 1022,5 hPa 0,0 l/m 2,3 km/h (1 Bft) S-SW 203 0 min 0,000 mm 0,0 UV-I 0 W/m 9,1 C 11,4 C 3,2 km/h (1 Bft) 100,00 %
04.09.2019 01:10 11,4 C 21,7 C 8,9 C 86 % 1022,4 hPa 0,0 l/m 2,5 km/h (1 Bft) S-SW 203 0 min 0,000 mm 0,0 UV-I 0 W/m 9,1 C 11,4 C 3,2 km/h (1 Bft) 97,73 %
04.09.2019 01:12 11,3 C 21,7 C 8,9 C 85 % 1022,4 hPa 0,0 l/m 2,1 km/h (1 Bft) S-SW 203 0 min 0,000 mm 0,0 UV-I 0 W/m 8,9 C 11,3 C 3,2 km/h (1 Bft) 98,00 %
04.09.2019 01:14 11,3 C 21,7 C 8,9 C 85 % 1022,5 hPa 0,0 l/m 1,4 km/h (1 Bft) S-SW 203 0 min 0,000 mm 0,0 UV-I 0 W/m 8,9 C 11,3 C 1,6 km/h (1 Bft) 100,00 %
04.09.2019 01:16 11,3 C 21,7 C 8,9 C 86 % 1022,5 hPa 0,0 l/m 1,7 km/h (1 Bft) S-SW 203 0 min 0,000 mm 0,0 UV-I 0 W/m 9,0 C 11,3 C 3,2 km/h (1 Bft) 97,37 %
04.09.2019 01:18 11,2 C 21,7 C 8,9 C 87 % 1022,5 hPa 0,0 l/m 2,4 km/h (1 Bft) S-SW 203 0 min 0,000 mm 0,0 UV-I 0 W/m 9,1 C 11,2 C 3,2 km/h (1 Bft) 98,11 %
04.09.2019 01:20 11,0 C 21,7 C 8,9 C 87 % 1022,5 hPa 0,0 l/m 3,0 km/h (1 Bft) S-SW 203 0 min 0,000 mm 0,0 UV-I 0 W/m 8,9 C 11,0 C 3,2 km/h (1 Bft) 98,00 %
04.09.2019 01:22 10,9 C 21,7 C 8,3 C 88 % 1022,5 hPa 0,0 l/m 3,3 km/h (1 Bft) S-SW 203 0 min 0,000 mm 0,0 UV-I 0 W/m 9,0 C 10,9 C 4,8 km/h (1 Bft) 94,29 %
04.09.2019 01:24 10,9 C 21,7 C 8,9 C 88 % 1022,5 hPa 0,0 l/m 2,3 km/h (1 Bft) S-SW 203 0 min 0,000 mm 0,0 UV-I 0 W/m 9,0 C 10,9 C 3,2 km/h (1 Bft) 94,34 %
04.09.2019 01:26 10,9 C 21,7 C 8,9 C 88 % 1022,5 hPa 0,0 l/m 2,4 km/h (1 Bft) S-SW 203 0 min 0,000 mm 0,0 UV-I 0 W/m 9,0 C 10,9 C 3,2 km/h (1 Bft) 92,59 %
04.09.2019 01:28 10,9 C 21,7 C 8,9 C 88 % 1022,5 hPa 0,0 l/m 3,1 km/h (1 Bft) S-SW 203 0 min 0,000 mm 0,0 UV-I 0 W/m 9,0 C 10,9 C 4,8 km/h (1 Bft) 96,92 %
04.09.2019 01:30 10,8 C 21,7 C 8,9 C 88 % 1022,5 hPa 0,0 l/m 3,4 km/h (1 Bft) S-SW 203 0 min 0,000 mm 0,0 UV-I 0 W/m 8,9 C 10,8 C 4,8 km/h (1 Bft) 94,34 %
04.09.2019 01:32 10,8 C 21,7 C 9,4 C 89 % 1022,5 hPa 0,0 l/m 3,0 km/h (1 Bft) S-SW 203 0 min 0,000 mm 0,0 UV-I 0 W/m 9,1 C 10,8 C 4,8 km/h (1 Bft) 93,75 %
04.09.2019 01:34 10,6 C 21,7 C 9,4 C 89 % 1022,5 hPa 0,0 l/m 3,0 km/h (1 Bft) S-SW 203 0 min 0,000 mm 0,0 UV-I 0 W/m 8,9 C 10,6 C 4,8 km/h (1 Bft) 97,37 %
04.09.2019 01:36 10,5 C 21,7 C 9,4 C 89 % 1022,4 hPa 0,0 l/m 3,5 km/h (1 Bft) S-SW 203 0 min 0,000 mm 0,0 UV-I 0 W/m 8,8 C 10,5 C 4,8 km/h (1 Bft) 93,62 %
04.09.2019 01:38 10,3 C 21,7 C 8,9 C 90 % 1022,5 hPa 0,0 l/m 3,5 km/h (1 Bft) S-SW 203 0 min 0,000 mm 0,0 UV-I 0 W/m 8,7 C 10,3 C 4,8 km/h (1 Bft) 96,23 %
04.09.2019 01:40 10,3 C 21,7 C 8,9 C 90 % 1022,4 hPa 0,0 l/m 3,5 km/h (1 Bft) S-SW 203 0 min 0,000 mm 0,0 UV-I 0 W/m 8,7 C 10,3 C 4,8 km/h (1 Bft) 97,56 %
04.09.2019 01:42 10,2 C 21,7 C 8,9 C 90 % 1022,5 hPa 0,0 l/m 3,8 km/h (1 Bft) S-SW 202 0 min 0,000 mm 0,0 UV-I 0 W/m 8,6 C 10,2 C 4,8 km/h (1 Bft) 98,00 %
04.09.2019 01:44 10,2 C 21,7 C 8,9 C 91 % 1022,5 hPa 0,0 l/m 3,4 km/h (1 Bft) S-SW 202 0 min 0,000 mm 0,0 UV-I 0 W/m 8,8 C 10,2 C 4,8 km/h (1 Bft) 95,12 %
04.09.2019 01:46 10,2 C 21,7 C 8,3 C 91 % 1022,5 hPa 0,0 l/m 3,3 km/h (1 Bft) S-SW 202 0 min 0,000 mm 0,0 UV-I 0 W/m 8,8 C 10,2 C 4,8 km/h (1 Bft) 94,00 %
04.09.2019 01:48 10,2 C 21,7 C 8,3 C 91 % 1022,5 hPa 0,0 l/m 3,4 km/h (1 Bft) S-SW 202 0 min 0,000 mm 0,0 UV-I 0 W/m 8,8 C 10,2 C 4,8 km/h (1 Bft) 97,87 %
04.09.2019 01:50 10,2 C 21,7 C 8,9 C 90 % 1022,5 hPa 0,0 l/m 2,2 km/h (1 Bft) S-SW 202 0 min 0,000 mm 0,0 UV-I 0 W/m 8,6 C 10,2 C 3,2 km/h (1 Bft) 96,00 %
04.09.2019 01:52 10,2 C 21,7 C 8,9 C 90 % 1022,5 hPa 0,0 l/m 2,3 km/h (1 Bft) S-SW 202 0 min 0,000 mm 0,0 UV-I 0 W/m 8,6 C 10,2 C 4,8 km/h (1 Bft) 97,87 %
04.09.2019 01:54 10,2 C 21,7 C 9,4 C 90 % 1022,5 hPa 0,0 l/m 2,9 km/h (1 Bft) S-SW 202 0 min 0,000 mm 0,0 UV-I 0 W/m 8,6 C 10,2 C 3,2 km/h (1 Bft) 97,87 %
04.09.2019 01:56 10,1 C 21,7 C 9,4 C 90 % 1022,5 hPa 0,0 l/m 3,3 km/h (1 Bft) S-SW 202 0 min 0,000 mm 0,0 UV-I 0 W/m 8,5 C 10,1 C 4,8 km/h (1 Bft) 97,37 %
04.09.2019 01:58 10,0 C 21,7 C 9,4 C 90 % 1022,5 hPa 0,0 l/m 4,3 km/h (1 Bft) S-SW 202 0 min 0,000 mm 0,0 UV-I 0 W/m 8,4 C 10,0 C 6,4 km/h (2 Bft) 100,00 %
04.09.2019 02:00 10,0 C 21,7 C 9,4 C 90 % 1022,5 hPa 0,0 l/m 3,7 km/h (1 Bft) S-SW 202 0 min 0,000 mm 0,0 UV-I 0 W/m 8,4 C 10,0 C 4,8 km/h (1 Bft) 100,00 %
04.09.2019 02:02 10,1 C 21,7 C 9,4 C 90 % 1022,5 hPa 0,0 l/m 3,4 km/h (1 Bft) S-SW 202 0 min 0,000 mm 0,0 UV-I 0 W/m 8,5 C 10,1 C 4,8 km/h (1 Bft) 97,87 %
04.09.2019 02:04 10,0 C 21,7 C 9,4 C 90 % 1022,5 hPa 0,0 l/m 4,0 km/h (1 Bft) S-SW 202 0 min 0,000 mm 0,0 UV-I 0 W/m 8,4 C 10,0 C 4,8 km/h (1 Bft) 100,00 %
04.09.2019 02:06 9,9 C 21,7 C 9,4 C 90 % 1022,4 hPa 0,0 l/m 3,9 km/h (1 Bft) S-SW 202 0 min 0,000 mm 0,0 UV-I 0 W/m 8,3 C 9,9 C 4,8 km/h (1 Bft) 100,00 %
04.09.2019 02:08 9,9 C 21,7 C 9,4 C 90 % 1022,5 hPa 0,0 l/m 3,7 km/h (1 Bft) S-SW 202 0 min 0,000 mm 0,0 UV-I 0 W/m 8,3 C 9,9 C 4,8 km/h (1 Bft) 98,00 %
04.09.2019 02:10 9,9 C 21,7 C 9,4 C 90 % 1022,5 hPa 0,0 l/m 3,1 km/h (1 Bft) S-SW 202 0 min 0,000 mm 0,0 UV-I 0 W/m 8,3 C 9,9 C 3,2 km/h (1 Bft) 100,00 %
04.09.2019 02:12 9,8 C 21,7 C 9,4 C 90 % 1022,5 hPa 0,0 l/m 2,8 km/h (1 Bft) S-SW 202 0 min 0,000 mm 0,0 UV-I 0 W/m 8,2 C 9,8 C 3,2 km/h (1 Bft) 100,00 %
04.09.2019 02:14 9,8 C 21,7 C 8,9 C 90 % 1022,5 hPa 0,0 l/m 3,3 km/h (1 Bft) S-SW 202 0 min 0,000 mm 0,0 UV-I 0 W/m 8,2 C 9,8 C 4,8 km/h (1 Bft) 97,87 %
04.09.2019 02:16 9,7 C 21,7 C 8,9 C 91 % 1022,5 hPa 0,0 l/m 3,8 km/h (1 Bft) S-SW 202 0 min 0,000 mm 0,0 UV-I 0 W/m 8,3 C 9,7 C 4,8 km/h (1 Bft) 100,00 %
04.09.2019 02:18 9,8 C 21,7 C 8,9 C 91 % 1022,5 hPa 0,0 l/m 3,7 km/h (1 Bft) S-SW 202 0 min 0,000 mm 0,0 UV-I 0 W/m 8,4 C 9,8 C 4,8 km/h (1 Bft) 100,00 %
04.09.2019 02:20 9,8 C 21,7 C 8,9 C 91 % 1022,5 hPa 0,0 l/m 4,5 km/h (1 Bft) S-SW 202 0 min 0,000 mm 0,0 UV-I 0 W/m 8,4 C 9,8 C 4,8 km/h (1 Bft) 97,37 %
04.09.2019 02:22 9,7 C 21,7 C 8,9 C 91 % 1022,5 hPa 0,0 l/m 3,0 km/h (1 Bft) S-SW 202 0 min 0,000 mm 0,0 UV-I 0 W/m 8,3 C 9,7 C 3,2 km/h (1 Bft) 100,00 %
04.09.2019 02:24 9,7 C 21,7 C 8,9 C 91 % 1022,4 hPa 0,0 l/m 3,0 km/h (1 Bft) S-SW 202 0 min 0,000 mm 0,0 UV-I 0 W/m 8,3 C 9,7 C 3,2 km/h (1 Bft) 97,87 %
04.09.2019 02:26 9,7 C 21,7 C 8,9 C 91 % 1022,4 hPa 0,0 l/m 3,0 km/h (1 Bft) S-SW 202 0 min 0,000 mm 0,0 UV-I 0 W/m 8,3 C 9,7 C 4,8 km/h (1 Bft) 98,00 %
04.09.2019 02:28 9,7 C 21,7 C 8,9 C 91 % 1022,4 hPa 0,0 l/m 3,1 km/h (1 Bft) S-SW 202 0 min 0,000 mm 0,0 UV-I 0 W/m 8,3 C 9,7 C 4,8 km/h (1 Bft) 100,00 %
04.09.2019 02:30 9,6 C 21,7 C 8,3 C 91 % 1022,4 hPa 0,0 l/m 2,1 km/h (1 Bft) S-SW 202 0 min 0,000 mm 0,0 UV-I 0 W/m 8,2 C 9,6 C 3,2 km/h (1 Bft) 97,87 %
04.09.2019 02:32 9,6 C 21,7 C 8,3 C 91 % 1022,4 hPa 0,0 l/m 2,1 km/h (1 Bft) S-SW 202 0 min 0,000 mm 0,0 UV-I 0 W/m 8,2 C 9,6 C 3,2 km/h (1 Bft) 97,87 %
04.09.2019 02:34 9,6 C 21,7 C 8,3 C 91 % 1022,3 hPa 0,0 l/m 3,0 km/h (1 Bft) S-SW 202 0 min 0,000 mm 0,0 UV-I 0 W/m 8,2 C 9,6 C 3,2 km/h (1 Bft) 100,00 %
04.09.2019 02:36 9,7 C 21,7 C 8,9 C 92 % 1022,3 hPa 0,0 l/m 3,4 km/h (1 Bft) S-SW 202 0 min 0,000 mm 0,0 UV-I 0 W/m 8,5 C 9,7 C 4,8 km/h (1 Bft) 97,37 %
04.09.2019 02:38 9,7 C 21,7 C 8,9 C 92 % 1022,3 hPa 0,0 l/m 2,9 km/h (1 Bft) S-SW 202 0 min 0,000 mm 0,0 UV-I 0 W/m 8,5 C 9,7 C 4,8 km/h (1 Bft) 96,00 %
04.09.2019 02:40 9,7 C 21,7 C 8,9 C 91 % 1022,2 hPa 0,0 l/m 2,5 km/h (1 Bft) S-SW 202 0 min 0,000 mm 0,0 UV-I 0 W/m 8,3 C 9,7 C 4,8 km/h (1 Bft) 96,23 %
04.09.2019 02:42 9,8 C 21,7 C 8,9 C 91 % 1022,3 hPa 0,0 l/m 4,1 km/h (1 Bft) S-SW 202 0 min 0,000 mm 0,0 UV-I 0 W/m 8,4 C 9,8 C 4,8 km/h (1 Bft) 94,87 %
04.09.2019 02:44 9,8 C 21,7 C 8,9 C 91 % 1022,3 hPa 0,0 l/m 3,9 km/h (1 Bft) S-SW 202 0 min 0,000 mm 0,0 UV-I 0 W/m 8,4 C 9,8 C 4,8 km/h (1 Bft) 96,00 %
04.09.2019 02:46 9,8 C 21,7 C 8,9 C 90 % 1022,3 hPa 0,0 l/m 3,5 km/h (1 Bft) S-SW 202 0 min 0,000 mm 0,0 UV-I 0 W/m 8,2 C 9,8 C 4,8 km/h (1 Bft) 94,29 %
04.09.2019 02:48 9,7 C 21,7 C 8,9 C 91 % 1022,3 hPa 0,0 l/m 2,4 km/h (1 Bft) S-SW 202 0 min 0,000 mm 0,0 UV-I 0 W/m 8,3 C 9,7 C 4,8 km/h (1 Bft) 96,23 %
04.09.2019 02:50 9,8 C 21,7 C 8,9 C 91 % 1022,2 hPa 0,0 l/m 1,3 km/h (1 Bft) S-SW 202 0 min 0,000 mm 0,0 UV-I 0 W/m 8,4 C 9,8 C 1,6 km/h (1 Bft) 94,34 %
04.09.2019 02:52 9,8 C 21,7 C 8,9 C 91 % 1022,2 hPa 0,0 l/m 0,3 km/h (0 Bft) S-SW 202 0 min 0,000 mm 0,0 UV-I 0 W/m 8,4 C 9,8 C 1,6 km/h (1 Bft) 95,74 %
04.09.2019 02:54 9,9 C 21,7 C 8,3 C 91 % 1022,2 hPa 0,0 l/m 0,1 km/h (0 Bft) S-SW 202 0 min 0,000 mm 0,0 UV-I 0 W/m 8,5 C 9,9 C 1,6 km/h (1 Bft) 94,00 %
04.09.2019 02:56 9,8 C 21,7 C 8,3 C 90 % 1022,2 hPa 0,0 l/m 0,8 km/h (0 Bft) S-SW 202 0 min 0,000 mm 0,0 UV-I 0 W/m 8,2 C 9,8 C 3,2 km/h (1 Bft) 95,12 %
04.09.2019 02:58 9,8 C 21,7 C 8,3 C 91 % 1022,2 hPa 0,0 l/m 1,8 km/h (1 Bft) S-SW 202 0 min 0,000 mm 0,0 UV-I 0 W/m 8,4 C 9,8 C 3,2 km/h (1 Bft) 94,00 %
04.09.2019 03:00 9,7 C 21,7 C 8,3 C 90 % 1022,2 hPa 0,0 l/m 1,5 km/h (1 Bft) S-SW 202 0 min 0,000 mm 0,0 UV-I 0 W/m 8,1 C 9,7 C 1,6 km/h (1 Bft) 98,00 %
04.09.2019 03:02 9,7 C 21,7 C 7,8 C 91 % 1022,2 hPa 0,0 l/m 1,2 km/h (1 Bft) S-SW 202 0 min 0,000 mm 0,0 UV-I 0 W/m 8,3 C 9,7 C 1,6 km/h (1 Bft) 95,74 %
04.09.2019 03:04 9,5 C 21,7 C 7,8 C 91 % 1022,2 hPa 0,0 l/m 0,1 km/h (0 Bft) S-SW 202 0 min 0,000 mm 0,0 UV-I 0 W/m 8,1 C 9,5 C 1,6 km/h (1 Bft) 97,37 %
04.09.2019 03:06 9,5 C 21,7 C 7,8 C 91 % 1022,1 hPa 0,0 l/m 1,3 km/h (1 Bft) S-SW 202 0 min 0,000 mm 0,0 UV-I 0 W/m 8,1 C 9,5 C 3,2 km/h (1 Bft) 97,87 %
04.09.2019 03:08 9,5 C 21,7 C 8,3 C 91 % 1022,1 hPa 0,0 l/m 1,2 km/h (1 Bft) S-SW 202 0 min 0,000 mm 0,0 UV-I 0 W/m 8,1 C 9,5 C 3,2 km/h (1 Bft) 94,64 %
04.09.2019 03:10 9,5 C 21,7 C 7,8 C 91 % 1022,1 hPa 0,0 l/m 1,7 km/h (1 Bft) S-SW 202 0 min 0,000 mm 0,0 UV-I 0 W/m 8,1 C 9,5 C 3,2 km/h (1 Bft) 97,87 %
04.09.2019 03:12 9,4 C 21,7 C 7,8 C 91 % 1022,1 hPa 0,0 l/m 1,1 km/h (1 Bft) S-SW 202 0 min 0,000 mm 0,0 UV-I 0 W/m 8,0 C 9,4 C 1,6 km/h (1 Bft) 94,74 %
04.09.2019 03:14 9,3 C 21,7 C 7,8 C 91 % 1022,1 hPa 0,0 l/m 0,6 km/h (0 Bft) S-SW 202 0 min 0,000 mm 0,0 UV-I 0 W/m 7,9 C 9,3 C 1,6 km/h (1 Bft) 94,00 %
04.09.2019 03:16 9,3 C 21,7 C 7,8 C 92 % 1022,1 hPa 0,0 l/m 0,5 km/h (0 Bft) S-SW 202 0 min 0,000 mm 0,0 UV-I 0 W/m 8,1 C 9,3 C 1,6 km/h (1 Bft) 96,00 %
04.09.2019 03:18 9,3 C 21,7 C 7,8 C 92 % 1022,2 hPa 0,0 l/m 1,1 km/h (1 Bft) S-SW 202 0 min 0,000 mm 0,0 UV-I 0 W/m 8,1 C 9,3 C 1,6 km/h (1 Bft) 97,22 %
04.09.2019 03:20 9,3 C 21,7 C 7,8 C 92 % 1022,1 hPa 0,0 l/m 1,6 km/h (1 Bft) S-SW 202 0 min 0,000 mm 0,0 UV-I 0 W/m 8,1 C 9,3 C 1,6 km/h (1 Bft) 94,55 %
04.09.2019 03:22 9,3 C 21,7 C 7,8 C 92 % 1022,1 hPa 0,0 l/m 2,1 km/h (1 Bft) S-SW 202 0 min 0,000 mm 0,0 UV-I 0 W/m 8,1 C 9,3 C 3,2 km/h (1 Bft) 95,56 %
04.09.2019 03:24 9,3 C 21,7 C 7,8 C 92 % 1022,1 hPa 0,0 l/m 1,4 km/h (1 Bft) S-SW 202 0 min 0,000 mm 0,0 UV-I 0 W/m 8,1 C 9,3 C 3,2 km/h (1 Bft) 94,00 %
04.09.2019 03:26 9,2 C 21,7 C 7,8 C 92 % 1022,1 hPa 0,0 l/m 1,6 km/h (1 Bft) S-SW 202 0 min 0,000 mm 0,0 UV-I 0 W/m 8,0 C 9,2 C 3,2 km/h (1 Bft) 100,00 %
04.09.2019 03:28 9,2 C 21,7 C 7,8 C 92 % 1022,1 hPa 0,0 l/m 0,8 km/h (0 Bft) S-SW 202 0 min 0,000 mm 0,0 UV-I 0 W/m 8,0 C 9,2 C 1,6 km/h (1 Bft) 100,00 %
04.09.2019 03:30 9,3 C 21,7 C 7,8 C 92 % 1022,1 hPa 0,0 l/m 1,5 km/h (1 Bft) S-SW 202 0 min 0,000 mm 0,0 UV-I 0 W/m 8,1 C 9,3 C 3,2 km/h (1 Bft) 96,23 %
04.09.2019 03:32 9,2 C 21,7 C 7,8 C 92 % 1022,1 hPa 0,0 l/m 2,4 km/h (1 Bft) S-SW 202 0 min 0,000 mm 0,0 UV-I 0 W/m 8,0 C 9,2 C 3,2 km/h (1 Bft) 100,00 %
04.09.2019 03:34 9,2 C 21,7 C 7,8 C 92 % 1022,1 hPa 0,0 l/m 2,1 km/h (1 Bft) S-SW 202 0 min 0,000 mm 0,0 UV-I 0 W/m 8,0 C 9,2 C 3,2 km/h (1 Bft) 96,00 %
04.09.2019 03:36 9,2 C 21,7 C 7,8 C 92 % 1022,1 hPa 0,0 l/m 2,8 km/h (1 Bft) S-SW 202 0 min 0,000 mm 0,0 UV-I 0 W/m 8,0 C 9,2 C 4,8 km/h (1 Bft) 95,74 %
04.09.2019 03:38 9,2 C 21,7 C 7,8 C 93 % 1022,0 hPa 0,0 l/m 2,5 km/h (1 Bft) S-SW 202 0 min 0,000 mm 0,0 UV-I 0 W/m 8,1 C 9,2 C 3,2 km/h (1 Bft) 97,37 %
04.09.2019 03:40 9,1 C 21,7 C 7,8 C 92 % 1022,0 hPa 0,0 l/m 1,5 km/h (1 Bft) S-SW 202 0 min 0,000 mm 0,0 UV-I 0 W/m 7,9 C 9,1 C 3,2 km/h (1 Bft) 97,87 %
04.09.2019 03:42 9,1 C 21,7 C 7,8 C 92 % 1022,0 hPa 0,0 l/m 1,2 km/h (1 Bft) S-SW 202 0 min 0,000 mm 0,0 UV-I 0 W/m 7,9 C 9,1 C 1,6 km/h (1 Bft) 96,00 %
04.09.2019 03:44 9,2 C 21,7 C 7,8 C 93 % 1022,0 hPa 0,0 l/m 0,7 km/h (0 Bft) S-SW 202 0 min 0,000 mm 0,0 UV-I 0 W/m 8,1 C 9,2 C 1,6 km/h (1 Bft) 97,56 %
04.09.2019 03:46 9,2 C 21,7 C 7,8 C 93 % 1022,0 hPa 0,0 l/m 0,4 km/h (0 Bft) S-SW 202 0 min 0,000 mm 0,0 UV-I 0 W/m 8,1 C 9,2 C 1,6 km/h (1 Bft) 100,00 %
04.09.2019 03:48 9,2 C 21,7 C 7,8 C 93 % 1022,0 hPa 0,0 l/m 0,3 km/h (0 Bft) S-SW 202 0 min 0,000 mm 0,0 UV-I 0 W/m 8,1 C 9,2 C 1,6 km/h (1 Bft) 94,23 %
04.09.2019 03:50 9,2 C 21,7 C 7,8 C 92 % 1021,9 hPa 0,0 l/m 0,6 km/h (0 Bft) S-SW 202 0 min 0,000 mm 0,0 UV-I 0 W/m 8,0 C 9,2 C 1,6 km/h (1 Bft) 94,00 %
04.09.2019 03:52 9,2 C 21,7 C 7,8 C 92 % 1022,0 hPa 0,0 l/m 0,4 km/h (0 Bft) S-SW 202 0 min 0,000 mm 0,0 UV-I 0 W/m 8,0 C 9,2 C 1,6 km/h (1 Bft) 97,37 %
04.09.2019 03:54 9,2 C 21,7 C 7,2 C 93 % 1021,9 hPa 0,0 l/m 0,4 km/h (0 Bft) S-SW 202 0 min 0,000 mm 0,0 UV-I 0 W/m 8,1 C 9,2 C 1,6 km/h (1 Bft) 96,00 %
04.09.2019 03:56 9,2 C 21,7 C 7,2 C 92 % 1022,0 hPa 0,0 l/m 1,0 km/h (0 Bft) S-SW 202 0 min 0,000 mm 0,0 UV-I 0 W/m 8,0 C 9,2 C 1,6 km/h (1 Bft) 96,00 %
04.09.2019 03:58 9,2 C 21,7 C 7,2 C 92 % 1021,9 hPa 0,0 l/m 1,6 km/h (1 Bft) S-SW 202 0 min 0,000 mm 0,0 UV-I 0 W/m 8,0 C 9,2 C 3,2 km/h (1 Bft) 96,00 %
04.09.2019 04:00 9,2 C 21,7 C 7,2 C 92 % 1021,9 hPa 0,0 l/m 1,0 km/h (0 Bft) S-SW 202 0 min 0,000 mm 0,0 UV-I 0 W/m 8,0 C 9,2 C 1,6 km/h (1 Bft) 94,87 %
04.09.2019 04:02 9,3 C 21,7 C 7,2 C 92 % 1021,9 hPa 0,0 l/m 0,8 km/h (0 Bft) S-SW 202 0 min 0,000 mm 0,0 UV-I 0 W/m 8,1 C 9,3 C 1,6 km/h (1 Bft) 100,00 %
04.09.2019 04:04 9,3 C 21,7 C 7,2 C 92 % 1021,8 hPa 0,0 l/m 1,2 km/h (1 Bft) S-SW 202 0 min 0,000 mm 0,0 UV-I 0 W/m 8,1 C 9,3 C 1,6 km/h (1 Bft) 94,00 %
04.09.2019 04:06 9,3 C 21,7 C 7,2 C 92 % 1021,8 hPa 0,0 l/m 1,2 km/h (1 Bft) S-SW 202 0 min 0,000 mm 0,0 UV-I 0 W/m 8,1 C 9,3 C 1,6 km/h (1 Bft) 95,12 %
04.09.2019 04:08 9,4 C 21,7 C 7,2 C 92 % 1021,8 hPa 0,0 l/m 0,2 km/h (0 Bft) S-SW 202 0 min 0,000 mm 0,0 UV-I 0 W/m 8,2 C 9,4 C 1,6 km/h (1 Bft) 92,00 %
04.09.2019 04:10 9,3 C 21,7 C 7,2 C 92 % 1021,8 hPa 0,0 l/m 0,0 km/h (0 Bft) S-SW 202 0 min 0,000 mm 0,0 UV-I 0 W/m 8,1 C 9,3 C 0,0 km/h (0 Bft) 93,62 %
04.09.2019 04:12 9,2 C 21,7 C 7,2 C 91 % 1021,8 hPa 0,0 l/m 0,0 km/h (0 Bft) S-SW 202 0 min 0,000 mm 0,0 UV-I 0 W/m 7,8 C 9,2 C 1,6 km/h (1 Bft) 98,11 %
04.09.2019 04:14 9,1 C 21,7 C 7,2 C 92 % 1021,8 hPa 0,0 l/m 1,4 km/h (1 Bft) S-SW 202 0 min 0,000 mm 0,0 UV-I 0 W/m 7,9 C 9,1 C 1,6 km/h (1 Bft) 98,00 %
04.09.2019 04:16 9,1 C 21,7 C 7,2 C 92 % 1021,8 hPa 0,0 l/m 1,2 km/h (1 Bft) S-SW 202 0 min 0,000 mm 0,0 UV-I 0 W/m 7,9 C 9,1 C 1,6 km/h (1 Bft) 97,37 %
04.09.2019 04:18 9,1 C 21,7 C 7,2 C 93 % 1021,7 hPa 0,0 l/m 0,3 km/h (0 Bft) S-SW 202 0 min 0,000 mm 0,0 UV-I 0 W/m 8,0 C 9,1 C 1,6 km/h (1 Bft) 98,00 %
04.09.2019 04:20 9,1 C 21,7 C 7,2 C 93 % 1021,7 hPa 0,0 l/m 0,0 km/h (0 Bft) S-SW 202 0 min 0,000 mm 0,0 UV-I 0 W/m 8,0 C 9,1 C 0,0 km/h (0 Bft) 98,11 %
04.09.2019 04:22 9,1 C 21,7 C 7,2 C 93 % 1021,7 hPa 0,0 l/m 0,3 km/h (0 Bft) S-SW 202 0 min 0,000 mm 0,0 UV-I 0 W/m 8,0 C 9,1 C 1,6 km/h (1 Bft) 100,00 %
04.09.2019 04:24 9,1 C 21,7 C 7,2 C 93 % 1021,7 hPa 0,0 l/m 0,6 km/h (0 Bft) S-SW 202 0 min 0,000 mm 0,0 UV-I 0 W/m 8,0 C 9,1 C 1,6 km/h (1 Bft) 100,00 %
04.09.2019 04:26 9,0 C 21,7 C 7,2 C 93 % 1021,6 hPa 0,0 l/m 0,8 km/h (0 Bft) S-SW 202 0 min 0,000 mm 0,0 UV-I 0 W/m 7,9 C 9,0 C 1,6 km/h (1 Bft) 94,00 %
04.09.2019 04:28 8,9 C 21,7 C 7,2 C 93 % 1021,6 hPa 0,0 l/m 1,1 km/h (1 Bft) S-SW 202 0 min 0,000 mm 0,0 UV-I 0 W/m 7,8 C 8,9 C 1,6 km/h (1 Bft) 100,00 %
04.09.2019 04:30 8,9 C 21,7 C 7,2 C 93 % 1021,6 hPa 0,0 l/m 1,1 km/h (1 Bft) S-SW 202 0 min 0,000 mm 0,0 UV-I 0 W/m 7,8 C 8,9 C 1,6 km/h (1 Bft) 97,87 %
04.09.2019 04:32 8,9 C 21,7 C 7,2 C 93 % 1021,6 hPa 0,0 l/m 1,1 km/h (1 Bft) S-SW 202 0 min 0,000 mm 0,0 UV-I 0 W/m 7,8 C 8,9 C 1,6 km/h (1 Bft) 97,87 %
04.09.2019 04:34 8,9 C 21,7 C 7,2 C 93 % 1021,6 hPa 0,0 l/m 1,1 km/h (1 Bft) S-SW 202 0 min 0,000 mm 0,0 UV-I 0 W/m 7,8 C 8,9 C 1,6 km/h (1 Bft) 100,00 %
04.09.2019 04:36 9,0 C 21,7 C 7,2 C 93 % 1021,6 hPa 0,0 l/m 1,6 km/h (1 Bft) S-SW 202 0 min 0,000 mm 0,0 UV-I 0 W/m 7,9 C 9,0 C 1,6 km/h (1 Bft) 100,00 %
04.09.2019 04:38 9,1 C 21,7 C 7,2 C 93 % 1021,6 hPa 0,0 l/m 1,8 km/h (1 Bft) S-SW 202 0 min 0,000 mm 0,0 UV-I 0 W/m 8,0 C 9,1 C 3,2 km/h (1 Bft) 100,00 %
04.09.2019 04:40 9,0 C 21,7 C 7,2 C 93 % 1021,5 hPa 0,0 l/m 1,6 km/h (1 Bft) S-SW 202 0 min 0,000 mm 0,0 UV-I 0 W/m 7,9 C 9,0 C 3,2 km/h (1 Bft) 96,23 %
04.09.2019 04:42 8,9 C 21,7 C 7,2 C 93 % 1021,5 hPa 0,0 l/m 1,6 km/h (1 Bft) S-SW 202 0 min 0,000 mm 0,0 UV-I 0 W/m 7,8 C 8,9 C 3,2 km/h (1 Bft) 100,00 %
04.09.2019 04:44 8,9 C 21,7 C 7,8 C 93 % 1021,5 hPa 0,0 l/m 2,2 km/h (1 Bft) S-SW 202 0 min 0,000 mm 0,0 UV-I 0 W/m 7,8 C 8,9 C 3,2 km/h (1 Bft) 100,00 %
04.09.2019 04:46 8,9 C 21,7 C 7,8 C 93 % 1021,4 hPa 0,0 l/m 2,1 km/h (1 Bft) S-SW 202 0 min 0,000 mm 0,0 UV-I 0 W/m 7,8 C 8,9 C 3,2 km/h (1 Bft) 100,00 %
04.09.2019 04:48 8,9 C 21,7 C 8,3 C 93 % 1021,4 hPa 0,0 l/m 2,9 km/h (1 Bft) S-SW 202 0 min 0,000 mm 0,0 UV-I 0 W/m 7,8 C 8,9 C 3,2 km/h (1 Bft) 100,00 %
04.09.2019 04:50 8,9 C 21,7 C 8,3 C 93 % 1021,4 hPa 0,0 l/m 2,9 km/h (1 Bft) S-SW 202 0 min 0,000 mm 0,0 UV-I 0 W/m 7,8 C 8,9 C 3,2 km/h (1 Bft) 100,00 %
04.09.2019 04:52 8,8 C 21,7 C 8,3 C 93 % 1021,3 hPa 0,0 l/m 1,5 km/h (1 Bft) S-SW 202 0 min 0,000 mm 0,0 UV-I 0 W/m 7,7 C 8,8 C 3,2 km/h (1 Bft) 97,87 %
04.09.2019 04:54 8,8 C 21,7 C 8,3 C 93 % 1021,3 hPa 0,0 l/m 0,2 km/h (0 Bft) S-SW 202 0 min 0,000 mm 0,0 UV-I 0 W/m 7,7 C 8,8 C 1,6 km/h (1 Bft) 98,00 %
04.09.2019 04:56 8,8 C 21,7 C 7,8 C 93 % 1021,3 hPa 0,0 l/m 1,2 km/h (1 Bft) S-SW 202 0 min 0,000 mm 0,0 UV-I 0 W/m 7,7 C 8,8 C 3,2 km/h (1 Bft) 97,87 %
04.09.2019 04:58 8,8 C 21,7 C 7,8 C 93 % 1021,3 hPa 0,0 l/m 1,9 km/h (1 Bft) S-SW 202 0 min 0,000 mm 0,0 UV-I 0 W/m 7,7 C 8,8 C 3,2 km/h (1 Bft) 98,00 %
04.09.2019 05:00 8,8 C 21,7 C 7,8 C 93 % 1021,3 hPa 0,0 l/m 2,0 km/h (1 Bft) S-SW 202 0 min 0,000 mm 0,0 UV-I 0 W/m 7,7 C 8,8 C 3,2 km/h (1 Bft) 100,00 %
04.09.2019 05:02 8,9 C 21,7 C 7,2 C 93 % 1021,3 hPa 0,0 l/m 1,2 km/h (1 Bft) S-SW 202 0 min 0,000 mm 0,0 UV-I 0 W/m 7,8 C 8,9 C 3,2 km/h (1 Bft) 100,00 %
04.09.2019 05:04 8,9 C 21,7 C 7,2 C 93 % 1021,3 hPa 0,0 l/m 2,3 km/h (1 Bft) S-SW 202 0 min 0,000 mm 0,0 UV-I 0 W/m 7,8 C 8,9 C 3,2 km/h (1 Bft) 98,21 %
04.09.2019 05:06 8,9 C 21,7 C 7,2 C 93 % 1021,3 hPa 0,0 l/m 2,5 km/h (1 Bft) S-SW 202 0 min 0,000 mm 0,0 UV-I 0 W/m 7,8 C 8,9 C 3,2 km/h (1 Bft) 100,00 %
04.09.2019 05:08 8,9 C 21,7 C 7,2 C 93 % 1021,3 hPa 0,0 l/m 1,1 km/h (1 Bft) S-SW 202 0 min 0,000 mm 0,0 UV-I 0 W/m 7,8 C 8,9 C 1,6 km/h (1 Bft) 100,00 %
04.09.2019 05:10 8,8 C 21,7 C 7,2 C 93 % 1021,2 hPa 0,0 l/m 0,0 km/h (0 Bft) S-SW 202 0 min 0,000 mm 0,0 UV-I 0 W/m 7,7 C 8,8 C 1,6 km/h (1 Bft) 100,00 %
04.09.2019 05:12 8,7 C 21,1 C 7,2 C 93 % 1021,2 hPa 0,0 l/m 0,0 km/h (0 Bft) S-SW 202 0 min 0,000 mm 0,0 UV-I 0 W/m 7,6 C 8,7 C 0,0 km/h (0 Bft) 98,46 %
04.09.2019 05:14 8,7 C 21,7 C 7,2 C 93 % 1021,2 hPa 0,0 l/m 0,4 km/h (0 Bft) S-SW 202 0 min 0,000 mm 0,0 UV-I 0 W/m 7,6 C 8,7 C 1,6 km/h (1 Bft) 100,00 %
04.09.2019 05:16 8,7 C 21,1 C 7,2 C 93 % 1021,1 hPa 0,0 l/m 0,1 km/h (0 Bft) S-SW 202 0 min 0,000 mm 0,0 UV-I 0 W/m 7,6 C 8,7 C 1,6 km/h (1 Bft) 98,18 %
04.09.2019 05:18 8,7 C 21,1 C 7,2 C 93 % 1021,1 hPa 0,0 l/m 1,7 km/h (1 Bft) S-SW 202 0 min 0,000 mm 0,0 UV-I 0 W/m 7,6 C 8,7 C 3,2 km/h (1 Bft) 96,23 %
04.09.2019 05:20 8,7 C 21,1 C 6,7 C 93 % 1021,1 hPa 0,0 l/m 2,0 km/h (1 Bft) S-SW 202 0 min 0,000 mm 0,0 UV-I 0 W/m 7,6 C 8,7 C 3,2 km/h (1 Bft) 94,74 %
04.09.2019 05:22 8,7 C 21,1 C 6,7 C 94 % 1021,1 hPa 0,0 l/m 1,2 km/h (1 Bft) S-SW 202 0 min 0,000 mm 0,0 UV-I 0 W/m 7,8 C 8,7 C 3,2 km/h (1 Bft) 96,23 %
04.09.2019 05:24 8,7 C 21,1 C 6,7 C 94 % 1021,1 hPa 0,0 l/m 0,9 km/h (0 Bft) S-SW 202 0 min 0,000 mm 0,0 UV-I 0 W/m 7,8 C 8,7 C 1,6 km/h (1 Bft) 92,68 %
04.09.2019 05:26 8,7 C 21,1 C 6,7 C 93 % 1021,1 hPa 0,0 l/m 0,7 km/h (0 Bft) S-SW 202 0 min 0,000 mm 0,0 UV-I 0 W/m 7,6 C 8,7 C 1,6 km/h (1 Bft) 95,74 %
04.09.2019 05:28 8,7 C 21,1 C 6,7 C 93 % 1021,1 hPa 0,0 l/m 0,0 km/h (0 Bft) S-SW 202 0 min 0,000 mm 0,0 UV-I 0 W/m 7,6 C 8,7 C 0,0 km/h (0 Bft) 95,74 %
04.09.2019 05:30 8,6 C 21,1 C 6,7 C 94 % 1021,0 hPa 0,0 l/m 0,0 km/h (0 Bft) S-SW 202 0 min 0,000 mm 0,0 UV-I 0 W/m 7,7 C 8,6 C 0,0 km/h (0 Bft) 95,74 %
04.09.2019 05:32 8,6 C 21,1 C 6,7 C 94 % 1021,1 hPa 0,0 l/m 0,0 km/h (0 Bft) S-SW 202 0 min 0,000 mm 0,0 UV-I 0 W/m 7,7 C 8,6 C 0,0 km/h (0 Bft) 96,00 %
04.09.2019 05:34 8,6 C 21,1 C 6,7 C 94 % 1021,0 hPa 0,0 l/m 0,0 km/h (0 Bft) S-SW 202 0 min 0,000 mm 0,0 UV-I 0 W/m 7,7 C 8,6 C 0,0 km/h (0 Bft) 94,00 %
04.09.2019 05:36 8,5 C 21,1 C 6,7 C 94 % 1021,0 hPa 0,0 l/m 0,0 km/h (0 Bft) S-SW 202 0 min 0,000 mm 0,0 UV-I 0 W/m 7,6 C 8,5 C 1,6 km/h (1 Bft) 100,00 %
04.09.2019 05:38 8,4 C 21,1 C 6,7 C 94 % 1021,0 hPa 0,0 l/m 0,0 km/h (0 Bft) S-SW 202 0 min 0,000 mm 0,0 UV-I 0 W/m 7,5 C 8,4 C 0,0 km/h (0 Bft) 95,74 %
04.09.2019 05:40 8,4 C 21,1 C 6,7 C 94 % 1021,0 hPa 0,0 l/m 0,0 km/h (0 Bft) S-SW 202 0 min 0,000 mm 0,0 UV-I 0 W/m 7,5 C 8,4 C 0,0 km/h (0 Bft) 97,87 %
04.09.2019 05:42 8,4 C 21,1 C 6,7 C 94 % 1020,9 hPa 0,0 l/m 0,0 km/h (0 Bft) S-SW 202 0 min 0,000 mm 0,0 UV-I 0 W/m 7,5 C 8,4 C 0,0 km/h (0 Bft) 96,23 %
04.09.2019 05:44 8,4 C 21,1 C 6,7 C 94 % 1020,9 hPa 0,0 l/m 1,1 km/h (1 Bft) S-SW 202 0 min 0,000 mm 0,0 UV-I 0 W/m 7,5 C 8,4 C 1,6 km/h (1 Bft) 92,11 %
04.09.2019 05:46 8,3 C 21,1 C 6,7 C 94 % 1020,9 hPa 0,0 l/m 2,3 km/h (1 Bft) S-SW 202 0 min 0,000 mm 0,0 UV-I 0 W/m 7,4 C 8,3 C 3,2 km/h (1 Bft) 96,23 %
04.09.2019 05:48 8,3 C 21,1 C 6,7 C 94 % 1020,9 hPa 0,0 l/m 1,0 km/h (0 Bft) S-SW 202 0 min 0,000 mm 0,0 UV-I 0 W/m 7,4 C 8,3 C 3,2 km/h (1 Bft) 91,49 %
04.09.2019 05:50 8,3 C 21,1 C 6,7 C 94 % 1020,8 hPa 0,0 l/m 1,0 km/h (0 Bft) S-SW 202 0 min 0,000 mm 0,0 UV-I 0 W/m 7,4 C 8,3 C 3,2 km/h (1 Bft) 97,44 %
04.09.2019 05:52 8,3 C 21,1 C 6,7 C 94 % 1020,8 hPa 0,0 l/m 0,1 km/h (0 Bft) S-SW 202 0 min 0,000 mm 0,0 UV-I 0 W/m 7,4 C 8,3 C 1,6 km/h (1 Bft) 92,00 %
04.09.2019 05:54 8,3 C 21,1 C 6,7 C 94 % 1020,8 hPa 0,0 l/m 0,0 km/h (0 Bft) S-SW 202 0 min 0,000 mm 0,0 UV-I 0 W/m 7,4 C 8,3 C 0,0 km/h (0 Bft) 95,74 %
04.09.2019 05:56 8,3 C 21,1 C 6,7 C 94 % 1020,8 hPa 0,0 l/m 0,0 km/h (0 Bft) S-SW 202 0 min 0,000 mm 0,0 UV-I 0 W/m 7,4 C 8,3 C 0,0 km/h (0 Bft) 94,00 %
04.09.2019 05:58 8,2 C 21,1 C 6,7 C 94 % 1020,8 hPa 0,0 l/m 0,0 km/h (0 Bft) S-SW 202 0 min 0,000 mm 0,0 UV-I 0 W/m 7,3 C 8,2 C 0,0 km/h (0 Bft) 93,62 %
04.09.2019 06:00 8,2 C 21,1 C 6,7 C 94 % 1020,9 hPa 0,0 l/m 0,0 km/h (0 Bft) S-SW 202 0 min 0,000 mm 0,0 UV-I 0 W/m 7,3 C 8,2 C 0,0 km/h (0 Bft) 95,74 %
04.09.2019 06:02 8,2 C 21,1 C 6,7 C 94 % 1020,8 hPa 0,0 l/m 0,0 km/h (0 Bft) S-SW 202 0 min 0,000 mm 0,0 UV-I 0 W/m 7,3 C 8,2 C 0,0 km/h (0 Bft) 96,00 %
04.09.2019 06:04 8,1 C 21,1 C 6,7 C 94 % 1020,8 hPa 0,0 l/m 0,0 km/h (0 Bft) S-SW 202 0 min 0,000 mm 0,0 UV-I 0 W/m 7,2 C 8,1 C 0,0 km/h (0 Bft) 95,12 %
04.09.2019 06:06 8,1 C 21,1 C 6,7 C 94 % 1020,8 hPa 0,0 l/m 0,0 km/h (0 Bft) S-SW 202 0 min 0,000 mm 0,0 UV-I 0 W/m 7,2 C 8,1 C 0,0 km/h (0 Bft) 94,00 %
04.09.2019 06:08 8,2 C 21,1 C 6,7 C 94 % 1020,8 hPa 0,0 l/m 0,0 km/h (0 Bft) S-SW 202 0 min 0,000 mm 0,0 UV-I 1 W/m 7,3 C 8,2 C 0,0 km/h (0 Bft) 100,00 %
04.09.2019 06:10 8,2 C 21,1 C 6,7 C 94 % 1020,8 hPa 0,0 l/m 0,0 km/h (0 Bft) S-SW 202 0 min 0,000 mm 0,0 UV-I 5 W/m 7,3 C 8,2 C 0,0 km/h (0 Bft) 93,62 %
04.09.2019 06:12 8,2 C 21,1 C 6,7 C 95 % 1020,8 hPa 0,0 l/m 0,0 km/h (0 Bft) S-SW 202 0 min 0,000 mm 0,0 UV-I 5 W/m 7,4 C 8,2 C 0,0 km/h (0 Bft) 97,87 %
04.09.2019 06:14 8,2 C 21,1 C 6,7 C 94 % 1020,8 hPa 0,0 l/m 0,0 km/h (0 Bft) S-SW 202 0 min 0,000 mm 0,0 UV-I 5 W/m 7,3 C 8,2 C 0,0 km/h (0 Bft) 98,00 %
04.09.2019 06:16 8,2 C 21,1 C 6,7 C 94 % 1020,8 hPa 0,0 l/m 0,0 km/h (0 Bft) S-SW 202 0 min 0,000 mm 0,0 UV-I 5 W/m 7,3 C 8,2 C 0,0 km/h (0 Bft) 97,14 %
04.09.2019 06:18 8,2 C 21,1 C 6,7 C 94 % 1020,8 hPa 0,0 l/m 0,0 km/h (0 Bft) S-SW 202 0 min 0,000 mm 0,0 UV-I 7 W/m 7,3 C 8,2 C 0,0 km/h (0 Bft) 100,00 %
04.09.2019 06:20 8,1 C 21,1 C 6,7 C 94 % 1020,8 hPa 0,0 l/m 0,0 km/h (0 Bft) S-SW 202 0 min 0,000 mm 0,0 UV-I 7 W/m 7,2 C 8,1 C 0,0 km/h (0 Bft) 100,00 %
04.09.2019 06:22 8,0 C 21,1 C 6,7 C 94 % 1020,8 hPa 0,0 l/m 0,0 km/h (0 Bft) S-SW 202 0 min 0,000 mm 0,0 UV-I 7 W/m 7,1 C 8,0 C 0,0 km/h (0 Bft) 97,87 %
04.09.2019 06:24 8,0 C 21,1 C 6,7 C 94 % 1020,8 hPa 0,0 l/m 0,0 km/h (0 Bft) S-SW 202 0 min 0,000 mm 0,0 UV-I 9 W/m 7,1 C 8,0 C 0,0 km/h (0 Bft) 100,00 %
04.09.2019 06:26 8,0 C 21,1 C 6,7 C 94 % 1020,8 hPa 0,0 l/m 0,0 km/h (0 Bft) S-SW 202 0 min 0,000 mm 0,0 UV-I 9 W/m 7,1 C 8,0 C 0,0 km/h (0 Bft) 100,00 %
04.09.2019 06:28 8,0 C 21,1 C 6,7 C 95 % 1020,8 hPa 0,0 l/m 0,0 km/h (0 Bft) S-SW 202 0 min 0,000 mm 0,0 UV-I 10 W/m 7,2 C 8,0 C 0,0 km/h (0 Bft) 97,87 %
04.09.2019 06:30 8,0 C 21,1 C 6,7 C 95 % 1020,8 hPa 0,0 l/m 0,0 km/h (0 Bft) S-SW 202 0 min 0,000 mm 0,0 UV-I 11 W/m 7,2 C 8,0 C 0,0 km/h (0 Bft) 97,44 %
04.09.2019 06:32 8,1 C 21,1 C 6,7 C 95 % 1020,8 hPa 0,0 l/m 0,0 km/h (0 Bft) S-SW 202 0 min 0,000 mm 0,0 UV-I 13 W/m 7,3 C 8,1 C 0,0 km/h (0 Bft) 98,00 %
04.09.2019 06:34 8,1 C 21,1 C 6,7 C 95 % 1020,9 hPa 0,0 l/m 0,0 km/h (0 Bft) S-SW 202 0 min 0,000 mm 0,0 UV-I 16 W/m 7,3 C 8,1 C 0,0 km/h (0 Bft) 95,74 %
04.09.2019 06:36 8,1 C 21,1 C 6,7 C 95 % 1020,8 hPa 0,0 l/m 0,0 km/h (0 Bft) S-SW 202 2 min 0,000 mm 0,0 UV-I 18 W/m 7,3 C 8,1 C 0,0 km/h (0 Bft) 98,00 %
04.09.2019 06:38 8,1 C 21,1 C 6,7 C 94 % 1020,9 hPa 0,0 l/m 0,0 km/h (0 Bft) S-SW 202 2 min 0,000 mm 0,0 UV-I 19 W/m 7,2 C 8,1 C 0,0 km/h (0 Bft) 97,87 %
04.09.2019 06:40 8,1 C 21,1 C 6,7 C 94 % 1020,9 hPa 0,0 l/m 0,0 km/h (0 Bft) S-SW 202 2 min 0,000 mm 0,0 UV-I 22 W/m 7,2 C 8,1 C 0,0 km/h (0 Bft) 97,87 %
04.09.2019 06:42 8,1 C 21,1 C 6,7 C 94 % 1020,9 hPa 0,0 l/m 0,0 km/h (0 Bft) S-SW 202 2 min 0,000 mm 0,0 UV-I 26 W/m 7,2 C 8,1 C 0,0 km/h (0 Bft) 98,00 %
04.09.2019 06:44 8,1 C 21,1 C 6,7 C 94 % 1020,9 hPa 0,0 l/m 0,0 km/h (0 Bft) SW 221 2 min 0,000 mm 0,0 UV-I 28 W/m 7,2 C 8,1 C 0,0 km/h (0 Bft) 97,14 %
04.09.2019 06:46 8,1 C 21,1 C 6,7 C 94 % 1020,9 hPa 0,0 l/m 1,0 km/h (0 Bft) SW 221 2 min 0,000 mm 0,0 UV-I 32 W/m 7,2 C 8,1 C 1,6 km/h (1 Bft) 98,11 %
04.09.2019 06:48 8,1 C 21,1 C 6,7 C 94 % 1020,9 hPa 0,0 l/m 1,1 km/h (1 Bft) SW 221 2 min 0,000 mm 0,0 UV-I 38 W/m 7,2 C 8,1 C 1,6 km/h (1 Bft) 96,00 %
04.09.2019 06:50 8,1 C 21,1 C 6,7 C 94 % 1020,9 hPa 0,0 l/m 1,7 km/h (1 Bft) SW 221 2 min 0,000 mm 0,0 UV-I 40 W/m 7,2 C 8,1 C 3,2 km/h (1 Bft) 97,37 %
04.09.2019 06:52 8,2 C 21,1 C 7,2 C 94 % 1020,9 hPa 0,0 l/m 1,4 km/h (1 Bft) SW 221 2 min 0,000 mm 0,0 UV-I 45 W/m 7,3 C 8,2 C 3,2 km/h (1 Bft) 97,87 %
04.09.2019 06:54 8,2 C 21,1 C 7,2 C 94 % 1020,9 hPa 0,0 l/m 1,2 km/h (1 Bft) SW 221 2 min 0,000 mm 0,0 UV-I 50 W/m 7,3 C 8,2 C 1,6 km/h (1 Bft) 100,00 %
04.09.2019 06:56 8,2 C 21,1 C 7,2 C 94 % 1020,8 hPa 0,0 l/m 0,7 km/h (0 Bft) SW 221 2 min 0,000 mm 0,0 UV-I 54 W/m 7,3 C 8,2 C 1,6 km/h (1 Bft) 100,00 %
04.09.2019 06:58 8,2 C 21,1 C 7,2 C 94 % 1020,9 hPa 0,0 l/m 0,4 km/h (0 Bft) SW 221 2 min 0,000 mm 0,0 UV-I 58 W/m 7,3 C 8,2 C 1,6 km/h (1 Bft) 100,00 %
04.09.2019 07:00 8,2 C 21,1 C 7,2 C 94 % 1020,9 hPa 0,0 l/m 0,3 km/h (0 Bft) SW 221 2 min 0,000 mm 0,0 UV-I 63 W/m 7,3 C 8,2 C 1,6 km/h (1 Bft) 100,00 %
04.09.2019 07:02 8,2 C 21,1 C 7,8 C 94 % 1020,9 hPa 0,0 l/m 1,5 km/h (1 Bft) SW 221 2 min 0,000 mm 0,0 UV-I 66 W/m 7,3 C 8,2 C 3,2 km/h (1 Bft) 100,00 %
04.09.2019 07:04 8,3 C 21,1 C 7,8 C 95 % 1020,9 hPa 0,0 l/m 1,3 km/h (1 Bft) SW 221 2 min 0,000 mm 0,0 UV-I 70 W/m 7,5 C 8,3 C 1,6 km/h (1 Bft) 100,00 %
04.09.2019 07:06 8,3 C 21,1 C 7,8 C 95 % 1020,9 hPa 0,0 l/m 0,8 km/h (0 Bft) SW 221 2 min 0,000 mm 0,0 UV-I 75 W/m 7,5 C 8,3 C 1,6 km/h (1 Bft) 100,00 %
04.09.2019 07:08 8,4 C 21,1 C 7,8 C 95 % 1020,9 hPa 0,0 l/m 1,1 km/h (1 Bft) SW 221 2 min 0,000 mm 0,0 UV-I 79 W/m 7,6 C 8,4 C 1,6 km/h (1 Bft) 97,87 %
04.09.2019 07:10 8,5 C 21,1 C 7,8 C 95 % 1020,8 hPa 0,0 l/m 1,3 km/h (1 Bft) SW 221 2 min 0,000 mm 0,0 UV-I 83 W/m 7,7 C 8,5 C 3,2 km/h (1 Bft) 100,00 %
04.09.2019 07:12 8,4 C 21,1 C 7,8 C 94 % 1020,9 hPa 0,0 l/m 1,2 km/h (1 Bft) SW 221 2 min 0,000 mm 0,0 UV-I 87 W/m 7,5 C 8,4 C 1,6 km/h (1 Bft) 100,00 %
04.09.2019 07:14 8,4 C 21,1 C 7,8 C 94 % 1020,9 hPa 0,0 l/m 0,9 km/h (0 Bft) SW 221 2 min 0,000 mm 0,0 UV-I 91 W/m 7,5 C 8,4 C 1,6 km/h (1 Bft) 100,00 %
04.09.2019 07:16 8,5 C 21,1 C 7,8 C 95 % 1020,8 hPa 0,0 l/m 0,9 km/h (0 Bft) SW 221 2 min 0,000 mm 0,0 UV-I 95 W/m 7,7 C 8,5 C 1,6 km/h (1 Bft) 100,00 %
04.09.2019 07:18 8,6 C 21,1 C 7,8 C 95 % 1020,8 hPa 0,0 l/m 1,2 km/h (1 Bft) SW 221 2 min 0,000 mm 0,0 UV-I 99 W/m 7,8 C 8,6 C 1,6 km/h (1 Bft) 100,00 %
04.09.2019 07:20 8,7 C 21,1 C 8,3 C 95 % 1020,8 hPa 0,0 l/m 0,9 km/h (0 Bft) SW 221 2 min 0,000 mm 0,0 UV-I 104 W/m 7,9 C 8,7 C 1,6 km/h (1 Bft) 100,00 %
04.09.2019 07:22 8,8 C 21,1 C 8,3 C 95 % 1020,8 hPa 0,0 l/m 0,2 km/h (0 Bft) SW 221 2 min 0,000 mm 0,0 UV-I 109 W/m 8,0 C 8,8 C 1,6 km/h (1 Bft) 97,56 %
04.09.2019 07:24 8,8 C 21,1 C 8,3 C 95 % 1020,8 hPa 0,0 l/m 0,4 km/h (0 Bft) SW 221 2 min 0,000 mm 0,0 UV-I 114 W/m 8,0 C 8,8 C 1,6 km/h (1 Bft) 100,00 %
04.09.2019 07:26 8,8 C 21,1 C 8,3 C 95 % 1020,8 hPa 0,0 l/m 0,2 km/h (0 Bft) SW 221 2 min 0,000 mm 0,0 UV-I 118 W/m 8,0 C 8,8 C 1,6 km/h (1 Bft) 100,00 %
04.09.2019 07:28 8,9 C 21,1 C 8,3 C 95 % 1020,8 hPa 0,0 l/m 0,0 km/h (0 Bft) SW 221 2 min 0,000 mm 0,0 UV-I 123 W/m 8,1 C 8,9 C 0,0 km/h (0 Bft) 100,00 %
04.09.2019 07:30 8,9 C 21,1 C 8,3 C 95 % 1020,8 hPa 0,0 l/m 0,0 km/h (0 Bft) SW 221 2 min 0,000 mm 0,0 UV-I 128 W/m 8,1 C 8,9 C 0,0 km/h (0 Bft) 100,00 %
04.09.2019 07:32 9,2 C 21,1 C 8,3 C 95 % 1020,8 hPa 0,0 l/m 1,1 km/h (1 Bft) SW 221 2 min 0,000 mm 0,0 UV-I 132 W/m 8,4 C 9,2 C 1,6 km/h (1 Bft) 100,00 %
04.09.2019 07:34 9,4 C 21,1 C 8,9 C 95 % 1020,8 hPa 0,0 l/m 1,5 km/h (1 Bft) SW 221 2 min 0,000 mm 0,0 UV-I 137 W/m 8,6 C 9,4 C 3,2 km/h (1 Bft) 100,00 %
04.09.2019 07:36 9,6 C 21,1 C 8,9 C 95 % 1020,8 hPa 0,0 l/m 1,5 km/h (1 Bft) SW 221 2 min 0,000 mm 0,0 UV-I 142 W/m 8,8 C 9,6 C 3,2 km/h (1 Bft) 100,00 %
04.09.2019 07:38 9,7 C 21,1 C 8,9 C 95 % 1020,8 hPa 0,0 l/m 2,2 km/h (1 Bft) SW 221 2 min 0,000 mm 0,0 UV-I 148 W/m 8,9 C 9,7 C 4,8 km/h (1 Bft) 100,00 %
04.09.2019 07:40 9,8 C 21,1 C 9,4 C 95 % 1020,8 hPa 0,0 l/m 3,0 km/h (1 Bft) SW 221 2 min 0,000 mm 0,0 UV-I 152 W/m 9,0 C 9,8 C 4,8 km/h (1 Bft) 100,00 %
04.09.2019 07:42 10,1 C 21,1 C 9,4 C 95 % 1020,8 hPa 0,0 l/m 2,9 km/h (1 Bft) N 355 2 min 0,000 mm 0,0 UV-I 157 W/m 9,3 C 10,1 C 4,8 km/h (1 Bft) 100,00 %
04.09.2019 07:44 10,1 C 21,1 C 10,0 C 95 % 1020,8 hPa 0,0 l/m 3,8 km/h (1 Bft) N 355 2 min 0,000 mm 0,0 UV-I 162 W/m 9,3 C 10,1 C 4,8 km/h (1 Bft) 100,00 %
04.09.2019 07:46 10,2 C 21,1 C 10,0 C 94 % 1020,8 hPa 0,0 l/m 3,9 km/h (1 Bft) NO 44 2 min 0,000 mm 0,0 UV-I 168 W/m 9,3 C 10,2 C 6,4 km/h (2 Bft) 100,00 %
04.09.2019 07:48 10,2 C 21,1 C 10,0 C 94 % 1020,8 hPa 0,0 l/m 3,9 km/h (1 Bft) NO 44 2 min 0,000 mm 0,0 UV-I 176 W/m 9,3 C 10,2 C 4,8 km/h (1 Bft) 100,00 %
04.09.2019 07:50 10,3 C 21,1 C 10,0 C 94 % 1020,8 hPa 0,0 l/m 3,3 km/h (1 Bft) NO 45 2 min 0,000 mm 0,0 UV-I 179 W/m 9,4 C 10,3 C 4,8 km/h (1 Bft) 95,74 %
04.09.2019 07:52 10,4 C 21,1 C 10,6 C 94 % 1020,8 hPa 0,0 l/m 2,8 km/h (1 Bft) NO 45 2 min 0,000 mm 0,0 UV-I 188 W/m 9,5 C 10,4 C 4,8 km/h (1 Bft) 94,00 %
04.09.2019 07:54 10,4 C 21,1 C 10,6 C 94 % 1020,8 hPa 0,0 l/m 3,6 km/h (1 Bft) NO 49 2 min 0,000 mm 0,0 UV-I 194 W/m 9,5 C 10,4 C 4,8 km/h (1 Bft) 96,00 %
04.09.2019 07:56 10,6 C 21,1 C 10,6 C 93 % 1020,7 hPa 0,0 l/m 3,5 km/h (1 Bft) O-NO 71 2 min 0,000 mm 0,0 UV-I 200 W/m 9,5 C 10,6 C 4,8 km/h (1 Bft) 92,00 %
04.09.2019 07:58 10,7 C 21,1 C 10,6 C 93 % 1020,7 hPa 0,0 l/m 5,1 km/h (1 Bft) O-NO 76 2 min 0,000 mm 0,0 UV-I 206 W/m 9,6 C 10,7 C 6,4 km/h (2 Bft) 97,14 %
04.09.2019 08:00 10,7 C 21,1 C 10,6 C 92 % 1020,7 hPa 0,0 l/m 4,3 km/h (1 Bft) O-NO 77 2 min 0,051 mm 0,0 UV-I 212 W/m 9,5 C 10,7 C 6,4 km/h (2 Bft) 94,34 %
04.09.2019 08:02 10,8 C 21,1 C 10,6 C 92 % 1020,7 hPa 0,0 l/m 4,5 km/h (1 Bft) O 80 2 min 0,000 mm 0,0 UV-I 218 W/m 9,6 C 10,8 C 6,4 km/h (2 Bft) 93,62 %
04.09.2019 08:04 10,9 C 21,1 C 10,6 C 91 % 1020,7 hPa 0,0 l/m 4,3 km/h (1 Bft) O 80 2 min 0,000 mm 0,0 UV-I 220 W/m 9,5 C 10,9 C 6,4 km/h (2 Bft) 93,62 %
04.09.2019 08:06 11,0 C 21,1 C 11,1 C 91 % 1020,7 hPa 0,0 l/m 3,9 km/h (1 Bft) O 96 2 min 0,000 mm 0,0 UV-I 229 W/m 9,6 C 11,0 C 4,8 km/h (1 Bft) 93,62 %
04.09.2019 08:08 11,2 C 21,1 C 11,1 C 90 % 1020,7 hPa 0,0 l/m 4,6 km/h (1 Bft) O 86 2 min 0,000 mm 0,3 UV-I 234 W/m 9,6 C 11,2 C 6,4 km/h (2 Bft) 91,49 %
04.09.2019 08:10 11,3 C 21,1 C 11,1 C 89 % 1020,7 hPa 0,0 l/m 3,7 km/h (1 Bft) O 86 2 min 0,000 mm 0,5 UV-I 240 W/m 9,6 C 11,3 C 4,8 km/h (1 Bft) 95,74 %
04.09.2019 08:12 11,4 C 21,1 C 11,1 C 89 % 1020,7 hPa 0,0 l/m 3,7 km/h (1 Bft) O 85 2 min 0,000 mm 0,5 UV-I 245 W/m 9,7 C 11,4 C 4,8 km/h (1 Bft) 95,74 %
04.09.2019 08:14 11,6 C 21,1 C 11,1 C 88 % 1020,7 hPa 0,0 l/m 3,6 km/h (1 Bft) O 85 2 min 0,000 mm 0,5 UV-I 251 W/m 9,7 C 11,6 C 6,4 km/h (2 Bft) 95,45 %
04.09.2019 08:16 11,8 C 21,1 C 11,1 C 88 % 1020,7 hPa 0,0 l/m 4,3 km/h (1 Bft) O 85 2 min 0,000 mm 0,5 UV-I 257 W/m 9,9 C 11,8 C 6,4 km/h (2 Bft) 96,23 %
04.09.2019 08:18 11,9 C 21,1 C 11,1 C 87 % 1020,7 hPa 0,0 l/m 4,0 km/h (1 Bft) O 88 2 min 0,000 mm 0,5 UV-I 263 W/m 9,8 C 11,9 C 6,4 km/h (2 Bft) 94,87 %
04.09.2019 08:20 11,9 C 21,1 C 11,7 C 85 % 1020,6 hPa 0,0 l/m 3,5 km/h (1 Bft) O 88 2 min 0,000 mm 0,6 UV-I 268 W/m 9,5 C 11,9 C 4,8 km/h (1 Bft) 96,23 %
04.09.2019 08:22 11,9 C 21,1 C 11,7 C 85 % 1020,7 hPa 0,0 l/m 4,2 km/h (1 Bft) O 88 2 min 0,000 mm 0,6 UV-I 274 W/m 9,5 C 11,9 C 6,4 km/h (2 Bft) 95,12 %
04.09.2019 08:24 12,1 C 21,1 C 11,7 C 84 % 1020,6 hPa 0,0 l/m 3,9 km/h (1 Bft) O 88 2 min 0,000 mm 0,6 UV-I 280 W/m 9,5 C 12,1 C 4,8 km/h (1 Bft) 92,00 %
04.09.2019 08:26 12,1 C 21,1 C 11,7 C 85 % 1020,6 hPa 0,0 l/m 3,9 km/h (1 Bft) O 88 2 min 0,000 mm 0,6 UV-I 287 W/m 9,7 C 12,1 C 6,4 km/h (2 Bft) 100,00 %
04.09.2019 08:28 12,2 C 21,1 C 11,7 C 84 % 1020,5 hPa 0,0 l/m 3,6 km/h (1 Bft) O 88 2 min 0,000 mm 0,7 UV-I 293 W/m 9,6 C 12,2 C 4,8 km/h (1 Bft) 94,92 %
04.09.2019 08:30 12,3 C 21,1 C 11,7 C 85 % 1020,5 hPa 0,0 l/m 3,8 km/h (1 Bft) O 88 2 min 0,000 mm 0,7 UV-I 298 W/m 9,9 C 12,3 C 4,8 km/h (1 Bft) 98,00 %
04.09.2019 08:32 12,5 C 21,1 C 11,7 C 84 % 1020,5 hPa 0,0 l/m 4,5 km/h (1 Bft) O-NO 78 2 min 0,000 mm 0,7 UV-I 304 W/m 9,9 C 12,5 C 6,4 km/h (2 Bft) 97,56 %
04.09.2019 08:34 12,6 C 21,1 C 11,7 C 84 % 1020,5 hPa 0,0 l/m 3,0 km/h (1 Bft) O-NO 71 2 min 0,000 mm 0,7 UV-I 310 W/m 10,0 C 12,6 C 4,8 km/h (1 Bft) 97,56 %
04.09.2019 08:36 12,7 C 21,1 C 12,2 C 84 % 1020,5 hPa 0,0 l/m 3,4 km/h (1 Bft) O-NO 71 2 min 0,000 mm 0,8 UV-I 314 W/m 10,1 C 12,7 C 4,8 km/h (1 Bft) 98,00 %
04.09.2019 08:38 12,8 C 21,1 C 12,2 C 84 % 1020,5 hPa 0,0 l/m 3,4 km/h (1 Bft) O 80 2 min 0,000 mm 0,8 UV-I 321 W/m 10,2 C 12,8 C 4,8 km/h (1 Bft) 98,00 %
04.09.2019 08:40 12,9 C 21,1 C 12,2 C 84 % 1020,5 hPa 0,0 l/m 4,1 km/h (1 Bft) NO 42 2 min 0,000 mm 0,8 UV-I 327 W/m 10,3 C 12,9 C 6,4 km/h (2 Bft) 95,92 %
04.09.2019 08:42 13,1 C 21,1 C 12,2 C 83 % 1020,4 hPa 0,0 l/m 4,6 km/h (1 Bft) NO 42 2 min 0,000 mm 0,8 UV-I 332 W/m 10,3 C 13,1 C 4,8 km/h (1 Bft) 97,37 %
04.09.2019 08:44 13,1 C 21,1 C 12,2 C 83 % 1020,4 hPa 0,0 l/m 4,6 km/h (1 Bft) NO 39 2 min 0,000 mm 0,9 UV-I 338 W/m 10,3 C 13,1 C 6,4 km/h (2 Bft) 96,43 %
04.09.2019 08:46 13,1 C 21,1 C 12,2 C 83 % 1020,4 hPa 0,0 l/m 3,4 km/h (1 Bft) NO 39 2 min 0,000 mm 0,9 UV-I 343 W/m 10,3 C 13,1 C 4,8 km/h (1 Bft) 100,00 %
04.09.2019 08:48 13,2 C 21,1 C 12,2 C 83 % 1020,4 hPa 0,0 l/m 3,4 km/h (1 Bft) NO 43 2 min 0,000 mm 0,9 UV-I 348 W/m 10,4 C 13,2 C 4,8 km/h (1 Bft) 96,23 %
04.09.2019 08:50 13,3 C 21,1 C 12,8 C 81 % 1020,4 hPa 0,0 l/m 3,9 km/h (1 Bft) O 84 2 min 0,000 mm 0,9 UV-I 354 W/m 10,1 C 13,3 C 4,8 km/h (1 Bft) 95,74 %
04.09.2019 08:52 13,4 C 21,1 C 12,8 C 81 % 1020,4 hPa 0,0 l/m 5,0 km/h (1 Bft) O 82 2 min 0,000 mm 1,0 UV-I 361 W/m 10,2 C 13,4 C 6,4 km/h (2 Bft) 100,00 %
04.09.2019 08:54 13,4 C 21,1 C 12,8 C 80 % 1020,4 hPa 0,0 l/m 4,4 km/h (1 Bft) NO 56 2 min 0,000 mm 1,0 UV-I 367 W/m 10,0 C 13,4 C 6,4 km/h (2 Bft) 100,00 %
04.09.2019 08:56 13,4 C 21,1 C 12,8 C 80 % 1020,4 hPa 0,0 l/m 4,1 km/h (1 Bft) O-NO 68 2 min 0,000 mm 1,0 UV-I 372 W/m 10,0 C 13,4 C 6,4 km/h (2 Bft) 100,00 %
04.09.2019 08:58 13,5 C 21,1 C 12,8 C 79 % 1020,4 hPa 0,0 l/m 5,4 km/h (1 Bft) O-NO 65 2 min 0,000 mm 1,1 UV-I 378 W/m 9,9 C 13,5 C 8,0 km/h (2 Bft) 98,00 %
04.09.2019 09:00 13,6 C 21,1 C 12,8 C 82 % 1020,4 hPa 0,0 l/m 6,7 km/h (2 Bft) O-NO 69 2 min 0,153 mm 1,1 UV-I 383 W/m 10,6 C 13,4 C 9,7 km/h (2 Bft) 100,00 %
04.09.2019 09:02 13,7 C 21,1 C 12,8 C 81 % 1020,3 hPa 0,0 l/m 6,4 km/h (2 Bft) NO 47 2 min 0,000 mm 1,1 UV-I 389 W/m 10,5 C 13,7 C 8,0 km/h (2 Bft) 97,87 %
04.09.2019 09:04 13,7 C 21,1 C 12,8 C 80 % 1020,3 hPa 0,0 l/m 4,0 km/h (1 Bft) O 97 2 min 0,000 mm 1,2 UV-I 395 W/m 10,3 C 13,7 C 6,4 km/h (2 Bft) 89,47 %
04.09.2019 09:06 13,7 C 21,1 C 13,3 C 79 % 1020,3 hPa 0,0 l/m 2,4 km/h (1 Bft) O-SO 116 2 min 0,000 mm 1,2 UV-I 401 W/m 10,1 C 13,7 C 4,8 km/h (1 Bft) 98,00 %
04.09.2019 09:08 13,7 C 21,1 C 13,3 C 80 % 1020,3 hPa 0,0 l/m 4,9 km/h (1 Bft) O-SO 107 2 min 0,000 mm 1,2 UV-I 407 W/m 10,3 C 13,7 C 9,7 km/h (2 Bft) 97,87 %
04.09.2019 09:10 13,8 C 21,1 C 13,3 C 81 % 1020,3 hPa 0,0 l/m 5,4 km/h (1 Bft) O 101 2 min 0,000 mm 1,2 UV-I 411 W/m 10,6 C 13,8 C 9,7 km/h (2 Bft) 98,11 %
04.09.2019 09:12 14,1 C 21,1 C 13,3 C 80 % 1020,3 hPa 0,0 l/m 3,4 km/h (1 Bft) O-NO 71 2 min 0,000 mm 1,3 UV-I 417 W/m 10,7 C 14,1 C 6,4 km/h (2 Bft) 97,56 %
04.09.2019 09:14 14,1 C 21,1 C 13,3 C 80 % 1020,2 hPa 0,0 l/m 5,5 km/h (1 Bft) O 96 2 min 0,000 mm 1,3 UV-I 422 W/m 10,7 C 14,1 C 9,7 km/h (2 Bft) 98,11 %
04.09.2019 09:16 14,3 C 21,1 C 13,3 C 80 % 1020,3 hPa 0,0 l/m 4,3 km/h (1 Bft) O-SO 102 2 min 0,000 mm 1,3 UV-I 427 W/m 10,9 C 14,3 C 6,4 km/h (2 Bft) 97,56 %
04.09.2019 09:18 14,3 C 21,1 C 13,3 C 79 % 1020,2 hPa 0,0 l/m 4,4 km/h (1 Bft) NO 53 2 min 0,000 mm 1,4 UV-I 434 W/m 10,7 C 14,3 C 8,0 km/h (2 Bft) 96,00 %
04.09.2019 09:20 14,4 C 21,1 C 13,9 C 80 % 1020,1 hPa 0,0 l/m 4,7 km/h (1 Bft) NO 51 2 min 0,000 mm 1,4 UV-I 438 W/m 11,0 C 14,4 C 8,0 km/h (2 Bft) 98,00 %
04.09.2019 09:22 14,6 C 21,1 C 13,9 C 79 % 1020,2 hPa 0,0 l/m 7,3 km/h (2 Bft) O 94 2 min 0,000 mm 1,4 UV-I 444 W/m 11,0 C 14,1 C 12,9 km/h (3 Bft) 97,87 %
04.09.2019 09:24 14,6 C 21,1 C 13,9 C 79 % 1020,1 hPa 0,0 l/m 6,0 km/h (2 Bft) O-SO 109 2 min 0,000 mm 1,5 UV-I 449 W/m 11,0 C 14,6 C 8,0 km/h (2 Bft) 100,00 %
04.09.2019 09:26 14,7 C 21,1 C 13,9 C 79 % 1020,1 hPa 0,0 l/m 5,0 km/h (1 Bft) O-SO 119 2 min 0,000 mm 1,5 UV-I 454 W/m 11,1 C 14,7 C 9,7 km/h (2 Bft) 98,00 %
04.09.2019 09:28 14,7 C 21,1 C 13,9 C 79 % 1020,1 hPa 0,0 l/m 5,3 km/h (1 Bft) O-NO 63 2 min 0,000 mm 1,6 UV-I 459 W/m 11,1 C 14,7 C 9,7 km/h (2 Bft) 100,00 %
04.09.2019 09:30 14,9 C 21,1 C 14,4 C 79 % 1020,1 hPa 0,0 l/m 5,4 km/h (1 Bft) O-SO 104 2 min 0,000 mm 1,6 UV-I 464 W/m 11,3 C 14,9 C 11,3 km/h (2 Bft) 98,00 %
04.09.2019 09:32 14,9 C 21,1 C 14,4 C 79 % 1020,1 hPa 0,0 l/m 4,4 km/h (1 Bft) O-NO 58 2 min 0,000 mm 1,6 UV-I 468 W/m 11,3 C 14,9 C 8,0 km/h (2 Bft) 100,00 %
04.09.2019 09:34 15,0 C 21,1 C 14,4 C 79 % 1020,1 hPa 0,0 l/m 5,2 km/h (1 Bft) O 91 2 min 0,000 mm 1,7 UV-I 475 W/m 11,4 C 15,0 C 6,4 km/h (2 Bft) 97,87 %
04.09.2019 09:36 15,0 C 21,1 C 14,4 C 78 % 1020,0 hPa 0,0 l/m 7,1 km/h (2 Bft) O-NO 76 2 min 0,000 mm 1,7 UV-I 480 W/m 11,2 C 14,6 C 11,3 km/h (2 Bft) 100,00 %
04.09.2019 09:38 14,9 C 21,1 C 14,4 C 78 % 1020,0 hPa 0,0 l/m 5,5 km/h (1 Bft) NO 55 2 min 0,000 mm 1,7 UV-I 484 W/m 11,1 C 14,9 C 8,0 km/h (2 Bft) 100,00 %
04.09.2019 09:40 15,1 C 21,1 C 15,0 C 79 % 1020,0 hPa 0,0 l/m 6,9 km/h (2 Bft) NO 55 2 min 0,000 mm 1,8 UV-I 489 W/m 11,5 C 14,8 C 11,3 km/h (2 Bft) 100,00 %
04.09.2019 09:42 15,2 C 21,1 C 15,6 C 78 % 1020,0 hPa 0,0 l/m 8,3 km/h (2 Bft) O 82 2 min 0,000 mm 1,8 UV-I 494 W/m 11,4 C 14,2 C 12,9 km/h (3 Bft) 97,14 %
04.09.2019 09:44 15,1 C 21,1 C 15,6 C 76 % 1020,0 hPa 0,0 l/m 6,0 km/h (2 Bft) O-NO 65 2 min 0,000 mm 1,8 UV-I 498 W/m 10,9 C 15,1 C 8,0 km/h (2 Bft) 100,00 %
04.09.2019 09:46 15,2 C 21,1 C 15,6 C 78 % 1020,0 hPa 0,0 l/m 6,7 km/h (2 Bft) O-NO 63 2 min 0,000 mm 1,9 UV-I 503 W/m 11,4 C 15,0 C 8,0 km/h (2 Bft) 97,56 %
04.09.2019 09:48 15,3 C 21,1 C 15,6 C 77 % 1019,9 hPa 0,0 l/m 3,7 km/h (1 Bft) N-NO 24 2 min 0,000 mm 1,9 UV-I 508 W/m 11,3 C 15,3 C 6,4 km/h (2 Bft) 97,87 %
04.09.2019 09:50 15,4 C 21,1 C 16,1 C 76 % 1019,9 hPa 0,0 l/m 5,8 km/h (2 Bft) O-NO 75 2 min 0,000 mm 1,9 UV-I 513 W/m 11,2 C 15,4 C 8,0 km/h (2 Bft) 96,23 %
04.09.2019 09:52 15,3 C 21,1 C 16,1 C 77 % 1019,9 hPa 0,0 l/m 5,8 km/h (2 Bft) O-NO 66 2 min 0,000 mm 2,0 UV-I 517 W/m 11,3 C 15,3 C 11,3 km/h (2 Bft) 97,56 %
04.09.2019 09:54 15,3 C 21,1 C 16,7 C 76 % 1019,8 hPa 0,0 l/m 4,2 km/h (1 Bft) O-SO 104 2 min 0,000 mm 2,0 UV-I 522 W/m 11,1 C 15,3 C 6,4 km/h (2 Bft) 97,87 %
04.09.2019 09:56 15,4 C 21,1 C 16,7 C 76 % 1019,9 hPa 0,0 l/m 4,6 km/h (1 Bft) O-NO 57 2 min 0,000 mm 2,1 UV-I 527 W/m 11,2 C 15,4 C 6,4 km/h (2 Bft) 96,00 %
04.09.2019 09:58 15,5 C 21,1 C 17,8 C 77 % 1019,8 hPa 0,0 l/m 5,9 km/h (2 Bft) O-NO 75 2 min 0,000 mm 2,1 UV-I 532 W/m 11,5 C 15,5 C 9,7 km/h (2 Bft) 97,56 %
04.09.2019 10:00 15,5 C 21,1 C 18,9 C 76 % 1019,8 hPa 0,0 l/m 5,2 km/h (1 Bft) O 81 2 min 0,254 mm 2,1 UV-I 536 W/m 11,3 C 15,5 C 8,0 km/h (2 Bft) 93,62 %
04.09.2019 10:02 15,6 C 21,1 C 19,4 C 77 % 1019,8 hPa 0,0 l/m 6,9 km/h (2 Bft) O 80 2 min 0,000 mm 2,2 UV-I 542 W/m 11,6 C 15,3 C 11,3 km/h (2 Bft) 97,87 %
04.09.2019 10:04 15,8 C 21,1 C 20,0 C 77 % 1019,8 hPa 0,0 l/m 6,8 km/h (2 Bft) O-NO 76 2 min 0,000 mm 2,2 UV-I 547 W/m 11,8 C 15,6 C 11,3 km/h (2 Bft) 96,23 %
04.09.2019 10:06 15,9 C 21,1 C 21,7 C 75 % 1019,8 hPa 0,0 l/m 4,3 km/h (1 Bft) O-NO 62 2 min 0,000 mm 2,2 UV-I 550 W/m 11,5 C 15,9 C 6,4 km/h (2 Bft) 97,37 %
04.09.2019 10:08 16,0 C 21,1 C 23,3 C 75 % 1019,8 hPa 0,0 l/m 3,3 km/h (1 Bft) NO 40 2 min 0,000 mm 2,3 UV-I 555 W/m 11,6 C 16,0 C 6,4 km/h (2 Bft) 97,92 %
04.09.2019 10:10 16,1 C 21,1 C 24,4 C 76 % 1019,8 hPa 0,0 l/m 4,7 km/h (1 Bft) O 84 2 min 0,000 mm 2,3 UV-I 559 W/m 11,9 C 16,1 C 8,0 km/h (2 Bft) 98,08 %
04.09.2019 10:12 16,2 C 21,1 C 25,6 C 72 % 1019,7 hPa 0,0 l/m 7,4 km/h (2 Bft) O 94 2 min 0,000 mm 2,4 UV-I 564 W/m 11,1 C 15,7 C 11,3 km/h (2 Bft) 97,44 %
04.09.2019 10:14 16,2 C 21,1 C 27,2 C 73 % 1019,7 hPa 0,0 l/m 5,8 km/h (2 Bft) O-NO 75 2 min 0,000 mm 2,4 UV-I 569 W/m 11,4 C 16,2 C 11,3 km/h (2 Bft) 100,00 %
04.09.2019 10:16 16,3 C 21,1 C 28,3 C 75 % 1019,7 hPa 0,0 l/m 4,2 km/h (1 Bft) O-SO 119 2 min 0,000 mm 2,5 UV-I 573 W/m 11,9 C 16,3 C 6,4 km/h (2 Bft) 100,00 %
04.09.2019 10:18 16,3 C 21,1 C 29,4 C 73 % 1019,7 hPa 0,0 l/m 2,5 km/h (1 Bft) O-SO 121 2 min 0,000 mm 2,5 UV-I 577 W/m 11,4 C 16,3 C 4,8 km/h (1 Bft) 98,00 %
04.09.2019 10:20 16,5 C 21,1 C 30,6 C 73 % 1019,7 hPa 0,0 l/m 4,2 km/h (1 Bft) NO 55 2 min 0,000 mm 2,6 UV-I 582 W/m 11,6 C 16,5 C 9,7 km/h (2 Bft) 98,00 %
04.09.2019 10:22 16,6 C 21,1 C 30,6 C 73 % 1019,6 hPa 0,0 l/m 6,2 km/h (2 Bft) O-NO 74 2 min 0,000 mm 2,7 UV-I 585 W/m 11,7 C 16,6 C 12,9 km/h (3 Bft) 97,87 %
04.09.2019 10:24 16,6 C 21,1 C 30,6 C 73 % 1019,6 hPa 0,0 l/m 6,2 km/h (2 Bft) NO 42 2 min 0,000 mm 2,7 UV-I 590 W/m 11,7 C 16,6 C 12,9 km/h (3 Bft) 97,56 %
04.09.2019 10:26 16,7 C 21,1 C 31,1 C 71 % 1019,6 hPa 0,0 l/m 6,4 km/h (2 Bft) O-NO 76 2 min 0,000 mm 2,7 UV-I 593 W/m 11,4 C 16,7 C 12,9 km/h (3 Bft) 97,37 %
04.09.2019 10:28 16,8 C 21,1 C 32,2 C 74 % 1019,5 hPa 0,0 l/m 4,2 km/h (1 Bft) NO 51 2 min 0,000 mm 2,8 UV-I 598 W/m 12,1 C 16,8 C 6,4 km/h (2 Bft) 98,21 %
04.09.2019 10:30 16,9 C 21,1 C 30,6 C 73 % 1019,6 hPa 0,0 l/m 7,1 km/h (2 Bft) O 83 2 min 0,000 mm 2,8 UV-I 601 W/m 12,0 C 16,5 C 12,9 km/h (3 Bft) 97,56 %
04.09.2019 10:32 17,0 C 21,1 C 31,1 C 71 % 1019,6 hPa 0,0 l/m 7,3 km/h (2 Bft) N-NO 28 2 min 0,000 mm 2,9 UV-I 606 W/m 11,7 C 16,5 C 11,3 km/h (2 Bft) 97,87 %
04.09.2019 10:34 17,2 C 21,1 C 30,6 C 74 % 1019,6 hPa 0,0 l/m 6,5 km/h (2 Bft) O-NO 71 2 min 0,000 mm 2,9 UV-I 608 W/m 12,5 C 17,2 C 11,3 km/h (2 Bft) 94,00 %
04.09.2019 10:36 17,2 C 21,1 C 30,6 C 72 % 1019,5 hPa 0,0 l/m 6,1 km/h (2 Bft) O-NO 69 2 min 0,000 mm 2,9 UV-I 611 W/m 12,1 C 17,2 C 8,0 km/h (2 Bft) 98,11 %
04.09.2019 10:38 17,2 C 21,1 C 31,1 C 71 % 1019,5 hPa 0,0 l/m 7,6 km/h (2 Bft) O-NO 73 2 min 0,000 mm 3,0 UV-I 615 W/m 11,9 C 16,6 C 11,3 km/h (2 Bft) 96,55 %
04.09.2019 10:40 17,2 C 21,1 C 31,1 C 70 % 1019,4 hPa 0,0 l/m 7,9 km/h (2 Bft) O 85 2 min 0,000 mm 3,0 UV-I 621 W/m 11,7 C 16,5 C 12,9 km/h (3 Bft) 98,39 %
04.09.2019 10:42 17,3 C 21,1 C 31,7 C 70 % 1019,4 hPa 0,0 l/m 7,5 km/h (2 Bft) O 83 2 min 0,000 mm 3,1 UV-I 625 W/m 11,8 C 16,8 C 14,5 km/h (3 Bft) 95,83 %
04.09.2019 10:44 17,3 C 21,1 C 32,2 C 69 % 1019,4 hPa 0,0 l/m 6,1 km/h (2 Bft) O-SO 106 2 min 0,000 mm 3,1 UV-I 628 W/m 11,6 C 17,3 C 9,7 km/h (2 Bft) 97,01 %
04.09.2019 10:46 17,4 C 21,1 C 32,2 C 70 % 1019,4 hPa 0,0 l/m 6,4 km/h (2 Bft) O-SO 117 2 min 0,000 mm 3,1 UV-I 633 W/m 11,9 C 17,4 C 11,3 km/h (2 Bft) 97,87 %
04.09.2019 10:48 17,6 C 21,1 C 32,8 C 71 % 1019,4 hPa 0,0 l/m 9,6 km/h (2 Bft) O-SO 107 2 min 0,000 mm 3,2 UV-I 635 W/m 12,3 C 16,1 C 14,5 km/h (3 Bft) 100,00 %
04.09.2019 10:50 17,7 C 21,1 C 32,8 C 72 % 1019,4 hPa 0,0 l/m 6,9 km/h (2 Bft) O-NO 74 2 min 0,000 mm 3,2 UV-I 639 W/m 12,6 C 17,5 C 11,3 km/h (2 Bft) 98,11 %
04.09.2019 10:52 17,6 C 21,1 C 33,3 C 68 % 1019,3 hPa 0,0 l/m 5,2 km/h (1 Bft) O-NO 68 2 min 0,000 mm 3,3 UV-I 642 W/m 11,6 C 17,6 C 8,0 km/h (2 Bft) 100,00 %
04.09.2019 10:54 17,8 C 21,7 C 33,3 C 71 % 1019,3 hPa 0,0 l/m 6,4 km/h (2 Bft) O 97 2 min 0,000 mm 3,3 UV-I 646 W/m 12,5 C 17,8 C 12,9 km/h (3 Bft) 97,56 %
04.09.2019 10:56 17,7 C 21,1 C 33,3 C 68 % 1019,2 hPa 0,0 l/m 5,3 km/h (1 Bft) O 80 2 min 0,000 mm 3,3 UV-I 649 W/m 11,7 C 17,7 C 9,7 km/h (2 Bft) 100,00 %
04.09.2019 10:58 17,7 C 21,1 C 33,9 C 70 % 1019,1 hPa 0,0 l/m 7,1 km/h (2 Bft) O 96 2 min 0,000 mm 3,4 UV-I 652 W/m 12,2 C 17,4 C 11,3 km/h (2 Bft) 98,11 %
04.09.2019 11:00 17,9 C 21,7 C 33,9 C 71 % 1019,0 hPa 0,0 l/m 7,8 km/h (2 Bft) O 86 2 min 0,355 mm 3,4 UV-I 657 W/m 12,6 C 17,2 C 11,3 km/h (2 Bft) 100,00 %
04.09.2019 11:02 18,0 C 21,7 C 33,9 C 69 % 1019,0 hPa 0,0 l/m 7,2 km/h (2 Bft) O 98 2 min 0,000 mm 3,5 UV-I 661 W/m 12,2 C 17,6 C 11,3 km/h (2 Bft) 100,00 %
04.09.2019 11:04 18,0 C 21,7 C 33,9 C 70 % 1019,1 hPa 0,0 l/m 7,2 km/h (2 Bft) O-NO 65 2 min 0,000 mm 3,5 UV-I 663 W/m 12,4 C 17,6 C 12,9 km/h (3 Bft) 100,00 %
04.09.2019 11:06 18,1 C 21,7 C 33,9 C 68 % 1019,1 hPa 0,0 l/m 7,0 km/h (2 Bft) O 96 2 min 0,000 mm 3,5 UV-I 665 W/m 12,1 C 17,8 C 11,3 km/h (2 Bft) 100,00 %
04.09.2019 11:08 18,1 C 21,7 C 33,9 C 69 % 1019,0 hPa 0,0 l/m 7,6 km/h (2 Bft) O-NO 76 2 min 0,000 mm 3,6 UV-I 668 W/m 12,3 C 17,5 C 12,9 km/h (3 Bft) 97,37 %
04.09.2019 11:10 18,3 C 21,7 C 33,3 C 68 % 1019,1 hPa 0,0 l/m 8,6 km/h (2 Bft) NO 38 2 min 0,000 mm 3,6 UV-I 672 W/m 12,3 C 17,3 C 11,3 km/h (2 Bft) 100,00 %
04.09.2019 11:12 18,4 C 21,7 C 33,9 C 69 % 1019,0 hPa 0,0 l/m 5,8 km/h (2 Bft) O-NO 61 2 min 0,000 mm 3,6 UV-I 675 W/m 12,6 C 18,4 C 11,3 km/h (2 Bft) 97,56 %
04.09.2019 11:14 18,6 C 21,7 C 34,4 C 67 % 1019,0 hPa 0,0 l/m 6,0 km/h (2 Bft) SO 124 2 min 0,000 mm 3,7 UV-I 676 W/m 12,3 C 18,6 C 9,7 km/h (2 Bft) 100,00 %
04.09.2019 11:16 18,7 C 21,7 C 35,0 C 69 % 1018,9 hPa 0,0 l/m 5,0 km/h (1 Bft) O-NO 73 2 min 0,000 mm 3,7 UV-I 682 W/m 12,9 C 18,7 C 16,1 km/h (3 Bft) 100,00 %
04.09.2019 11:18 18,9 C 21,7 C 34,4 C 68 % 1018,9 hPa 0,0 l/m 8,1 km/h (2 Bft) O-NO 57 2 min 0,000 mm 3,8 UV-I 684 W/m 12,9 C 18,2 C 14,5 km/h (3 Bft) 98,21 %
04.09.2019 11:20 18,9 C 21,7 C 35,0 C 68 % 1018,9 hPa 0,0 l/m 8,5 km/h (2 Bft) O-NO 61 2 min 0,000 mm 3,8 UV-I 687 W/m 12,9 C 18,0 C 17,7 km/h (3 Bft) 100,00 %
04.09.2019 11:22 19,1 C 21,7 C 34,4 C 65 % 1018,9 hPa 0,0 l/m 10,2 km/h (2 Bft) O-SO 108 2 min 0,000 mm 3,8 UV-I 689 W/m 12,4 C 17,6 C 14,5 km/h (3 Bft) 98,11 %
04.09.2019 11:24 19,0 C 21,7 C 33,9 C 64 % 1018,8 hPa 0,0 l/m 10,1 km/h (2 Bft) O-NO 67 2 min 0,000 mm 3,9 UV-I 693 W/m 12,0 C 17,5 C 16,1 km/h (3 Bft) 98,00 %
04.09.2019 11:26 19,0 C 21,7 C 34,4 C 64 % 1018,8 hPa 0,0 l/m 9,3 km/h (2 Bft) O 79 2 min 0,000 mm 3,9 UV-I 695 W/m 12,0 C 17,8 C 12,9 km/h (3 Bft) 97,87 %
04.09.2019 11:28 19,1 C 21,7 C 34,4 C 65 % 1018,8 hPa 0,0 l/m 9,2 km/h (2 Bft) O-NO 78 2 min 0,000 mm 3,9 UV-I 698 W/m 12,4 C 17,9 C 12,9 km/h (3 Bft) 97,62 %
04.09.2019 11:30 19,0 C 21,7 C 34,4 C 65 % 1018,8 hPa 0,0 l/m 6,2 km/h (2 Bft) O 101 2 min 0,000 mm 4,0 UV-I 700 W/m 12,3 C 19,0 C 11,3 km/h (2 Bft) 98,00 %
04.09.2019 11:32 19,1 C 21,7 C 35,0 C 65 % 1018,7 hPa 0,0 l/m 4,5 km/h (1 Bft) O 101 2 min 0,000 mm 4,0 UV-I 703 W/m 12,4 C 19,1 C 9,7 km/h (2 Bft) 97,56 %
04.09.2019 11:34 19,3 C 21,7 C 35,0 C 65 % 1018,7 hPa 0,0 l/m 6,3 km/h (2 Bft) O-NO 64 2 min 0,000 mm 4,0 UV-I 707 W/m 12,6 C 19,3 C 12,9 km/h (3 Bft) 96,23 %
04.09.2019 11:36 19,4 C 21,7 C 35,0 C 65 % 1018,6 hPa 0,0 l/m 9,3 km/h (2 Bft) O-NO 75 2 min 0,000 mm 4,1 UV-I 708 W/m 12,6 C 18,2 C 14,5 km/h (3 Bft) 97,87 %
04.09.2019 11:38 19,5 C 21,7 C 35,0 C 63 % 1018,6 hPa 0,0 l/m 10,3 km/h (2 Bft) O-NO 76 2 min 0,000 mm 4,1 UV-I 711 W/m 12,3 C 18,0 C 17,7 km/h (3 Bft) 97,56 %
04.09.2019 11:40 19,5 C 21,7 C 35,0 C 63 % 1018,5 hPa 0,0 l/m 12,6 km/h (3 Bft) O 90 2 min 0,000 mm 4,1 UV-I 714 W/m 12,3 C 17,3 C 16,1 km/h (3 Bft) 98,00 %
04.09.2019 11:42 19,6 C 21,7 C 35,0 C 64 % 1018,5 hPa 0,0 l/m 10,8 km/h (2 Bft) O 96 2 min 0,000 mm 4,1 UV-I 715 W/m 12,6 C 17,9 C 16,1 km/h (3 Bft) 97,73 %
04.09.2019 11:44 19,7 C 21,7 C 35,6 C 64 % 1018,5 hPa 0,0 l/m 9,7 km/h (2 Bft) O-NO 59 2 min 0,000 mm 4,2 UV-I 717 W/m 12,7 C 18,4 C 14,5 km/h (3 Bft) 97,56 %
04.09.2019 11:46 19,7 C 21,7 C 34,4 C 63 % 1018,4 hPa 0,0 l/m 9,9 km/h (2 Bft) O-NO 63 2 min 0,000 mm 4,2 UV-I 719 W/m 12,5 C 18,3 C 19,3 km/h (3 Bft) 98,21 %
04.09.2019 11:48 19,7 C 21,7 C 33,3 C 64 % 1018,4 hPa 0,0 l/m 10,9 km/h (2 Bft) O-NO 67 2 min 0,000 mm 4,2 UV-I 720 W/m 12,7 C 18,0 C 17,7 km/h (3 Bft) 98,00 %
04.09.2019 11:50 19,7 C 21,7 C 33,3 C 61 % 1018,4 hPa 0,0 l/m 13,2 km/h (3 Bft) O-NO 60 2 min 0,000 mm 4,2 UV-I 723 W/m 12,0 C 17,3 C 17,7 km/h (3 Bft) 95,74 %
04.09.2019 11:52 19,7 C 21,7 C 33,9 C 59 % 1018,4 hPa 0,0 l/m 12,7 km/h (3 Bft) O-NO 68 2 min 0,000 mm 4,3 UV-I 725 W/m 11,5 C 17,5 C 19,3 km/h (3 Bft) 97,37 %
04.09.2019 11:54 19,7 C 21,7 C 33,3 C 61 % 1018,4 hPa 0,0 l/m 10,4 km/h (2 Bft) O-NO 63 2 min 0,000 mm 4,3 UV-I 727 W/m 12,0 C 18,2 C 16,1 km/h (3 Bft) 98,21 %
04.09.2019 11:56 19,8 C 21,7 C 34,4 C 63 % 1018,3 hPa 0,0 l/m 7,8 km/h (2 Bft) O-NO 69 2 min 0,000 mm 4,3 UV-I 728 W/m 12,5 C 19,2 C 12,9 km/h (3 Bft) 94,74 %
04.09.2019 11:58 20,1 C 21,7 C 34,4 C 66 % 1018,2 hPa 0,0 l/m 12,3 km/h (3 Bft) O-NO 71 2 min 0,000 mm 4,3 UV-I 728 W/m 13,5 C 18,1 C 19,3 km/h (3 Bft) 98,21 %
04.09.2019 12:00 20,1 C 21,7 C 33,3 C 62 % 1018,3 hPa 0,0 l/m 11,1 km/h (2 Bft) O-NO 77 2 min 0,000 mm 4,3 UV-I 730 W/m 12,6 C 18,4 C 16,1 km/h (3 Bft) 94,74 %
04.09.2019 12:02 20,2 C 21,7 C 33,9 C 62 % 1018,2 hPa 0,0 l/m 11,3 km/h (2 Bft) O-NO 59 2 min 0,432 mm 4,4 UV-I 733 W/m 12,7 C 18,5 C 16,1 km/h (3 Bft) 94,64 %
04.09.2019 12:04 20,2 C 21,7 C 33,9 C 61 % 1018,2 hPa 0,0 l/m 11,5 km/h (2 Bft) O-NO 61 2 min 0,000 mm 4,4 UV-I 734 W/m 12,4 C 18,4 C 14,5 km/h (3 Bft) 97,22 %
04.09.2019 12:06 20,2 C 21,7 C 33,9 C 63 % 1018,1 hPa 0,0 l/m 12,9 km/h (3 Bft) O-NO 63 2 min 0,000 mm 4,4 UV-I 736 W/m 12,9 C 18,0 C 17,7 km/h (3 Bft) 98,00 %
04.09.2019 12:08 20,3 C 21,7 C 33,9 C 59 % 1018,2 hPa 0,0 l/m 11,1 km/h (2 Bft) O-SO 105 2 min 0,000 mm 4,4 UV-I 737 W/m 12,0 C 18,6 C 19,3 km/h (3 Bft) 96,23 %
04.09.2019 12:10 20,3 C 21,7 C 34,4 C 59 % 1018,0 hPa 0,0 l/m 12,3 km/h (3 Bft) O-NO 69 2 min 0,000 mm 4,5 UV-I 738 W/m 12,0 C 18,3 C 20,9 km/h (4 Bft) 97,37 %
04.09.2019 12:12 20,2 C 21,7 C 35,0 C 59 % 1018,0 hPa 0,0 l/m 13,5 km/h (3 Bft) O 95 2 min 0,000 mm 4,5 UV-I 740 W/m 11,9 C 17,9 C 17,7 km/h (3 Bft) 98,21 %
04.09.2019 12:14 20,2 C 21,7 C 35,0 C 61 % 1018,0 hPa 0,0 l/m 9,9 km/h (2 Bft) O 82 2 min 0,000 mm 4,5 UV-I 741 W/m 12,4 C 18,9 C 16,1 km/h (3 Bft) 97,56 %
04.09.2019 12:16 20,3 C 21,7 C 34,4 C 60 % 1017,9 hPa 0,0 l/m 9,9 km/h (2 Bft) O 82 2 min 0,000 mm 4,5 UV-I 742 W/m 12,3 C 19,0 C 14,5 km/h (3 Bft) 100,00 %
04.09.2019 12:18 20,3 C 21,7 C 35,0 C 59 % 1017,9 hPa 0,0 l/m 13,9 km/h (3 Bft) O-NO 73 2 min 0,000 mm 4,6 UV-I 743 W/m 12,0 C 17,9 C 17,7 km/h (3 Bft) 100,00 %
04.09.2019 12:20 20,4 C 21,7 C 35,0 C 60 % 1017,9 hPa 0,0 l/m 7,6 km/h (2 Bft) O-NO 71 2 min 0,000 mm 4,6 UV-I 744 W/m 12,4 C 19,9 C 12,9 km/h (3 Bft) 100,00 %
04.09.2019 12:22 20,6 C 21,7 C 35,0 C 60 % 1017,9 hPa 0,0 l/m 10,7 km/h (2 Bft) O-NO 60 2 min 0,000 mm 4,6 UV-I 747 W/m 12,6 C 19,1 C 17,7 km/h (3 Bft) 98,00 %
04.09.2019 12:24 20,7 C 21,7 C 35,0 C 61 % 1017,9 hPa 0,0 l/m 12,9 km/h (3 Bft) NO 49 2 min 0,000 mm 4,6 UV-I 745 W/m 12,9 C 18,6 C 17,7 km/h (3 Bft) 100,00 %
04.09.2019 12:26 20,8 C 21,7 C 35,6 C 58 % 1017,8 hPa 0,0 l/m 12,4 km/h (3 Bft) O-NO 77 2 min 0,000 mm 4,6 UV-I 746 W/m 12,2 C 18,8 C 17,7 km/h (3 Bft) 100,00 %
04.09.2019 12:28 20,7 C 21,7 C 35,0 C 61 % 1017,7 hPa 0,0 l/m 8,5 km/h (2 Bft) O-NO 59 2 min 0,000 mm 4,6 UV-I 749 W/m 12,9 C 19,9 C 9,7 km/h (2 Bft) 100,00 %
04.09.2019 12:30 20,8 C 21,7 C 34,4 C 61 % 1017,7 hPa 0,0 l/m 11,9 km/h (2 Bft) O-NO 72 2 min 0,000 mm 4,6 UV-I 749 W/m 13,0 C 19,0 C 17,7 km/h (3 Bft) 97,87 %
04.09.2019 12:32 20,8 C 21,7 C 34,4 C 59 % 1017,7 hPa 0,0 l/m 12,0 km/h (2 Bft) O-NO 59 2 min 0,000 mm 4,7 UV-I 750 W/m 12,5 C 19,0 C 17,7 km/h (3 Bft) 98,00 %
04.09.2019 12:34 20,8 C 21,7 C 34,4 C 59 % 1017,6 hPa 0,0 l/m 14,0 km/h (3 Bft) O-NO 74 2 min 0,000 mm 4,7 UV-I 749 W/m 12,5 C 18,4 C 19,3 km/h (3 Bft) 100,00 %
04.09.2019 12:36 20,8 C 21,7 C 34,4 C 58 % 1017,6 hPa 0,0 l/m 10,9 km/h (2 Bft) O 79 2 min 0,000 mm 4,7 UV-I 751 W/m 12,2 C 19,3 C 16,1 km/h (3 Bft) 97,87 %
04.09.2019 12:38 20,8 C 21,7 C 34,4 C 59 % 1017,6 hPa 0,0 l/m 12,7 km/h (3 Bft) O 92 2 min 0,000 mm 4,7 UV-I 752 W/m 12,5 C 18,8 C 16,1 km/h (3 Bft) 100,00 %
04.09.2019 12:40 20,8 C 21,7 C 35,0 C 58 % 1017,5 hPa 0,0 l/m 12,6 km/h (3 Bft) O-NO 76 2 min 0,000 mm 4,7 UV-I 753 W/m 12,2 C 18,8 C 17,7 km/h (3 Bft) 100,00 %
04.09.2019 12:42 20,8 C 21,7 C 35,0 C 60 % 1017,5 hPa 0,0 l/m 12,4 km/h (3 Bft) O 99 2 min 0,000 mm 4,7 UV-I 755 W/m 12,7 C 18,8 C 17,7 km/h (3 Bft) 100,00 %
04.09.2019 12:44 21,0 C 21,7 C 35,6 C 62 % 1017,5 hPa 0,0 l/m 10,2 km/h (2 Bft) O-NO 67 2 min 0,000 mm 4,7 UV-I 755 W/m 13,4 C 19,7 C 17,7 km/h (3 Bft) 100,00 %
04.09.2019 12:46 21,2 C 21,7 C 35,6 C 58 % 1017,4 hPa 0,0 l/m 13,6 km/h (3 Bft) O-NO 67 2 min 0,000 mm 4,7 UV-I 753 W/m 12,6 C 19,0 C 19,3 km/h (3 Bft) 98,21 %
04.09.2019 12:48 21,1 C 21,7 C 34,4 C 57 % 1017,4 hPa 0,0 l/m 9,7 km/h (2 Bft) O-NO 67 2 min 0,000 mm 4,7 UV-I 753 W/m 12,2 C 19,9 C 16,1 km/h (3 Bft) 97,87 %
04.09.2019 12:50 21,0 C 21,7 C 35,0 C 59 % 1017,3 hPa 0,0 l/m 11,8 km/h (2 Bft) O-NO 57 2 min 0,000 mm 4,7 UV-I 756 W/m 12,7 C 19,2 C 17,7 km/h (3 Bft) 97,87 %
04.09.2019 12:52 21,1 C 21,7 C 35,6 C 59 % 1017,3 hPa 0,0 l/m 6,0 km/h (2 Bft) O-NO 64 2 min 0,000 mm 4,8 UV-I 756 W/m 12,8 C 21,1 C 17,7 km/h (3 Bft) 97,37 %
04.09.2019 12:54 21,2 C 21,7 C 35,6 C 57 % 1017,3 hPa 0,0 l/m 11,3 km/h (2 Bft) O-NO 67 2 min 0,000 mm 4,5 UV-I 754 W/m 12,3 C 19,6 C 19,3 km/h (3 Bft) 95,45 %
04.09.2019 12:56 21,2 C 21,7 C 35,0 C 58 % 1017,3 hPa 0,0 l/m 13,3 km/h (3 Bft) O 86 2 min 0,000 mm 3,0 UV-I 755 W/m 12,6 C 19,1 C 19,3 km/h (3 Bft) 98,11 %
04.09.2019 12:58 21,3 C 21,7 C 35,0 C 57 % 1017,2 hPa 0,0 l/m 14,4 km/h (3 Bft) NO 39 2 min 0,000 mm 3,9 UV-I 755 W/m 12,4 C 19,0 C 17,7 km/h (3 Bft) 95,45 %
04.09.2019 13:00 21,3 C 21,7 C 35,0 C 56 % 1017,2 hPa 0,0 l/m 9,9 km/h (2 Bft) O-NO 77 2 min 0,508 mm 4,8 UV-I 756 W/m 12,2 C 20,1 C 14,5 km/h (3 Bft) 94,00 %
04.09.2019 13:02 21,3 C 21,7 C 35,6 C 60 % 1017,2 hPa 0,0 l/m 8,2 km/h (2 Bft) O 98 2 min 0,000 mm 4,8 UV-I 758 W/m 13,2 C 20,6 C 14,5 km/h (3 Bft) 97,87 %
04.09.2019 13:04 21,4 C 21,7 C 35,0 C 56 % 1017,2 hPa 0,0 l/m 12,9 km/h (3 Bft) O 80 2 min 0,000 mm 4,8 UV-I 755 W/m 12,3 C 19,4 C 19,3 km/h (3 Bft) 96,00 %
04.09.2019 13:06 21,4 C 21,7 C 35,0 C 56 % 1017,2 hPa 0,0 l/m 13,4 km/h (3 Bft) O-NO 68 2 min 0,000 mm 4,8 UV-I 758 W/m 12,3 C 19,3 C 19,3 km/h (3 Bft) 98,00 %
04.09.2019 13:08 21,4 C 21,7 C 35,0 C 58 % 1017,2 hPa 0,0 l/m 8,3 km/h (2 Bft) O 95 2 min 0,000 mm 4,8 UV-I 758 W/m 12,8 C 20,7 C 14,5 km/h (3 Bft) 97,56 %
04.09.2019 13:10 21,5 C 22,2 C 35,6 C 59 % 1017,1 hPa 0,0 l/m 9,7 km/h (2 Bft) O-NO 66 2 min 0,000 mm 4,8 UV-I 754 W/m 13,1 C 20,4 C 14,5 km/h (3 Bft) 96,00 %
04.09.2019 13:12 21,6 C 22,2 C 33,9 C 60 % 1017,1 hPa 0,0 l/m 11,5 km/h (2 Bft) O-NO 59 2 min 0,000 mm 3,7 UV-I 756 W/m 13,5 C 20,0 C 19,3 km/h (3 Bft) 94,29 %
04.09.2019 13:14 21,6 C 22,2 C 33,3 C 57 % 1017,1 hPa 0,0 l/m 14,0 km/h (3 Bft) O-NO 68 2 min 0,000 mm 4,8 UV-I 755 W/m 12,7 C 19,4 C 17,7 km/h (3 Bft) 95,56 %
04.09.2019 13:16 21,6 C 22,2 C 33,9 C 59 % 1017,1 hPa 0,0 l/m 11,9 km/h (2 Bft) O-NO 69 2 min 0,000 mm 4,7 UV-I 753 W/m 13,2 C 19,9 C 14,5 km/h (3 Bft) 96,36 %
04.09.2019 13:18 21,6 C 22,2 C 34,4 C 58 % 1017,0 hPa 0,0 l/m 11,5 km/h (2 Bft) O-SO 107 2 min 0,000 mm 4,7 UV-I 752 W/m 13,0 C 20,0 C 16,1 km/h (3 Bft) 94,34 %
04.09.2019 13:20 21,7 C 22,2 C 35,0 C 57 % 1017,0 hPa 0,0 l/m 12,3 km/h (3 Bft) NO 44 2 min 0,000 mm 4,7 UV-I 751 W/m 12,8 C 19,9 C 19,3 km/h (3 Bft) 95,24 %
04.09.2019 13:22 21,8 C 22,2 C 35,6 C 58 % 1017,0 hPa 0,0 l/m 11,4 km/h (2 Bft) O-NO 78 2 min 0,000 mm 4,7 UV-I 753 W/m 13,2 C 20,3 C 16,1 km/h (3 Bft) 94,74 %
04.09.2019 13:24 21,9 C 22,2 C 35,0 C 58 % 1017,0 hPa 0,0 l/m 11,0 km/h (2 Bft) O-NO 76 2 min 0,000 mm 4,7 UV-I 750 W/m 13,3 C 20,5 C 17,7 km/h (3 Bft) 92,45 %
04.09.2019 13:26 21,9 C 22,2 C 35,0 C 58 % 1016,9 hPa 0,0 l/m 11,5 km/h (2 Bft) O 96 2 min 0,000 mm 4,7 UV-I 748 W/m 13,3 C 20,3 C 16,1 km/h (3 Bft) 92,45 %
04.09.2019 13:28 22,1 C 22,2 C 35,6 C 56 % 1016,9 hPa 0,0 l/m 10,3 km/h (2 Bft) O 97 2 min 0,000 mm 4,7 UV-I 752 W/m 12,9 C 20,9 C 16,1 km/h (3 Bft) 91,49 %
04.09.2019 13:30 22,2 C 22,2 C 35,6 C 58 % 1016,8 hPa 0,0 l/m 9,9 km/h (2 Bft) NO 49 2 min 0,000 mm 4,7 UV-I 751 W/m 13,5 C 21,1 C 14,5 km/h (3 Bft) 93,18 %
04.09.2019 13:32 22,1 C 22,2 C 35,0 C 58 % 1016,8 hPa 0,0 l/m 5,3 km/h (1 Bft) NO 53 2 min 0,000 mm 4,7 UV-I 752 W/m 13,4 C 22,1 C 8,0 km/h (2 Bft) 94,00 %
04.09.2019 13:34 22,2 C 22,2 C 34,4 C 59 % 1016,7 hPa 0,0 l/m 13,5 km/h (3 Bft) NO 40 2 min 0,000 mm 4,7 UV-I 747 W/m 13,8 C 20,2 C 19,3 km/h (3 Bft) 93,62 %
04.09.2019 13:36 22,3 C 22,2 C 34,4 C 55 % 1016,8 hPa 0,0 l/m 10,8 km/h (2 Bft) O-SO 103 2 min 0,000 mm 4,6 UV-I 745 W/m 12,8 C 21,0 C 19,3 km/h (3 Bft) 92,11 %
04.09.2019 13:38 22,3 C 22,2 C 33,9 C 58 % 1016,7 hPa 0,0 l/m 12,4 km/h (3 Bft) NO 47 2 min 0,000 mm 4,6 UV-I 746 W/m 13,6 C 20,6 C 19,3 km/h (3 Bft) 92,00 %
04.09.2019 13:40 22,3 C 22,2 C 33,9 C 56 % 1016,7 hPa 0,0 l/m 8,5 km/h (2 Bft) O-NO 63 2 min 0,000 mm 4,6 UV-I 743 W/m 13,1 C 21,6 C 14,5 km/h (3 Bft) 96,23 %
04.09.2019 13:42 22,3 C 22,2 C 35,0 C 55 % 1016,7 hPa 0,0 l/m 7,2 km/h (2 Bft) O 93 2 min 0,000 mm 4,6 UV-I 744 W/m 12,8 C 22,0 C 11,3 km/h (2 Bft) 95,12 %
04.09.2019 13:44 22,3 C 22,2 C 35,6 C 54 % 1016,6 hPa 0,0 l/m 4,4 km/h (1 Bft) O-NO 70 2 min 0,000 mm 4,6 UV-I 740 W/m 12,5 C 22,3 C 12,9 km/h (3 Bft) 95,12 %
04.09.2019 13:46 22,4 C 22,2 C 36,1 C 55 % 1016,6 hPa 0,0 l/m 12,6 km/h (3 Bft) O-SO 103 2 min 0,000 mm 4,6 UV-I 738 W/m 12,9 C 20,7 C 19,3 km/h (3 Bft) 96,15 %
04.09.2019 13:48 22,6 C 22,2 C 36,1 C 52 % 1016,6 hPa 0,0 l/m 12,4 km/h (3 Bft) O 98 2 min 0,000 mm 4,6 UV-I 738 W/m 12,2 C 20,9 C 19,3 km/h (3 Bft) 96,00 %
04.09.2019 13:50 22,7 C 22,2 C 36,7 C 54 % 1016,6 hPa 0,0 l/m 7,4 km/h (2 Bft) O-NO 74 2 min 0,000 mm 4,6 UV-I 739 W/m 12,9 C 22,4 C 14,5 km/h (3 Bft) 94,00 %
04.09.2019 13:52 22,7 C 22,2 C 36,7 C 52 % 1016,6 hPa 0,0 l/m 5,8 km/h (2 Bft) O-NO 70 2 min 0,000 mm 4,5 UV-I 736 W/m 12,3 C 22,7 C 9,7 km/h (2 Bft) 97,87 %
04.09.2019 13:54 22,6 C 22,2 C 35,6 C 52 % 1016,5 hPa 0,0 l/m 8,3 km/h (2 Bft) NO 45 2 min 0,000 mm 4,5 UV-I 734 W/m 12,2 C 22,0 C 12,9 km/h (3 Bft) 97,44 %
04.09.2019 13:56 22,6 C 22,2 C 35,6 C 54 % 1016,4 hPa 0,0 l/m 4,6 km/h (1 Bft) O-NO 65 2 min 0,000 mm 4,5 UV-I 733 W/m 12,8 C 22,6 C 9,7 km/h (2 Bft) 96,36 %
04.09.2019 13:58 22,8 C 22,2 C 35,6 C 57 % 1016,4 hPa 0,0 l/m 11,0 km/h (2 Bft) O 95 2 min 0,000 mm 4,5 UV-I 730 W/m 13,8 C 21,5 C 16,1 km/h (3 Bft) 97,44 %
04.09.2019 14:00 22,9 C 22,2 C 35,6 C 54 % 1016,3 hPa 0,0 l/m 16,1 km/h (3 Bft) N-NO 28 2 min 0,508 mm 4,4 UV-I 729 W/m 13,1 C 20,6 C 22,5 km/h (4 Bft) 98,11 %
04.09.2019 14:02 22,9 C 22,2 C 35,0 C 50 % 1016,3 hPa 0,0 l/m 12,5 km/h (3 Bft) O-NO 67 2 min 0,000 mm 4,4 UV-I 728 W/m 11,9 C 21,3 C 16,1 km/h (3 Bft) 97,56 %
04.09.2019 14:04 22,9 C 22,2 C 35,0 C 53 % 1016,3 hPa 0,0 l/m 14,1 km/h (3 Bft) O-NO 61 2 min 0,000 mm 4,4 UV-I 725 W/m 12,8 C 20,9 C 22,5 km/h (4 Bft) 97,87 %
04.09.2019 14:06 22,8 C 22,2 C 34,4 C 51 % 1016,2 hPa 0,0 l/m 10,9 km/h (2 Bft) O-NO 58 2 min 0,000 mm 4,4 UV-I 723 W/m 12,1 C 21,5 C 16,1 km/h (3 Bft) 96,23 %
04.09.2019 14:08 22,7 C 22,2 C 33,9 C 53 % 1016,2 hPa 0,0 l/m 8,7 km/h (2 Bft) O-NO 59 2 min 0,000 mm 4,4 UV-I 722 W/m 12,6 C 22,0 C 16,1 km/h (3 Bft) 97,56 %
04.09.2019 14:10 22,8 C 22,2 C 35,0 C 52 % 1016,2 hPa 0,0 l/m 11,1 km/h (2 Bft) NO 51 2 min 0,000 mm 4,3 UV-I 719 W/m 12,4 C 21,5 C 19,3 km/h (3 Bft) 98,00 %
04.09.2019 14:12 22,9 C 22,2 C 34,4 C 52 % 1016,1 hPa 0,0 l/m 11,2 km/h (2 Bft) NO 40 2 min 0,000 mm 4,3 UV-I 716 W/m 12,5 C 21,6 C 17,7 km/h (3 Bft) 97,73 %
04.09.2019 14:14 22,9 C 22,2 C 33,3 C 51 % 1016,1 hPa 0,0 l/m 14,9 km/h (3 Bft) O-NO 61 2 min 0,000 mm 4,3 UV-I 715 W/m 12,2 C 20,8 C 19,3 km/h (3 Bft) 96,23 %
04.09.2019 14:16 22,8 C 22,2 C 33,3 C 51 % 1016,1 hPa 0,0 l/m 10,7 km/h (2 Bft) NO 51 2 min 0,000 mm 4,2 UV-I 715 W/m 12,1 C 21,6 C 16,1 km/h (3 Bft) 95,12 %
04.09.2019 14:18 22,8 C 22,2 C 32,8 C 52 % 1016,0 hPa 0,0 l/m 10,6 km/h (2 Bft) NO 53 2 min 0,000 mm 4,2 UV-I 712 W/m 12,4 C 21,6 C 14,5 km/h (3 Bft) 100,00 %
04.09.2019 14:20 22,8 C 22,2 C 33,3 C 50 % 1016,0 hPa 0,0 l/m 12,6 km/h (3 Bft) O-NO 64 2 min 0,000 mm 4,2 UV-I 709 W/m 11,8 C 21,1 C 16,1 km/h (3 Bft) 100,00 %
04.09.2019 14:22 22,8 C 22,2 C 32,8 C 50 % 1016,0 hPa 0,0 l/m 11,6 km/h (2 Bft) O-NO 64 2 min 0,000 mm 4,2 UV-I 708 W/m 11,8 C 21,3 C 17,7 km/h (3 Bft) 97,37 %
04.09.2019 14:24 22,9 C 22,2 C 33,3 C 53 % 1015,9 hPa 0,0 l/m 11,6 km/h (2 Bft) NO 54 2 min 0,000 mm 4,1 UV-I 705 W/m 12,8 C 21,5 C 17,7 km/h (3 Bft) 100,00 %
04.09.2019 14:26 22,9 C 22,2 C 32,2 C 53 % 1015,9 hPa 0,0 l/m 13,2 km/h (3 Bft) O-NO 62 2 min 0,000 mm 4,1 UV-I 701 W/m 12,8 C 21,1 C 19,3 km/h (3 Bft) 100,00 %
04.09.2019 14:28 22,9 C 22,2 C 31,7 C 51 % 1015,9 hPa 0,0 l/m 10,6 km/h (2 Bft) NO 46 2 min 0,000 mm 4,1 UV-I 700 W/m 12,2 C 21,7 C 16,1 km/h (3 Bft) 100,00 %
04.09.2019 14:30 22,8 C 22,2 C 32,2 C 51 % 1015,8 hPa 0,0 l/m 9,4 km/h (2 Bft) NO 36 2 min 0,000 mm 4,0 UV-I 696 W/m 12,1 C 21,9 C 14,5 km/h (3 Bft) 100,00 %
04.09.2019 14:32 22,9 C 22,2 C 32,8 C 50 % 1015,8 hPa 0,0 l/m 12,4 km/h (3 Bft) O-NO 69 2 min 0,000 mm 4,0 UV-I 693 W/m 11,9 C 21,3 C 17,7 km/h (3 Bft) 100,00 %
04.09.2019 14:34 23,1 C 22,2 C 33,9 C 51 % 1015,7 hPa 0,0 l/m 10,5 km/h (2 Bft) O-NO 59 2 min 0,000 mm 4,0 UV-I 693 W/m 12,4 C 21,9 C 17,7 km/h (3 Bft) 100,00 %
04.09.2019 14:36 23,2 C 22,2 C 33,9 C 49 % 1015,7 hPa 0,0 l/m 12,0 km/h (2 Bft) O-NO 73 2 min 0,000 mm 4,0 UV-I 691 W/m 11,9 C 21,7 C 16,1 km/h (3 Bft) 100,00 %
04.09.2019 14:38 23,2 C 22,2 C 34,4 C 48 % 1015,7 hPa 0,0 l/m 7,9 km/h (2 Bft) O 86 2 min 0,000 mm 3,9 UV-I 688 W/m 11,6 C 22,7 C 11,3 km/h (2 Bft) 100,00 %
04.09.2019 14:40 23,3 C 22,2 C 34,4 C 52 % 1015,6 hPa 0,0 l/m 11,6 km/h (2 Bft) NO 55 2 min 0,000 mm 3,9 UV-I 684 W/m 12,9 C 21,9 C 17,7 km/h (3 Bft) 100,00 %
04.09.2019 14:42 23,3 C 22,2 C 34,4 C 51 % 1015,6 hPa 0,0 l/m 9,5 km/h (2 Bft) NO 47 2 min 0,000 mm 3,9 UV-I 680 W/m 12,6 C 22,4 C 17,7 km/h (3 Bft) 100,00 %
04.09.2019 14:44 23,4 C 22,2 C 34,4 C 50 % 1015,6 hPa 0,0 l/m 10,8 km/h (2 Bft) NO 49 2 min 0,000 mm 3,8 UV-I 680 W/m 12,4 C 22,2 C 16,1 km/h (3 Bft) 100,00 %
04.09.2019 14:46 23,3 C 22,2 C 33,3 C 49 % 1015,5 hPa 0,0 l/m 10,2 km/h (2 Bft) O-NO 68 2 min 0,000 mm 3,8 UV-I 677 W/m 12,0 C 22,2 C 14,5 km/h (3 Bft) 97,87 %
04.09.2019 14:48 23,3 C 22,2 C 32,2 C 52 % 1015,5 hPa 0,0 l/m 9,1 km/h (2 Bft) NO 36 2 min 0,000 mm 3,8 UV-I 672 W/m 12,9 C 22,5 C 12,9 km/h (3 Bft) 100,00 %
04.09.2019 14:50 23,4 C 22,2 C 32,2 C 50 % 1015,5 hPa 0,0 l/m 10,7 km/h (2 Bft) NO 53 2 min 0,000 mm 3,7 UV-I 670 W/m 12,4 C 22,2 C 17,7 km/h (3 Bft) 100,00 %
04.09.2019 14:52 23,4 C 22,2 C 32,8 C 51 % 1015,5 hPa 0,0 l/m 8,9 km/h (2 Bft) NO 53 2 min 0,000 mm 3,7 UV-I 666 W/m 12,7 C 22,7 C 16,1 km/h (3 Bft) 100,00 %
04.09.2019 14:54 23,5 C 22,2 C 32,8 C 51 % 1015,4 hPa 0,0 l/m 13,0 km/h (3 Bft) NO 55 2 min 0,000 mm 3,6 UV-I 663 W/m 12,8 C 21,9 C 17,7 km/h (3 Bft) 98,21 %
04.09.2019 14:56 23,5 C 22,2 C 33,3 C 49 % 1015,4 hPa 0,0 l/m 12,4 km/h (3 Bft) O-NO 60 2 min 0,000 mm 3,6 UV-I 660 W/m 12,2 C 22,0 C 19,3 km/h (3 Bft) 97,37 %
04.09.2019 14:58 23,6 C 22,2 C 33,9 C 44 % 1015,4 hPa 0,0 l/m 12,3 km/h (3 Bft) O 86 2 min 0,000 mm 3,6 UV-I 658 W/m 10,6 C 22,1 C 17,7 km/h (3 Bft) 98,21 %
04.09.2019 15:00 23,6 C 22,2 C 34,4 C 43 % 1015,3 hPa 0,0 l/m 10,7 km/h (2 Bft) O 94 2 min 0,508 mm 3,6 UV-I 657 W/m 10,3 C 22,5 C 16,1 km/h (3 Bft) 97,37 %
04.09.2019 15:02 23,6 C 22,2 C 35,0 C 44 % 1015,3 hPa 0,0 l/m 11,4 km/h (2 Bft) O-NO 63 2 min 0,000 mm 3,5 UV-I 655 W/m 10,6 C 22,3 C 16,1 km/h (3 Bft) 96,23 %
04.09.2019 15:04 23,6 C 22,2 C 35,6 C 45 % 1015,3 hPa 0,0 l/m 11,0 km/h (2 Bft) NO 53 2 min 0,000 mm 3,5 UV-I 652 W/m 11,0 C 22,4 C 17,7 km/h (3 Bft) 95,74 %
04.09.2019 15:06 23,7 C 22,2 C 35,6 C 47 % 1015,3 hPa 0,0 l/m 8,5 km/h (2 Bft) SO 129 2 min 0,000 mm 3,4 UV-I 648 W/m 11,7 C 23,1 C 14,5 km/h (3 Bft) 95,45 %
04.09.2019 15:08 23,7 C 22,2 C 36,1 C 46 % 1015,2 hPa 0,0 l/m 6,2 km/h (2 Bft) O-SO 121 2 min 0,000 mm 3,4 UV-I 644 W/m 11,4 C 23,7 C 9,7 km/h (2 Bft) 94,87 %
04.09.2019 15:10 23,8 C 22,2 C 36,1 C 48 % 1015,2 hPa 0,0 l/m 6,6 km/h (2 Bft) O 81 2 min 0,000 mm 3,4 UV-I 640 W/m 12,1 C 23,7 C 11,3 km/h (2 Bft) 96,23 %
04.09.2019 15:12 23,9 C 22,2 C 36,1 C 50 % 1015,1 hPa 0,0 l/m 7,2 km/h (2 Bft) O-SO 109 2 min 0,000 mm 3,3 UV-I 638 W/m 12,8 C 23,7 C 14,5 km/h (3 Bft) 96,00 %
04.09.2019 15:14 23,9 C 22,2 C 35,6 C 48 % 1015,1 hPa 0,0 l/m 7,5 km/h (2 Bft) NO 44 2 min 0,000 mm 3,3 UV-I 631 W/m 12,2 C 23,6 C 16,1 km/h (3 Bft) 95,12 %
04.09.2019 15:16 23,9 C 22,2 C 33,9 C 50 % 1015,0 hPa 0,0 l/m 11,1 km/h (2 Bft) NO 47 2 min 0,000 mm 3,2 UV-I 627 W/m 12,8 C 22,7 C 16,1 km/h (3 Bft) 96,00 %
04.09.2019 15:18 23,9 C 22,2 C 33,3 C 49 % 1015,0 hPa 0,0 l/m 11,6 km/h (2 Bft) O-NO 77 2 min 0,000 mm 3,2 UV-I 625 W/m 12,5 C 22,6 C 17,7 km/h (3 Bft) 95,74 %
04.09.2019 15:20 23,9 C 22,2 C 33,9 C 44 % 1014,9 hPa 0,0 l/m 12,8 km/h (3 Bft) O 86 2 min 0,000 mm 3,1 UV-I 621 W/m 10,9 C 22,4 C 16,1 km/h (3 Bft) 95,45 %
04.09.2019 15:22 23,8 C 22,2 C 33,9 C 45 % 1015,0 hPa 0,0 l/m 10,9 km/h (2 Bft) N-NO 25 2 min 0,000 mm 3,1 UV-I 616 W/m 11,1 C 22,6 C 16,1 km/h (3 Bft) 95,45 %
04.09.2019 15:24 23,9 C 22,2 C 35,0 C 47 % 1015,0 hPa 0,0 l/m 10,7 km/h (2 Bft) O-SO 115 2 min 0,000 mm 3,1 UV-I 613 W/m 11,9 C 22,8 C 16,1 km/h (3 Bft) 96,23 %
04.09.2019 15:26 24,1 C 22,2 C 35,0 C 42 % 1014,9 hPa 0,0 l/m 9,8 km/h (2 Bft) O 94 2 min 0,000 mm 3,0 UV-I 610 W/m 10,4 C 23,2 C 14,5 km/h (3 Bft) 95,12 %
04.09.2019 15:28 24,0 C 22,2 C 35,6 C 43 % 1014,9 hPa 0,0 l/m 4,8 km/h (1 Bft) O-NO 63 2 min 0,000 mm 3,0 UV-I 605 W/m 10,6 C 24,0 C 11,3 km/h (2 Bft) 98,21 %
04.09.2019 15:30 24,1 C 22,8 C 36,1 C 46 % 1014,8 hPa 0,0 l/m 8,0 km/h (2 Bft) O-NO 68 2 min 0,000 mm 3,0 UV-I 602 W/m 11,7 C 23,7 C 12,9 km/h (3 Bft) 97,14 %
04.09.2019 15:32 24,2 C 22,8 C 36,7 C 46 % 1014,8 hPa 0,0 l/m 7,7 km/h (2 Bft) O 101 2 min 0,000 mm 2,9 UV-I 598 W/m 11,8 C 23,8 C 14,5 km/h (3 Bft) 96,00 %
04.09.2019 15:34 24,2 C 22,8 C 35,6 C 43 % 1014,8 hPa 0,0 l/m 8,5 km/h (2 Bft) O-SO 107 2 min 0,000 mm 2,9 UV-I 594 W/m 10,8 C 23,6 C 14,5 km/h (3 Bft) 96,00 %
04.09.2019 15:36 24,2 C 22,8 C 35,0 C 45 % 1014,7 hPa 0,0 l/m 8,0 km/h (2 Bft) O-NO 71 2 min 0,000 mm 2,9 UV-I 590 W/m 11,5 C 23,8 C 14,5 km/h (3 Bft) 98,00 %
04.09.2019 15:38 24,2 C 22,8 C 32,8 C 47 % 1014,7 hPa 0,0 l/m 7,9 km/h (2 Bft) NO 45 2 min 0,000 mm 2,8 UV-I 584 W/m 12,2 C 23,8 C 14,5 km/h (3 Bft) 100,00 %
04.09.2019 15:40 24,2 C 22,8 C 31,1 C 48 % 1014,7 hPa 0,0 l/m 7,0 km/h (2 Bft) O-NO 71 2 min 0,000 mm 2,8 UV-I 580 W/m 12,5 C 24,0 C 12,9 km/h (3 Bft) 100,00 %
04.09.2019 15:42 24,2 C 22,8 C 31,7 C 47 % 1014,6 hPa 0,0 l/m 9,4 km/h (2 Bft) NO 53 2 min 0,000 mm 2,7 UV-I 576 W/m 12,2 C 23,4 C 16,1 km/h (3 Bft) 98,00 %
04.09.2019 15:44 24,2 C 22,8 C 31,7 C 47 % 1014,6 hPa 0,0 l/m 9,0 km/h (2 Bft) NO 41 2 min 0,000 mm 2,7 UV-I 571 W/m 12,2 C 23,5 C 14,5 km/h (3 Bft) 98,00 %
04.09.2019 15:46 24,2 C 22,8 C 31,7 C 47 % 1014,5 hPa 0,0 l/m 6,5 km/h (2 Bft) O-NO 69 2 min 0,000 mm 2,6 UV-I 565 W/m 12,2 C 24,2 C 11,3 km/h (2 Bft) 94,44 %
04.09.2019 15:48 24,2 C 22,8 C 31,1 C 47 % 1014,6 hPa 0,0 l/m 13,2 km/h (3 Bft) O-NO 78 2 min 0,000 mm 2,6 UV-I 561 W/m 12,2 C 22,6 C 17,7 km/h (3 Bft) 100,00 %
04.09.2019 15:50 24,2 C 22,8 C 31,1 C 47 % 1014,5 hPa 0,0 l/m 10,4 km/h (2 Bft) O-NO 72 2 min 0,000 mm 2,6 UV-I 557 W/m 12,2 C 23,2 C 16,1 km/h (3 Bft) 100,00 %
04.09.2019 15:52 24,1 C 22,8 C 31,1 C 44 % 1014,5 hPa 0,0 l/m 9,3 km/h (2 Bft) NO 37 2 min 0,000 mm 2,5 UV-I 551 W/m 11,1 C 23,3 C 16,1 km/h (3 Bft) 100,00 %
04.09.2019 15:54 24,2 C 22,8 C 31,1 C 46 % 1014,4 hPa 0,0 l/m 11,2 km/h (2 Bft) O-NO 78 2 min 0,000 mm 2,5 UV-I 548 W/m 11,8 C 23,0 C 16,1 km/h (3 Bft) 97,56 %
04.09.2019 15:56 24,2 C 22,8 C 30,0 C 45 % 1014,4 hPa 0,0 l/m 8,0 km/h (2 Bft) O-SO 117 2 min 0,000 mm 2,4 UV-I 543 W/m 11,5 C 23,8 C 12,9 km/h (3 Bft) 100,00 %
04.09.2019 15:58 24,1 C 22,8 C 30,6 C 47 % 1014,4 hPa 0,0 l/m 6,8 km/h (2 Bft) NO 39 2 min 0,000 mm 2,4 UV-I 538 W/m 12,1 C 24,0 C 14,5 km/h (3 Bft) 100,00 %
04.09.2019 16:00 24,2 C 22,8 C 30,0 C 49 % 1014,4 hPa 0,0 l/m 5,1 km/h (1 Bft) O-NO 69 2 min 0,432 mm 2,3 UV-I 533 W/m 12,8 C 24,2 C 9,7 km/h (2 Bft) 98,00 %
04.09.2019 16:02 24,2 C 22,8 C 29,4 C 47 % 1014,3 hPa 0,0 l/m 9,5 km/h (2 Bft) O-NO 61 2 min 0,000 mm 2,3 UV-I 528 W/m 12,2 C 23,4 C 16,1 km/h (3 Bft) 97,87 %
04.09.2019 16:04 24,3 C 22,8 C 28,3 C 48 % 1014,3 hPa 0,0 l/m 6,1 km/h (2 Bft) O-SO 108 2 min 0,000 mm 2,3 UV-I 523 W/m 12,6 C 24,3 C 11,3 km/h (2 Bft) 100,00 %
04.09.2019 16:06 24,3 C 22,8 C 27,8 C 50 % 1014,3 hPa 0,0 l/m 8,9 km/h (2 Bft) O 88 2 min 0,000 mm 2,2 UV-I 519 W/m 13,2 C 23,6 C 16,1 km/h (3 Bft) 100,00 %
04.09.2019 16:08 24,3 C 22,8 C 27,2 C 47 % 1014,2 hPa 0,0 l/m 8,2 km/h (2 Bft) O 80 2 min 0,000 mm 2,2 UV-I 515 W/m 12,3 C 23,8 C 14,5 km/h (3 Bft) 100,00 %
04.09.2019 16:10 24,3 C 22,8 C 27,2 C 48 % 1014,2 hPa 0,0 l/m 10,5 km/h (2 Bft) O-NO 76 2 min 0,000 mm 2,2 UV-I 509 W/m 12,6 C 23,3 C 16,1 km/h (3 Bft) 100,00 %
04.09.2019 16:12 24,3 C 22,8 C 26,7 C 48 % 1014,1 hPa 0,0 l/m 10,1 km/h (2 Bft) O-NO 67 2 min 0,000 mm 2,1 UV-I 505 W/m 12,6 C 23,4 C 16,1 km/h (3 Bft) 100,00 %
04.09.2019 16:14 24,4 C 22,8 C 26,1 C 48 % 1014,1 hPa 0,0 l/m 11,6 km/h (2 Bft) O-NO 63 2 min 0,000 mm 2,1 UV-I 500 W/m 12,7 C 23,2 C 17,7 km/h (3 Bft) 100,00 %
04.09.2019 16:16 24,3 C 22,8 C 25,6 C 47 % 1014,0 hPa 0,0 l/m 10,8 km/h (2 Bft) NO 46 2 min 0,000 mm 2,1 UV-I 494 W/m 12,3 C 23,2 C 17,7 km/h (3 Bft) 100,00 %
04.09.2019 16:18 24,3 C 22,8 C 25,0 C 48 % 1014,1 hPa 0,0 l/m 7,9 km/h (2 Bft) NO 35 2 min 0,000 mm 2,0 UV-I 490 W/m 12,6 C 23,9 C 12,9 km/h (3 Bft) 100,00 %
04.09.2019 16:20 24,3 C 22,8 C 25,0 C 51 % 1014,1 hPa 0,0 l/m 9,3 km/h (2 Bft) O 86 2 min 0,000 mm 2,0 UV-I 486 W/m 13,5 C 23,5 C 14,5 km/h (3 Bft) 100,00 %
04.09.2019 16:22 24,3 C 22,8 C 25,0 C 47 % 1014,2 hPa 0,0 l/m 7,8 km/h (2 Bft) O-SO 115 2 min 0,000 mm 1,9 UV-I 480 W/m 12,3 C 23,9 C 11,3 km/h (2 Bft) 100,00 %
04.09.2019 16:24 24,5 C 22,8 C 25,0 C 50 % 1014,1 hPa 0,0 l/m 5,5 km/h (1 Bft) O 95 2 min 0,000 mm 1,9 UV-I 474 W/m 13,4 C 24,5 C 9,7 km/h (2 Bft) 100,00 %
04.09.2019 16:26 24,6 C 22,8 C 25,0 C 49 % 1014,1 hPa 0,0 l/m 8,5 km/h (2 Bft) NO 34 2 min 0,000 mm 1,9 UV-I 468 W/m 13,2 C 24,1 C 16,1 km/h (3 Bft) 98,00 %
04.09.2019 16:28 24,5 C 22,8 C 25,0 C 49 % 1014,1 hPa 0,0 l/m 10,2 km/h (2 Bft) O-NO 67 2 min 0,000 mm 1,8 UV-I 463 W/m 13,1 C 23,6 C 14,5 km/h (3 Bft) 100,00 %
04.09.2019 16:30 24,4 C 22,8 C 24,4 C 51 % 1014,0 hPa 0,0 l/m 8,8 km/h (2 Bft) NO 49 2 min 0,000 mm 1,8 UV-I 459 W/m 13,6 C 23,8 C 12,9 km/h (3 Bft) 98,11 %
04.09.2019 16:32 24,3 C 22,8 C 24,4 C 49 % 1014,0 hPa 0,0 l/m 7,0 km/h (2 Bft) O-NO 69 2 min 0,000 mm 1,7 UV-I 453 W/m 12,9 C 24,1 C 9,7 km/h (2 Bft) 97,73 %
04.09.2019 16:34 24,4 C 22,8 C 24,4 C 48 % 1014,0 hPa 0,0 l/m 7,6 km/h (2 Bft) O 88 2 min 0,000 mm 1,7 UV-I 447 W/m 12,7 C 24,1 C 12,9 km/h (3 Bft) 97,73 %
04.09.2019 16:36 24,5 C 22,8 C 24,4 C 48 % 1013,9 hPa 0,0 l/m 8,6 km/h (2 Bft) O 98 2 min 0,000 mm 1,7 UV-I 443 W/m 12,8 C 23,9 C 12,9 km/h (3 Bft) 98,11 %
04.09.2019 16:38 24,6 C 22,8 C 24,4 C 48 % 1013,9 hPa 0,0 l/m 5,1 km/h (1 Bft) O 92 2 min 0,000 mm 1,6 UV-I 438 W/m 12,8 C 24,6 C 11,3 km/h (2 Bft) 93,10 %
04.09.2019 16:40 24,7 C 22,8 C 24,4 C 46 % 1013,9 hPa 0,0 l/m 10,8 km/h (2 Bft) O 98 2 min 0,000 mm 1,6 UV-I 432 W/m 12,3 C 23,7 C 16,1 km/h (3 Bft) 98,39 %
04.09.2019 16:42 24,7 C 22,8 C 24,4 C 49 % 1013,9 hPa 0,0 l/m 9,3 km/h (2 Bft) O-NO 60 2 min 0,000 mm 1,6 UV-I 427 W/m 13,3 C 24,0 C 14,5 km/h (3 Bft) 96,00 %
04.09.2019 16:44 24,4 C 22,8 C 23,9 C 49 % 1013,8 hPa 0,0 l/m 10,8 km/h (2 Bft) N-NO 28 2 min 0,000 mm 1,5 UV-I 423 W/m 13,0 C 23,3 C 14,5 km/h (3 Bft) 97,87 %
04.09.2019 16:46 24,3 C 22,8 C 23,9 C 48 % 1013,8 hPa 0,0 l/m 10,9 km/h (2 Bft) O-NO 63 2 min 0,000 mm 1,5 UV-I 418 W/m 12,6 C 23,2 C 14,5 km/h (3 Bft) 100,00 %
04.09.2019 16:48 24,3 C 22,8 C 23,9 C 49 % 1013,8 hPa 0,0 l/m 10,2 km/h (2 Bft) NO 53 2 min 0,000 mm 1,4 UV-I 412 W/m 12,9 C 23,3 C 14,5 km/h (3 Bft) 96,67 %
04.09.2019 16:50 24,3 C 22,8 C 23,9 C 49 % 1013,8 hPa 0,0 l/m 9,0 km/h (2 Bft) NO 49 2 min 0,000 mm 1,4 UV-I 407 W/m 12,9 C 23,6 C 14,5 km/h (3 Bft) 100,00 %
04.09.2019 16:52 24,3 C 22,8 C 23,9 C 50 % 1013,7 hPa 0,0 l/m 8,7 km/h (2 Bft) NO 41 2 min 0,000 mm 1,4 UV-I 401 W/m 13,2 C 23,7 C 14,5 km/h (3 Bft) 96,00 %
04.09.2019 16:54 24,3 C 22,8 C 23,3 C 49 % 1013,7 hPa 0,0 l/m 10,6 km/h (2 Bft) O 81 2 min 0,000 mm 1,3 UV-I 394 W/m 12,9 C 23,3 C 16,1 km/h (3 Bft) 97,56 %
04.09.2019 16:56 24,4 C 22,8 C 23,9 C 49 % 1013,7 hPa 0,0 l/m 9,1 km/h (2 Bft) NO 44 2 min 0,000 mm 1,3 UV-I 389 W/m 13,0 C 23,7 C 16,1 km/h (3 Bft) 97,87 %
04.09.2019 16:58 24,4 C 22,8 C 23,9 C 51 % 1013,7 hPa 0,0 l/m 9,0 km/h (2 Bft) O-NO 69 2 min 0,000 mm 1,3 UV-I 382 W/m 13,6 C 23,7 C 12,9 km/h (3 Bft) 100,00 %
04.09.2019 17:00 24,4 C 22,8 C 23,9 C 49 % 1013,6 hPa 0,0 l/m 7,6 km/h (2 Bft) O 87 2 min 0,000 mm 1,3 UV-I 378 W/m 13,0 C 24,1 C 11,3 km/h (2 Bft) 97,87 %
04.09.2019 17:02 24,4 C 22,8 C 23,9 C 48 % 1013,6 hPa 0,0 l/m 6,7 km/h (2 Bft) NO 44 2 min 0,355 mm 1,2 UV-I 373 W/m 12,7 C 24,3 C 9,7 km/h (2 Bft) 97,44 %
04.09.2019 17:04 24,4 C 22,8 C 23,9 C 48 % 1013,6 hPa 0,0 l/m 9,3 km/h (2 Bft) O 81 2 min 0,000 mm 1,2 UV-I 368 W/m 12,7 C 23,7 C 12,9 km/h (3 Bft) 92,45 %
04.09.2019 17:06 24,4 C 22,8 C 23,9 C 48 % 1013,6 hPa 0,0 l/m 11,1 km/h (2 Bft) O-SO 102 2 min 0,000 mm 1,2 UV-I 363 W/m 12,7 C 23,3 C 14,5 km/h (3 Bft) 98,08 %
04.09.2019 17:08 24,4 C 22,8 C 23,9 C 48 % 1013,6 hPa 0,0 l/m 9,8 km/h (2 Bft) O-NO 78 2 min 0,000 mm 1,1 UV-I 357 W/m 12,7 C 23,5 C 14,5 km/h (3 Bft) 97,44 %
04.09.2019 17:10 24,4 C 22,8 C 23,3 C 48 % 1013,6 hPa 0,0 l/m 9,6 km/h (2 Bft) O-NO 69 2 min 0,000 mm 1,1 UV-I 350 W/m 12,7 C 23,6 C 16,1 km/h (3 Bft) 95,74 %
04.09.2019 17:12 24,3 C 22,8 C 23,3 C 49 % 1013,6 hPa 0,0 l/m 10,8 km/h (2 Bft) O-NO 76 2 min 0,000 mm 1,1 UV-I 345 W/m 12,9 C 23,2 C 17,7 km/h (3 Bft) 98,00 %
04.09.2019 17:14 24,3 C 22,8 C 23,3 C 49 % 1013,6 hPa 0,0 l/m 9,4 km/h (2 Bft) O-NO 61 2 min 0,000 mm 1,0 UV-I 339 W/m 12,9 C 23,5 C 14,5 km/h (3 Bft) 97,56 %
04.09.2019 17:16 24,3 C 22,8 C 23,3 C 48 % 1013,6 hPa 0,0 l/m 8,1 km/h (2 Bft) O 86 2 min 0,000 mm 1,0 UV-I 335 W/m 12,6 C 23,8 C 12,9 km/h (3 Bft) 94,00 %
04.09.2019 17:18 24,3 C 22,8 C 23,3 C 47 % 1013,6 hPa 0,0 l/m 6,8 km/h (2 Bft) O-NO 76 2 min 0,000 mm 1,0 UV-I 328 W/m 12,3 C 24,2 C 12,9 km/h (3 Bft) 93,18 %
04.09.2019 17:20 24,4 C 22,8 C 23,3 C 50 % 1013,5 hPa 0,0 l/m 5,8 km/h (2 Bft) O-NO 73 2 min 0,000 mm 1,0 UV-I 323 W/m 13,3 C 24,4 C 11,3 km/h (2 Bft) 97,87 %
04.09.2019 17:22 24,4 C 22,8 C 23,3 C 49 % 1013,5 hPa 0,0 l/m 6,0 km/h (2 Bft) O 86 2 min 0,000 mm 0,9 UV-I 316 W/m 13,0 C 24,4 C 11,3 km/h (2 Bft) 96,23 %
04.09.2019 17:24 24,4 C 22,8 C 22,8 C 48 % 1013,5 hPa 0,0 l/m 6,3 km/h (2 Bft) O 86 2 min 0,000 mm 0,9 UV-I 310 W/m 12,7 C 24,4 C 9,7 km/h (2 Bft) 97,73 %
04.09.2019 17:26 24,4 C 22,8 C 22,8 C 50 % 1013,5 hPa 0,0 l/m 6,4 km/h (2 Bft) NO 44 2 min 0,000 mm 0,9 UV-I 305 W/m 13,3 C 24,4 C 9,7 km/h (2 Bft) 98,11 %
04.09.2019 17:28 24,4 C 22,8 C 22,8 C 50 % 1013,5 hPa 0,0 l/m 6,7 km/h (2 Bft) O-NO 59 2 min 0,000 mm 0,8 UV-I 300 W/m 13,3 C 24,3 C 12,9 km/h (3 Bft) 97,87 %
04.09.2019 17:30 24,3 C 22,8 C 22,8 C 50 % 1013,5 hPa 0,0 l/m 8,6 km/h (2 Bft) O-NO 59 2 min 0,000 mm 0,8 UV-I 294 W/m 13,2 C 23,7 C 12,9 km/h (3 Bft) 97,73 %
04.09.2019 17:32 24,2 C 22,8 C 22,8 C 50 % 1013,5 hPa 0,0 l/m 11,2 km/h (2 Bft) NO 54 2 min 0,000 mm 0,8 UV-I 289 W/m 13,1 C 23,0 C 16,1 km/h (3 Bft) 100,00 %
04.09.2019 17:34 24,2 C 22,8 C 22,8 C 50 % 1013,4 hPa 0,0 l/m 10,3 km/h (2 Bft) O-NO 70 2 min 0,000 mm 0,8 UV-I 284 W/m 13,1 C 23,2 C 16,1 km/h (3 Bft) 95,56 %
04.09.2019 17:36 24,1 C 22,8 C 22,8 C 50 % 1013,4 hPa 0,0 l/m 7,9 km/h (2 Bft) O 88 2 min 0,000 mm 0,7 UV-I 277 W/m 13,0 C 23,7 C 11,3 km/h (2 Bft) 96,15 %
04.09.2019 17:38 24,2 C 22,8 C 22,8 C 50 % 1013,4 hPa 0,0 l/m 9,7 km/h (2 Bft) N-NO 26 2 min 0,000 mm 0,7 UV-I 272 W/m 13,1 C 23,3 C 12,9 km/h (3 Bft) 97,62 %
04.09.2019 17:40 24,1 C 22,8 C 22,8 C 52 % 1013,4 hPa 0,0 l/m 10,1 km/h (2 Bft) O 88 2 min 0,000 mm 0,7 UV-I 265 W/m 13,6 C 23,1 C 16,1 km/h (3 Bft) 94,00 %
04.09.2019 17:42 24,1 C 22,8 C 22,8 C 48 % 1013,3 hPa 0,0 l/m 7,9 km/h (2 Bft) O 95 2 min 0,000 mm 0,7 UV-I 260 W/m 12,4 C 23,7 C 12,9 km/h (3 Bft) 97,87 %
04.09.2019 17:44 24,2 C 22,8 C 22,8 C 48 % 1013,3 hPa 0,0 l/m 6,6 km/h (2 Bft) O-NO 77 2 min 0,000 mm 0,6 UV-I 253 W/m 12,5 C 24,2 C 12,9 km/h (3 Bft) 97,87 %
04.09.2019 17:46 24,2 C 22,8 C 22,2 C 48 % 1013,3 hPa 0,0 l/m 4,9 km/h (1 Bft) O-NO 63 2 min 0,000 mm 0,6 UV-I 249 W/m 12,5 C 24,2 C 8,0 km/h (2 Bft) 95,74 %
04.09.2019 17:48 24,2 C 22,8 C 22,2 C 49 % 1013,2 hPa 0,0 l/m 7,8 km/h (2 Bft) NO 50 2 min 0,000 mm 0,6 UV-I 243 W/m 12,8 C 23,8 C 14,5 km/h (3 Bft) 98,00 %
04.09.2019 17:50 24,1 C 22,8 C 22,2 C 50 % 1013,3 hPa 0,0 l/m 7,6 km/h (2 Bft) N-NO 32 2 min 0,000 mm 0,6 UV-I 238 W/m 13,0 C 23,8 C 12,9 km/h (3 Bft) 98,00 %
04.09.2019 17:52 24,0 C 22,8 C 22,2 C 50 % 1013,3 hPa 0,0 l/m 6,8 km/h (2 Bft) O-NO 59 2 min 0,000 mm 0,5 UV-I 232 W/m 12,9 C 23,9 C 11,3 km/h (2 Bft) 97,87 %
04.09.2019 17:54 24,0 C 22,8 C 22,2 C 51 % 1013,3 hPa 0,0 l/m 8,4 km/h (2 Bft) O-NO 66 2 min 0,000 mm 0,5 UV-I 226 W/m 13,2 C 23,4 C 14,5 km/h (3 Bft) 95,45 %
04.09.2019 17:56 23,8 C 22,8 C 22,2 C 50 % 1013,3 hPa 0,0 l/m 9,6 km/h (2 Bft) O 80 2 min 0,000 mm 0,5 UV-I 220 W/m 12,7 C 22,9 C 14,5 km/h (3 Bft) 98,00 %
04.09.2019 17:58 23,8 C 22,8 C 22,2 C 52 % 1013,3 hPa 0,0 l/m 6,7 km/h (2 Bft) O-NO 67 2 min 0,000 mm 0,5 UV-I 214 W/m 13,3 C 23,7 C 9,7 km/h (2 Bft) 97,87 %
04.09.2019 18:00 23,8 C 22,8 C 22,2 C 51 % 1013,3 hPa 0,0 l/m 6,0 km/h (2 Bft) O-SO 102 2 min 0,000 mm 0,5 UV-I 209 W/m 13,0 C 23,8 C 8,0 km/h (2 Bft) 94,74 %
04.09.2019 18:02 23,9 C 22,8 C 22,2 C 51 % 1013,2 hPa 0,0 l/m 6,1 km/h (2 Bft) O-NO 60 2 min 0,254 mm 0,3 UV-I 203 W/m 13,1 C 23,9 C 9,7 km/h (2 Bft) 97,87 %
04.09.2019 18:04 23,9 C 22,8 C 21,7 C 51 % 1013,3 hPa 0,0 l/m 6,6 km/h (2 Bft) O-NO 64 2 min 0,000 mm 0,0 UV-I 198 W/m 13,1 C 23,9 C 8,0 km/h (2 Bft) 95,12 %
04.09.2019 18:06 23,8 C 22,8 C 21,7 C 52 % 1013,2 hPa 0,0 l/m 6,0 km/h (2 Bft) N-NO 33 2 min 0,000 mm 0,0 UV-I 192 W/m 13,3 C 23,8 C 8,0 km/h (2 Bft) 95,56 %
04.09.2019 18:08 23,7 C 22,8 C 21,7 C 52 % 1013,1 hPa 0,0 l/m 7,9 km/h (2 Bft) NO 53 2 min 0,000 mm 0,0 UV-I 187 W/m 13,2 C 23,3 C 12,9 km/h (3 Bft) 91,07 %
04.09.2019 18:10 23,7 C 22,8 C 21,7 C 52 % 1013,2 hPa 0,0 l/m 6,7 km/h (2 Bft) O-NO 60 2 min 0,000 mm 0,0 UV-I 182 W/m 13,2 C 23,6 C 12,9 km/h (3 Bft) 98,11 %
04.09.2019 18:12 23,6 C 22,8 C 21,7 C 52 % 1013,2 hPa 0,0 l/m 9,0 km/h (2 Bft) O-NO 57 2 min 0,000 mm 0,0 UV-I 176 W/m 13,2 C 22,9 C 14,5 km/h (3 Bft) 95,74 %
04.09.2019 18:14 23,6 C 22,8 C 21,7 C 53 % 1013,2 hPa 0,0 l/m 6,4 km/h (2 Bft) O-NO 75 2 min 0,000 mm 0,0 UV-I 171 W/m 13,4 C 23,6 C 9,7 km/h (2 Bft) 94,74 %
04.09.2019 18:16 23,5 C 22,8 C 21,7 C 54 % 1013,2 hPa 0,0 l/m 5,6 km/h (1 Bft) O-NO 59 2 min 0,000 mm 0,0 UV-I 165 W/m 13,6 C 23,5 C 8,0 km/h (2 Bft) 94,34 %
04.09.2019 18:18 23,6 C 22,8 C 21,7 C 53 % 1013,2 hPa 0,0 l/m 5,7 km/h (1 Bft) O-NO 59 2 min 0,000 mm 0,0 UV-I 160 W/m 13,4 C 23,6 C 11,3 km/h (2 Bft) 94,44 %
04.09.2019 18:20 23,6 C 22,8 C 21,7 C 52 % 1013,2 hPa 0,0 l/m 6,3 km/h (2 Bft) O-NO 64 2 min 0,000 mm 0,0 UV-I 155 W/m 13,2 C 23,6 C 12,9 km/h (3 Bft) 94,34 %
04.09.2019 18:22 23,6 C 22,8 C 21,7 C 53 % 1013,2 hPa 0,0 l/m 5,8 km/h (2 Bft) O-NO 67 2 min 0,000 mm 0,0 UV-I 149 W/m 13,4 C 23,6 C 8,0 km/h (2 Bft) 96,00 %
04.09.2019 18:24 23,6 C 22,8 C 21,1 C 54 % 1013,2 hPa 0,0 l/m 4,8 km/h (1 Bft) O-NO 65 2 min 0,000 mm 0,0 UV-I 146 W/m 13,7 C 23,6 C 9,7 km/h (2 Bft) 94,29 %
04.09.2019 18:26 23,6 C 22,8 C 21,1 C 56 % 1013,2 hPa 0,0 l/m 4,9 km/h (1 Bft) O 84 2 min 0,000 mm 0,0 UV-I 140 W/m 14,3 C 23,6 C 8,0 km/h (2 Bft) 96,23 %
04.09.2019 18:28 23,5 C 22,8 C 21,1 C 53 % 1013,2 hPa 0,0 l/m 5,0 km/h (1 Bft) NO 35 2 min 0,000 mm 0,0 UV-I 135 W/m 13,4 C 23,5 C 8,0 km/h (2 Bft) 96,00 %
04.09.2019 18:30 23,4 C 22,8 C 21,1 C 54 % 1013,1 hPa 0,0 l/m 6,6 km/h (2 Bft) O-NO 70 2 min 0,000 mm 0,0 UV-I 131 W/m 13,6 C 23,3 C 9,7 km/h (2 Bft) 92,45 %
04.09.2019 18:32 23,3 C 22,8 C 21,1 C 54 % 1013,1 hPa 0,0 l/m 4,6 km/h (1 Bft) O-NO 75 2 min 0,000 mm 0,0 UV-I 125 W/m 13,5 C 23,3 C 8,0 km/h (2 Bft) 97,56 %
04.09.2019 18:34 23,3 C 22,8 C 21,1 C 54 % 1013,1 hPa 0,0 l/m 6,2 km/h (2 Bft) NO 51 2 min 0,000 mm 0,0 UV-I 121 W/m 13,5 C 23,3 C 9,7 km/h (2 Bft) 95,45 %
04.09.2019 18:36 23,3 C 22,8 C 21,1 C 54 % 1013,1 hPa 0,0 l/m 7,8 km/h (2 Bft) O-NO 72 2 min 0,000 mm 0,0 UV-I 117 W/m 13,5 C 22,9 C 9,7 km/h (2 Bft) 98,00 %
04.09.2019 18:38 23,2 C 22,8 C 21,1 C 55 % 1013,1 hPa 0,0 l/m 6,3 km/h (2 Bft) O-NO 63 2 min 0,000 mm 0,0 UV-I 112 W/m 13,6 C 23,2 C 8,0 km/h (2 Bft) 98,00 %
04.09.2019 18:40 23,1 C 22,8 C 21,1 C 55 % 1013,0 hPa 0,0 l/m 5,0 km/h (1 Bft) O-NO 65 2 min 0,000 mm 0,0 UV-I 107 W/m 13,6 C 23,1 C 6,4 km/h (2 Bft) 98,00 %
04.09.2019 18:42 23,0 C 22,8 C 20,6 C 56 % 1013,0 hPa 0,0 l/m 4,5 km/h (1 Bft) NO 52 2 min 0,000 mm 0,0 UV-I 103 W/m 13,7 C 23,0 C 6,4 km/h (2 Bft) 97,37 %
04.09.2019 18:44 22,9 C 22,8 C 20,6 C 57 % 1013,1 hPa 0,0 l/m 5,0 km/h (1 Bft) O-NO 64 2 min 0,000 mm 0,0 UV-I 99 W/m 13,9 C 22,9 C 6,4 km/h (2 Bft) 97,87 %
04.09.2019 18:46 22,8 C 22,8 C 20,6 C 56 % 1013,0 hPa 0,0 l/m 4,4 km/h (1 Bft) O-NO 63 2 min 0,000 mm 0,0 UV-I 95 W/m 13,6 C 22,8 C 6,4 km/h (2 Bft) 97,87 %
04.09.2019 18:48 22,8 C 22,8 C 20,6 C 57 % 1013,1 hPa 0,0 l/m 3,7 km/h (1 Bft) O-NO 63 2 min 0,000 mm 0,0 UV-I 92 W/m 13,8 C 22,8 C 4,8 km/h (1 Bft) 98,11 %
04.09.2019 18:50 22,8 C 22,8 C 20,0 C 57 % 1013,0 hPa 0,0 l/m 5,0 km/h (1 Bft) O 81 2 min 0,000 mm 0,0 UV-I 86 W/m 13,8 C 22,8 C 8,0 km/h (2 Bft) 97,87 %
04.09.2019 18:52 22,7 C 22,8 C 20,0 C 57 % 1013,0 hPa 0,0 l/m 4,8 km/h (1 Bft) O-NO 77 2 min 0,000 mm 0,0 UV-I 83 W/m 13,7 C 22,7 C 8,0 km/h (2 Bft) 97,87 %
04.09.2019 18:54 22,6 C 22,8 C 19,4 C 58 % 1013,0 hPa 0,0 l/m 3,9 km/h (1 Bft) O 82 2 min 0,000 mm 0,0 UV-I 81 W/m 13,9 C 22,6 C 4,8 km/h (1 Bft) 97,44 %
04.09.2019 18:56 22,4 C 22,8 C 19,4 C 58 % 1013,0 hPa 0,0 l/m 3,7 km/h (1 Bft) O 85 2 min 0,000 mm 0,0 UV-I 76 W/m 13,7 C 22,4 C 6,4 km/h (2 Bft) 98,00 %
04.09.2019 18:58 22,3 C 22,8 C 18,9 C 60 % 1013,0 hPa 0,0 l/m 4,6 km/h (1 Bft) O-SO 106 2 min 0,000 mm 0,0 UV-I 72 W/m 14,2 C 22,3 C 6,4 km/h (2 Bft) 98,00 %
04.09.2019 19:00 22,1 C 22,8 C 18,9 C 61 % 1013,0 hPa 0,0 l/m 4,5 km/h (1 Bft) O-SO 105 2 min 0,127 mm 0,0 UV-I 69 W/m 14,2 C 22,1 C 6,4 km/h (2 Bft) 97,56 %
04.09.2019 19:02 22,0 C 22,8 C 18,9 C 61 % 1013,0 hPa 0,0 l/m 3,6 km/h (1 Bft) O 99 2 min 0,000 mm 0,0 UV-I 65 W/m 14,1 C 22,0 C 4,8 km/h (1 Bft) 98,00 %
04.09.2019 19:04 21,9 C 22,8 C 18,9 C 61 % 1013,0 hPa 0,0 l/m 2,5 km/h (1 Bft) O 99 2 min 0,000 mm 0,0 UV-I 61 W/m 14,0 C 21,9 C 3,2 km/h (1 Bft) 97,73 %
04.09.2019 19:06 21,8 C 22,8 C 18,3 C 62 % 1012,9 hPa 0,0 l/m 3,2 km/h (1 Bft) O 98 2 min 0,000 mm 0,0 UV-I 59 W/m 14,2 C 21,8 C 4,8 km/h (1 Bft) 95,74 %
04.09.2019 19:08 21,8 C 22,8 C 18,3 C 62 % 1012,9 hPa 0,0 l/m 3,4 km/h (1 Bft) O 98 2 min 0,000 mm 0,0 UV-I 55 W/m 14,2 C 21,8 C 4,8 km/h (1 Bft) 95,74 %
04.09.2019 19:10 21,6 C 22,8 C 17,8 C 63 % 1012,9 hPa 0,0 l/m 3,4 km/h (1 Bft) O 98 2 min 0,000 mm 0,0 UV-I 52 W/m 14,2 C 21,6 C 4,8 km/h (1 Bft) 96,00 %
04.09.2019 19:12 21,5 C 22,8 C 17,8 C 64 % 1012,9 hPa 0,0 l/m 2,5 km/h (1 Bft) O 98 2 min 0,000 mm 0,0 UV-I 49 W/m 14,4 C 21,5 C 4,8 km/h (1 Bft) 97,87 %
04.09.2019 19:14 21,4 C 22,8 C 17,2 C 63 % 1012,9 hPa 0,0 l/m 2,5 km/h (1 Bft) O 98 2 min 0,000 mm 0,0 UV-I 46 W/m 14,1 C 21,4 C 3,2 km/h (1 Bft) 98,00 %
04.09.2019 19:16 21,3 C 22,8 C 17,2 C 64 % 1012,9 hPa 0,0 l/m 1,6 km/h (1 Bft) O 98 2 min 0,000 mm 0,0 UV-I 44 W/m 14,2 C 21,3 C 3,2 km/h (1 Bft) 97,87 %
04.09.2019 19:18 21,2 C 22,8 C 17,2 C 64 % 1012,9 hPa 0,0 l/m 2,1 km/h (1 Bft) O 99 2 min 0,000 mm 0,0 UV-I 41 W/m 14,1 C 21,2 C 3,2 km/h (1 Bft) 94,29 %
04.09.2019 19:20 21,2 C 22,8 C 16,7 C 65 % 1012,9 hPa 0,0 l/m 2,6 km/h (1 Bft) O 98 2 min 0,000 mm 0,0 UV-I 37 W/m 14,4 C 21,2 C 3,2 km/h (1 Bft) 96,00 %
04.09.2019 19:22 21,1 C 22,8 C 16,7 C 65 % 1012,9 hPa 0,0 l/m 2,6 km/h (1 Bft) O 98 2 min 0,000 mm 0,0 UV-I 34 W/m 14,3 C 21,1 C 4,8 km/h (1 Bft) 96,00 %
04.09.2019 19:24 21,1 C 22,8 C 16,7 C 65 % 1012,9 hPa 0,0 l/m 1,8 km/h (1 Bft) O 98 2 min 0,000 mm 0,0 UV-I 31 W/m 14,3 C 21,1 C 3,2 km/h (1 Bft) 95,74 %
04.09.2019 19:26 20,9 C 22,8 C 16,7 C 66 % 1013,0 hPa 0,0 l/m 3,0 km/h (1 Bft) O 99 2 min 0,000 mm 0,0 UV-I 24 W/m 14,3 C 20,9 C 4,8 km/h (1 Bft) 100,00 %
04.09.2019 19:28 20,9 C 22,8 C 16,1 C 66 % 1012,9 hPa 0,0 l/m 1,9 km/h (1 Bft) O 99 2 min 0,000 mm 0,0 UV-I 16 W/m 14,3 C 20,9 C 3,2 km/h (1 Bft) 100,00 %
04.09.2019 19:30 20,9 C 22,8 C 16,1 C 66 % 1013,0 hPa 0,0 l/m 2,6 km/h (1 Bft) O 99 0 min 0,000 mm 0,0 UV-I 16 W/m 14,3 C 20,9 C 3,2 km/h (1 Bft) 95,24 %
04.09.2019 19:32 20,9 C 22,8 C 16,1 C 66 % 1012,9 hPa 0,0 l/m 2,7 km/h (1 Bft) O 99 0 min 0,000 mm 0,0 UV-I 14 W/m 14,3 C 20,9 C 3,2 km/h (1 Bft) 100,00 %
04.09.2019 19:34 20,8 C 22,8 C 16,1 C 68 % 1012,9 hPa 0,0 l/m 2,1 km/h (1 Bft) O 99 0 min 0,000 mm 0,0 UV-I 12 W/m 14,7 C 20,8 C 3,2 km/h (1 Bft) 100,00 %
04.09.2019 19:36 20,4 C 22,8 C 15,6 C 69 % 1013,0 hPa 0,0 l/m 2,1 km/h (1 Bft) O 99 0 min 0,000 mm 0,0 UV-I 12 W/m 14,5 C 20,4 C 3,2 km/h (1 Bft) 100,00 %
04.09.2019 19:38 20,0 C 22,8 C 15,6 C 71 % 1013,0 hPa 0,0 l/m 2,1 km/h (1 Bft) O 99 0 min 0,000 mm 0,0 UV-I 11 W/m 14,6 C 20,0 C 3,2 km/h (1 Bft) 95,74 %
04.09.2019 19:40 19,6 C 22,8 C 15,6 C 70 % 1013,0 hPa 0,0 l/m 1,5 km/h (1 Bft) O 99 0 min 0,000 mm 0,0 UV-I 11 W/m 14,0 C 19,6 C 3,2 km/h (1 Bft) 97,56 %
04.09.2019 19:42 19,5 C 22,8 C 15,6 C 71 % 1013,0 hPa 0,0 l/m 1,9 km/h (1 Bft) O 99 0 min 0,000 mm 0,0 UV-I 9 W/m 14,1 C 19,5 C 3,2 km/h (1 Bft) 98,11 %
04.09.2019 19:44 19,5 C 22,8 C 15,6 C 70 % 1013,0 hPa 0,0 l/m 2,2 km/h (1 Bft) O 99 0 min 0,000 mm 0,0 UV-I 9 W/m 13,9 C 19,5 C 3,2 km/h (1 Bft) 97,37 %
04.09.2019 19:46 19,5 C 22,8 C 15,6 C 70 % 1013,0 hPa 0,0 l/m 1,8 km/h (1 Bft) O 99 0 min 0,000 mm 0,0 UV-I 7 W/m 13,9 C 19,5 C 4,8 km/h (1 Bft) 95,24 %
04.09.2019 19:48 19,5 C 22,8 C 15,0 C 70 % 1013,1 hPa 0,0 l/m 1,3 km/h (1 Bft) O 99 0 min 0,000 mm 0,0 UV-I 7 W/m 13,9 C 19,5 C 3,2 km/h (1 Bft) 97,73 %
04.09.2019 19:50 19,3 C 22,8 C 15,0 C 70 % 1013,0 hPa 0,0 l/m 0,0 km/h (0 Bft) O 99 0 min 0,000 mm 0,0 UV-I 7 W/m 13,7 C 19,3 C 0,0 km/h (0 Bft) 98,53 %
04.09.2019 19:52 19,1 C 22,8 C 15,0 C 70 % 1013,1 hPa 0,0 l/m 0,0 km/h (0 Bft) O 99 0 min 0,000 mm 0,0 UV-I 5 W/m 13,5 C 19,1 C 0,0 km/h (0 Bft) 95,74 %
04.09.2019 19:54 18,9 C 22,8 C 15,0 C 71 % 1013,1 hPa 0,0 l/m 0,0 km/h (0 Bft) O 99 0 min 0,000 mm 0,0 UV-I 5 W/m 13,5 C 18,9 C 0,0 km/h (0 Bft) 97,37 %
04.09.2019 19:56 18,8 C 22,8 C 15,0 C 72 % 1013,1 hPa 0,0 l/m 0,0 km/h (0 Bft) O 99 0 min 0,000 mm 0,0 UV-I 5 W/m 13,6 C 18,8 C 1,6 km/h (1 Bft) 98,00 %
04.09.2019 19:58 18,6 C 22,8 C 15,0 C 72 % 1013,1 hPa 0,0 l/m 1,1 km/h (1 Bft) O 99 0 min 0,000 mm 0,0 UV-I 5 W/m 13,4 C 18,6 C 1,6 km/h (1 Bft) 97,73 %
04.09.2019 20:00 18,4 C 22,8 C 15,0 C 73 % 1013,1 hPa 0,0 l/m 1,6 km/h (1 Bft) O 99 0 min 0,026 mm 0,0 UV-I 0 W/m 13,5 C 18,4 C 3,2 km/h (1 Bft) 94,00 %
04.09.2019 20:02 18,2 C 22,8 C 15,0 C 76 % 1013,1 hPa 0,0 l/m 1,6 km/h (1 Bft) O 99 0 min 0,000 mm 0,0 UV-I 0 W/m 13,9 C 18,2 C 3,2 km/h (1 Bft) 100,00 %
04.09.2019 20:04 17,9 C 22,2 C 15,0 C 77 % 1013,1 hPa 0,0 l/m 1,6 km/h (1 Bft) O 99 0 min 0,000 mm 0,0 UV-I 0 W/m 13,8 C 17,9 C 3,2 km/h (1 Bft) 100,00 %
04.09.2019 20:06 17,8 C 22,2 C 15,0 C 77 % 1013,1 hPa 0,0 l/m 2,6 km/h (1 Bft) O 99 0 min 0,000 mm 0,0 UV-I 0 W/m 13,7 C 17,8 C 3,2 km/h (1 Bft) 100,00 %
04.09.2019 20:08 17,7 C 22,2 C 14,4 C 77 % 1013,1 hPa 0,0 l/m 1,7 km/h (1 Bft) O 99 0 min 0,000 mm 0,0 UV-I 0 W/m 13,6 C 17,7 C 3,2 km/h (1 Bft) 98,39 %
04.09.2019 20:10 17,7 C 22,2 C 14,4 C 77 % 1013,1 hPa 0,0 l/m 0,9 km/h (0 Bft) O 99 0 min 0,000 mm 0,0 UV-I 0 W/m 13,6 C 17,7 C 3,2 km/h (1 Bft) 100,00 %
04.09.2019 20:12 17,7 C 22,2 C 15,0 C 76 % 1013,1 hPa 0,0 l/m 0,9 km/h (0 Bft) O 99 0 min 0,000 mm 0,0 UV-I 0 W/m 13,4 C 17,7 C 1,6 km/h (1 Bft) 100,00 %
04.09.2019 20:14 17,7 C 22,8 C 14,4 C 76 % 1013,1 hPa 0,0 l/m 1,6 km/h (1 Bft) O 99 0 min 0,000 mm 0,0 UV-I 0 W/m 13,4 C 17,7 C 3,2 km/h (1 Bft) 100,00 %
04.09.2019 20:16 17,7 C 22,8 C 14,4 C 76 % 1013,1 hPa 0,0 l/m 1,5 km/h (1 Bft) O 99 0 min 0,000 mm 0,0 UV-I 0 W/m 13,4 C 17,7 C 3,2 km/h (1 Bft) 100,00 %
04.09.2019 20:18 17,6 C 22,2 C 14,4 C 76 % 1013,1 hPa 0,0 l/m 1,5 km/h (1 Bft) O 99 0 min 0,000 mm 0,0 UV-I 0 W/m 13,3 C 17,6 C 3,2 km/h (1 Bft) 97,87 %
04.09.2019 20:20 17,3 C 22,2 C 14,4 C 78 % 1013,1 hPa 0,0 l/m 1,9 km/h (1 Bft) O 99 0 min 0,000 mm 0,0 UV-I 0 W/m 13,4 C 17,3 C 3,2 km/h (1 Bft) 97,56 %
04.09.2019 20:22 17,2 C 22,2 C 14,4 C 78 % 1013,1 hPa 0,0 l/m 2,3 km/h (1 Bft) O 99 0 min 0,000 mm 0,0 UV-I 0 W/m 13,3 C 17,2 C 3,2 km/h (1 Bft) 100,00 %
04.09.2019 20:24 17,2 C 22,2 C 14,4 C 77 % 1013,1 hPa 0,0 l/m 1,9 km/h (1 Bft) O 99 0 min 0,000 mm 0,0 UV-I 0 W/m 13,1 C 17,2 C 3,2 km/h (1 Bft) 100,00 %
04.09.2019 20:26 17,2 C 22,2 C 13,9 C 77 % 1013,1 hPa 0,0 l/m 2,6 km/h (1 Bft) O 99 0 min 0,000 mm 0,0 UV-I 0 W/m 13,1 C 17,2 C 4,8 km/h (1 Bft) 97,56 %
04.09.2019 20:29 17,2 C 22,2 C 13,9 C 77 % 1013,1 hPa 0,0 l/m 3,3 km/h (1 Bft) SO 134 0 min 0,000 mm 0,0 UV-I 0 W/m 13,1 C 17,2 C 4,8 km/h (1 Bft) 100,00 %
04.09.2019 20:30 17,2 C 22,2 C 13,9 C 78 % 1013,1 hPa 0,0 l/m 2,6 km/h (1 Bft) SO 134 0 min 0,000 mm 0,0 UV-I 0 W/m 13,3 C 17,2 C 3,2 km/h (1 Bft) 100,00 %
04.09.2019 20:32 17,2 C 22,2 C 14,4 C 77 % 1013,1 hPa 0,0 l/m 3,4 km/h (1 Bft) SO 134 0 min 0,000 mm 0,0 UV-I 0 W/m 13,1 C 17,2 C 4,8 km/h (1 Bft) 100,00 %
04.09.2019 20:34 17,2 C 22,2 C 14,4 C 76 % 1013,1 hPa 0,0 l/m 3,8 km/h (1 Bft) SO 134 0 min 0,000 mm 0,0 UV-I 0 W/m 12,9 C 17,2 C 6,4 km/h (2 Bft) 100,00 %
04.09.2019 20:36 17,0 C 22,2 C 14,4 C 77 % 1013,0 hPa 0,0 l/m 4,4 km/h (1 Bft) O-SO 109 0 min 0,000 mm 0,0 UV-I 0 W/m 12,9 C 17,0 C 9,7 km/h (2 Bft) 100,00 %
04.09.2019 20:38 17,1 C 22,2 C 14,4 C 76 % 1013,1 hPa 0,0 l/m 4,7 km/h (1 Bft) O-SO 117 0 min 0,000 mm 0,0 UV-I 0 W/m 12,8 C 17,1 C 9,7 km/h (2 Bft) 100,00 %
04.09.2019 20:40 17,1 C 22,2 C 14,4 C 76 % 1013,1 hPa 0,0 l/m 3,0 km/h (1 Bft) O-SO 117 0 min 0,000 mm 0,0 UV-I 0 W/m 12,8 C 17,1 C 4,8 km/h (1 Bft) 100,00 %
04.09.2019 20:42 17,1 C 22,2 C 14,4 C 77 % 1013,1 hPa 0,0 l/m 2,7 km/h (1 Bft) SO 126 0 min 0,000 mm 0,0 UV-I 0 W/m 13,0 C 17,1 C 4,8 km/h (1 Bft) 100,00 %
04.09.2019 20:44 17,1 C 22,2 C 14,4 C 78 % 1013,1 hPa 0,0 l/m 1,4 km/h (1 Bft) SO 126 0 min 0,000 mm 0,0 UV-I 0 W/m 13,2 C 17,1 C 3,2 km/h (1 Bft) 97,73 %
04.09.2019 20:46 16,8 C 22,2 C 14,4 C 79 % 1013,2 hPa 0,0 l/m 0,1 km/h (0 Bft) SO 126 0 min 0,000 mm 0,0 UV-I 0 W/m 13,1 C 16,8 C 1,6 km/h (1 Bft) 98,00 %
04.09.2019 20:48 16,8 C 22,2 C 14,4 C 79 % 1013,2 hPa 0,0 l/m 0,0 km/h (0 Bft) SO 126 0 min 0,000 mm 0,0 UV-I 0 W/m 13,1 C 16,8 C 0,0 km/h (0 Bft) 100,00 %
04.09.2019 20:50 16,7 C 22,2 C 13,9 C 79 % 1013,1 hPa 0,0 l/m 0,0 km/h (0 Bft) SO 126 0 min 0,000 mm 0,0 UV-I 0 W/m 13,0 C 16,7 C 0,0 km/h (0 Bft) 100,00 %
04.09.2019 20:52 16,7 C 22,2 C 14,4 C 77 % 1013,2 hPa 0,0 l/m 0,0 km/h (0 Bft) SO 126 0 min 0,000 mm 0,0 UV-I 0 W/m 12,6 C 16,7 C 0,0 km/h (0 Bft) 98,00 %
04.09.2019 20:54 16,8 C 22,2 C 13,9 C 78 % 1013,2 hPa 0,0 l/m 0,0 km/h (0 Bft) SO 126 0 min 0,000 mm 0,0 UV-I 0 W/m 12,9 C 16,8 C 0,0 km/h (0 Bft) 100,00 %
04.09.2019 20:56 16,8 C 22,2 C 13,9 C 79 % 1013,2 hPa 0,0 l/m 0,0 km/h (0 Bft) SO 126 0 min 0,000 mm 0,0 UV-I 0 W/m 13,1 C 16,8 C 0,0 km/h (0 Bft) 98,00 %
04.09.2019 20:59 16,8 C 22,2 C 13,9 C 79 % 1013,2 hPa 0,0 l/m 0,7 km/h (0 Bft) SO 134 0 min 0,000 mm 0,0 UV-I 0 W/m 13,1 C 16,8 C 3,2 km/h (1 Bft) 98,63 %
04.09.2019 21:00 16,8 C 22,2 C 13,9 C 79 % 1013,2 hPa 0,0 l/m 2,9 km/h (1 Bft) SO 135 0 min 0,000 mm 0,0 UV-I 0 W/m 13,1 C 16,8 C 3,2 km/h (1 Bft) 93,33 %
04.09.2019 21:02 16,7 C 22,2 C 13,9 C 79 % 1013,2 hPa 0,0 l/m 1,5 km/h (1 Bft) SO 135 0 min 0,000 mm 0,0 UV-I 0 W/m 13,0 C 16,7 C 3,2 km/h (1 Bft) 95,74 %
04.09.2019 21:04 16,7 C 22,2 C 13,9 C 80 % 1013,2 hPa 0,0 l/m 1,3 km/h (1 Bft) SO 135 0 min 0,000 mm 0,0 UV-I 0 W/m 13,2 C 16,7 C 3,2 km/h (1 Bft) 97,87 %
04.09.2019 21:06 16,4 C 22,2 C 13,9 C 80 % 1013,1 hPa 0,0 l/m 0,8 km/h (0 Bft) SO 134 0 min 0,000 mm 0,0 UV-I 0 W/m 12,9 C 16,4 C 1,6 km/h (1 Bft) 95,74 %
04.09.2019 21:08 16,3 C 22,2 C 13,9 C 81 % 1013,1 hPa 0,0 l/m 0,7 km/h (0 Bft) SO 134 0 min 0,000 mm 0,0 UV-I 0 W/m 13,0 C 16,3 C 1,6 km/h (1 Bft) 93,62 %
04.09.2019 21:10 16,2 C 22,2 C 13,3 C 81 % 1013,1 hPa 0,0 l/m 1,4 km/h (1 Bft) SO 134 0 min 0,000 mm 0,0 UV-I 0 W/m 12,9 C 16,2 C 3,2 km/h (1 Bft) 94,00 %
04.09.2019 21:12 16,2 C 22,2 C 13,3 C 81 % 1013,1 hPa 0,0 l/m 3,1 km/h (1 Bft) SO 134 0 min 0,000 mm 0,0 UV-I 0 W/m 12,9 C 16,2 C 4,8 km/h (1 Bft) 95,74 %
04.09.2019 21:14 16,2 C 22,2 C 13,3 C 80 % 1013,1 hPa 0,0 l/m 4,0 km/h (1 Bft) SO 134 0 min 0,000 mm 0,0 UV-I 0 W/m 12,7 C 16,2 C 4,8 km/h (1 Bft) 95,74 %
04.09.2019 21:16 16,2 C 22,2 C 13,3 C 80 % 1013,1 hPa 0,0 l/m 4,3 km/h (1 Bft) O-SO 109 0 min 0,000 mm 0,0 UV-I 0 W/m 12,7 C 16,2 C 6,4 km/h (2 Bft) 94,44 %
04.09.2019 21:18 16,3 C 22,2 C 13,3 C 80 % 1013,0 hPa 0,0 l/m 5,1 km/h (1 Bft) O-SO 108 0 min 0,000 mm 0,0 UV-I 0 W/m 12,8 C 16,3 C 6,4 km/h (2 Bft) 96,55 %
04.09.2019 21:20 16,4 C 22,2 C 13,3 C 79 % 1013,1 hPa 0,0 l/m 4,3 km/h (1 Bft) O-SO 108 0 min 0,000 mm 0,0 UV-I 0 W/m 12,7 C 16,4 C 6,4 km/h (2 Bft) 93,62 %
04.09.2019 21:22 16,7 C 22,2 C 13,3 C 78 % 1013,1 hPa 0,0 l/m 4,2 km/h (1 Bft) O-SO 109 0 min 0,000 mm 0,0 UV-I 0 W/m 12,8 C 16,7 C 6,4 km/h (2 Bft) 92,86 %
04.09.2019 21:24 17,2 C 22,2 C 13,3 C 76 % 1013,1 hPa 0,0 l/m 3,3 km/h (1 Bft) O-SO 108 0 min 0,000 mm 0,0 UV-I 0 W/m 12,9 C 17,2 C 9,7 km/h (2 Bft) 95,12 %
04.09.2019 21:26 17,6 C 22,2 C 13,3 C 74 % 1013,1 hPa 0,0 l/m 2,5 km/h (1 Bft) O-SO 108 0 min 0,000 mm 0,0 UV-I 0 W/m 12,9 C 17,6 C 4,8 km/h (1 Bft) 92,98 %
04.09.2019 21:29 17,3 C 22,2 C 13,3 C 75 % 1013,1 hPa 0,0 l/m 3,2 km/h (1 Bft) O-SO 115 0 min 0,000 mm 0,0 UV-I 0 W/m 12,8 C 17,3 C 4,8 km/h (1 Bft) 98,63 %
04.09.2019 21:30 17,0 C 22,2 C 13,3 C 76 % 1013,1 hPa 0,0 l/m 3,7 km/h (1 Bft) O-SO 114 0 min 0,000 mm 0,0 UV-I 0 W/m 12,7 C 17,0 C 4,8 km/h (1 Bft) 91,67 %
04.09.2019 21:32 16,6 C 22,2 C 13,3 C 78 % 1013,1 hPa 0,0 l/m 3,9 km/h (1 Bft) O-SO 122 0 min 0,000 mm 0,0 UV-I 0 W/m 12,7 C 16,6 C 4,8 km/h (1 Bft) 98,00 %
04.09.2019 21:34 16,4 C 22,2 C 13,3 C 78 % 1013,1 hPa 0,0 l/m 3,9 km/h (1 Bft) O 98 0 min 0,000 mm 0,0 UV-I 0 W/m 12,6 C 16,4 C 6,4 km/h (2 Bft) 97,87 %
04.09.2019 21:36 16,4 C 22,2 C 13,3 C 79 % 1013,1 hPa 0,0 l/m 4,1 km/h (1 Bft) O 101 0 min 0,000 mm 0,0 UV-I 0 W/m 12,7 C 16,4 C 6,4 km/h (2 Bft) 96,00 %
04.09.2019 21:38 16,3 C 22,2 C 13,3 C 79 % 1013,1 hPa 0,0 l/m 2,3 km/h (1 Bft) O 101 0 min 0,000 mm 0,0 UV-I 0 W/m 12,6 C 16,3 C 4,8 km/h (1 Bft) 97,87 %
04.09.2019 21:40 16,1 C 22,2 C 13,3 C 80 % 1013,1 hPa 0,0 l/m 0,0 km/h (0 Bft) O 101 0 min 0,000 mm 0,0 UV-I 0 W/m 12,6 C 16,1 C 1,6 km/h (1 Bft) 94,00 %
04.09.2019 21:42 16,0 C 22,2 C 13,3 C 81 % 1013,1 hPa 0,0 l/m 0,5 km/h (0 Bft) O 101 0 min 0,000 mm 0,0 UV-I 0 W/m 12,7 C 16,0 C 1,6 km/h (1 Bft) 100,00 %
04.09.2019 21:45 15,9 C 22,2 C 12,8 C 81 % 1013,1 hPa 0,0 l/m 1,6 km/h (1 Bft) O 90 0 min 0,000 mm 0,0 UV-I 0 W/m 12,6 C 15,9 C 3,2 km/h (1 Bft) 95,61 %
04.09.2019 21:50 15,6 C 22,2 C 12,8 C 82 % 1013,1 hPa 0,0 l/m 3,2 km/h (1 Bft) S 180 0 min 0,000 mm 0,0 UV-I 0 W/m 12,5 C 15,6 C 4,8 km/h (1 Bft) 94,74 %
04.09.2019 21:55 15,4 C 22,2 C 13,3 C 83 % 1013,1 hPa 0,0 l/m 4,8 km/h (1 Bft) S 180 0 min 0,000 mm 0,0 UV-I 0 W/m 12,5 C 15,4 C 6,4 km/h (2 Bft) 94,74 %
04.09.2019 22:00 15,4 C 22,2 C 12,8 C 83 % 1013,1 hPa 0,0 l/m 4,8 km/h (1 Bft) S-SW 202 0 min 0,025 mm 0,0 UV-I 0 W/m 12,5 C 15,4 C 4,8 km/h (1 Bft) 96,49 %
04.09.2019 22:05 15,2 C 22,2 C 12,8 C 84 % 1013,2 hPa 0,0 l/m 3,2 km/h (1 Bft) S-SW 202 0 min 0,000 mm 0,0 UV-I 0 W/m 12,5 C 15,2 C 4,8 km/h (1 Bft) 96,49 %
04.09.2019 22:10 15,1 C 22,2 C 12,8 C 84 % 1013,2 hPa 0,0 l/m 4,8 km/h (1 Bft) S-SW 202 0 min 0,000 mm 0,0 UV-I 0 W/m 12,4 C 15,1 C 8,0 km/h (2 Bft) 97,37 %
04.09.2019 22:15 14,9 C 22,2 C 13,3 C 84 % 1013,1 hPa 0,0 l/m 4,8 km/h (1 Bft) S-SW 202 0 min 0,000 mm 0,0 UV-I 0 W/m 12,2 C 14,9 C 6,4 km/h (2 Bft) 98,25 %
04.09.2019 22:20 14,8 C 22,2 C 12,8 C 84 % 1013,1 hPa 0,0 l/m 4,8 km/h (1 Bft) S-SW 202 0 min 0,000 mm 0,0 UV-I 0 W/m 12,1 C 14,8 C 6,4 km/h (2 Bft) 97,37 %
04.09.2019 22:25 14,7 C 22,2 C 12,2 C 85 % 1013,1 hPa 0,0 l/m 4,8 km/h (1 Bft) S-SW 202 0 min 0,000 mm 0,0 UV-I 0 W/m 12,2 C 14,7 C 6,4 km/h (2 Bft) 100,00 %
04.09.2019 22:30 15,2 C 22,2 C 13,3 C 84 % 1013,1 hPa 0,0 l/m 4,8 km/h (1 Bft) S-SW 202 0 min 0,000 mm 0,0 UV-I 0 W/m 12,5 C 15,2 C 8,0 km/h (2 Bft) 100,00 %
04.09.2019 22:35 15,2 C 22,2 C 13,9 C 83 % 1013,1 hPa 0,0 l/m 4,8 km/h (1 Bft) S-SW 202 0 min 0,000 mm 0,0 UV-I 0 W/m 12,3 C 15,2 C 6,4 km/h (2 Bft) 100,00 %
04.09.2019 22:40 15,2 C 22,2 C 13,9 C 84 % 1013,1 hPa 0,0 l/m 4,8 km/h (1 Bft) S-SW 202 0 min 0,000 mm 0,0 UV-I 0 W/m 12,5 C 15,2 C 8,0 km/h (2 Bft) 100,00 %
04.09.2019 22:45 15,2 C 22,2 C 13,9 C 84 % 1013,2 hPa 0,0 l/m 4,8 km/h (1 Bft) S-SW 202 0 min 0,000 mm 0,0 UV-I 0 W/m 12,5 C 15,2 C 6,4 km/h (2 Bft) 100,00 %
04.09.2019 22:50 14,8 C 22,2 C 13,9 C 85 % 1013,2 hPa 0,0 l/m 6,4 km/h (2 Bft) SW 225 0 min 0,000 mm 0,0 UV-I 0 W/m 12,3 C 14,8 C 8,0 km/h (2 Bft) 100,00 %
04.09.2019 22:55 14,7 C 22,2 C 13,9 C 87 % 1013,2 hPa 0,0 l/m 4,8 km/h (1 Bft) S-SW 202 0 min 0,000 mm 0,0 UV-I 0 W/m 12,6 C 14,7 C 6,4 km/h (2 Bft) 100,00 %
04.09.2019 23:00 14,8 C 22,2 C 13,9 C 87 % 1013,2 hPa 0,0 l/m 4,8 km/h (1 Bft) S-SW 202 0 min 0,025 mm 0,0 UV-I 0 W/m 12,7 C 14,8 C 6,4 km/h (2 Bft) 99,12 %
04.09.2019 23:05 14,7 C 22,2 C 13,3 C 87 % 1013,2 hPa 0,0 l/m 4,8 km/h (1 Bft) S-SW 202 0 min 0,000 mm 0,0 UV-I 0 W/m 12,6 C 14,7 C 6,4 km/h (2 Bft) 98,25 %
04.09.2019 23:10 14,8 C 22,2 C 12,8 C 88 % 1013,2 hPa 0,0 l/m 4,8 km/h (1 Bft) S-SW 202 0 min 0,000 mm 0,0 UV-I 0 W/m 12,8 C 14,8 C 4,8 km/h (1 Bft) 98,25 %
04.09.2019 23:15 14,9 C 22,2 C 12,2 C 87 % 1013,2 hPa 0,0 l/m 3,2 km/h (1 Bft) SW 225 0 min 0,000 mm 0,0 UV-I 0 W/m 12,8 C 14,9 C 6,4 km/h (2 Bft) 97,37 %
04.09.2019 23:20 14,9 C 22,2 C 12,8 C 87 % 1013,3 hPa 0,0 l/m 3,2 km/h (1 Bft) SW 225 0 min 0,000 mm 0,0 UV-I 0 W/m 12,8 C 14,9 C 6,4 km/h (2 Bft) 95,61 %
04.09.2019 23:25 15,0 C 22,2 C 12,2 C 88 % 1013,3 hPa 0,0 l/m 3,2 km/h (1 Bft) SW 225 0 min 0,000 mm 0,0 UV-I 0 W/m 13,0 C 15,0 C 4,8 km/h (1 Bft) 100,00 %
04.09.2019 23:30 15,2 C 22,2 C 12,2 C 87 % 1013,2 hPa 0,0 l/m 3,2 km/h (1 Bft) SW 225 0 min 0,000 mm 0,0 UV-I 0 W/m 13,0 C 15,2 C 3,2 km/h (1 Bft) 100,00 %
04.09.2019 23:35 15,1 C 22,2 C 12,2 C 87 % 1013,3 hPa 0,0 l/m 1,6 km/h (1 Bft) SW 225 0 min 0,000 mm 0,0 UV-I 0 W/m 13,0 C 15,1 C 3,2 km/h (1 Bft) 99,12 %
04.09.2019 23:40 15,0 C 22,2 C 11,7 C 87 % 1013,3 hPa 0,0 l/m 0,0 km/h (0 Bft) SW 225 0 min 0,000 mm 0,0 UV-I 0 W/m 12,9 C 15,0 C 3,2 km/h (1 Bft) 97,37 %
04.09.2019 23:45 14,6 C 22,2 C 12,8 C 88 % 1013,4 hPa 0,0 l/m 1,6 km/h (1 Bft) SW 225 0 min 0,000 mm 0,0 UV-I 0 W/m 12,6 C 14,6 C 4,8 km/h (1 Bft) 95,61 %
04.09.2019 23:50 14,2 C 22,2 C 11,7 C 89 % 1013,4 hPa 0,0 l/m 3,2 km/h (1 Bft) SW 225 0 min 0,000 mm 0,0 UV-I 0 W/m 12,4 C 14,2 C 4,8 km/h (1 Bft) 92,98 %
04.09.2019 23:55 14,1 C 22,2 C 11,7 C 90 % 1013,4 hPa 0,0 l/m 3,2 km/h (1 Bft) SW 225 0 min 0,000 mm 0,0 UV-I 0 W/m 12,5 C 14,1 C 4,8 km/h (1 Bft) 92,98 %
_ Min-Zeit 06:26 05:12 05:20 15:26 19:06 - 04:10 - - - - - - 06:22 06:22 04:10 09:04
Minimum _ 7,9 C 21,1 C 6,7 C 42 % 1012,9 hPa - 0,0 km/h (0 Bft) - - - - - - 7,1 C 8,0 C 0,0 km/h (0 Bft) 89,47 %
_ Max-Zeit 16:40 15:30 13:50 06:12 00:00 00:00 14:00 - - 06:36 13:00 12:52 13:02 19:34 16:38 14:00 00:20
Maximum _ 24,7 C 22,8 C 36,7 C 95 % 1022,5 hPa 0,0 l/m 16,1 km/h
N-NO (3 Bft)
- - 2 min 0,508 mm 4,8 UV-I 758 W/m 14,7 C 24,6 C 22,5 km/h
NO (4 Bft)
100,00 %
Durchschnitt _ 16,1 C 21,9 C 18,0 C 75 % 1017,7 hPa #0,0 l/m 5,0 km/h (1 Bft) O-NO - #12:54 h #4,038 mm 2,8 UV-I 426 W/m 11,0 C 15,7 C 7,8 km/h (2 Bft) 97,48 %